[[{"header":{"parameterUnit":"m.s-1","parameterCategory":1,"la1":31.0,"la2":29.5877,"lo1":-88.7671,"lo2":-86.6584,"dy":0.0162,"dx":0.0185,"nx":115,"ny":88,"refTime":"2023-07-11T00:00:00:Z","depth":0,"parameterNumber":2,"parameterNumberName":"U-component_of_WINDS"},"data":[0.0,0.0,0.0,0.0,0.0,0.0,0.0,0.0,0.0,0.0,0.0,0.0,0.0,0.0,0.0,0.0,0.0,0.0,0.0,0.0,0.0,0.0,0.0,0.0,0.0,0.0,0.0,0.0,0.0,0.0,0.0,0.0,0.0,0.0,0.0,0.0,0.0,0.0,0.0,0.0,0.0,0.0,0.0,0.0,0.0,0.0,0.0,0.0,0.0,0.0,0.0,0.0,0.0,0.0,0.0,0.0,0.0,0.0,0.0,0.0,0.0,0.0,0.0,0.0,0.0,0.0,0.0,0.0,0.0,0.0,0.0,0.0,0.0,0.0,0.0,0.0,0.0,0.0,0.0,0.0,0.0,0.0,0.0,0.0,0.0,0.0,0.0,0.0,0.0,0.0,0.0,0.0,0.0,0.0,0.0,0.0,0.0,0.0,0.0,0.0,0.0,0.0,0.0,0.0,0.0,0.0,0.0,0.0,0.0,0.0,0.0,0.0,0.0,0.0,0.0,0.0,0.0,0.0,0.0,0.0,0.0,0.0,0.0,0.0,0.0,0.0,0.0,0.0,0.0,0.0,0.0,0.0,0.0,0.0,0.0,0.0,0.0,0.0,0.0,0.0,0.0,0.0,0.0,0.0,0.0,0.0,0.0,0.0,0.0,0.0,0.0,0.0,0.0,0.0,0.0,0.0,0.0,0.0,0.0,0.0,0.0,0.0,0.0,0.0,0.0,0.0,0.0,0.0,0.0,0.0,0.0,0.0,0.0,0.0,0.0,0.0,0.0,0.0,0.0,0.0,0.0,0.0,0.0,0.0,0.0,0.0,0.0,0.0,0.0,0.0,0.0,0.0,0.0,0.0,0.0,0.0,0.0,0.0,0.0,0.0,0.0,0.0,0.0,0.0,0.0,0.0,0.0,0.0,0.0,0.0,0.0,0.0,0.0,0.0,0.0,0.0,0.0,0.0,0.0,0.0,0.0,0.0,0.0,0.0,0.0,0.0,0.0,0.0,0.0,0.0,0.0,0.0,0.0,0.0,0.0,0.0,0.0,0.0,0.0,0.0,0.0,0.0,0.0,0.0,0.0,0.0,0.0,0.0,0.0,0.0,0.0,0.0,0.0,0.0,0.0,0.0,0.0,0.0,0.0,0.0,0.0,0.0,0.0,0.0,0.0,0.0,0.0,0.0,0.0,0.0,0.0,0.0,0.0,0.0,0.0,0.0,0.0,0.0,0.0,0.0,0.0,0.0,0.0,0.0,0.0,0.0,0.0,0.0,0.0,0.0,0.0,0.0,0.0,0.0,0.0,0.0,0.0,0.0,0.0,0.0,0.0,0.0,0.0,0.0,0.0,0.0,0.0,0.0,0.0,0.0,0.0,0.0,0.0,0.0,0.0,0.0,0.0,0.0,0.0,0.0,0.0,0.0,0.0,0.0,0.0,0.0,0.0,0.0,0.0,0.0,0.0,0.0,0.0,0.0,0.0,0.0,0.0,0.0,0.0,0.0,0.0,0.0,0.0,0.0,0.0,0.0,0.0,0.0,0.0,0.0,0.0,0.0,0.0,0.0,0.0,0.0,0.0,0.0,0.0,0.0,0.0,0.0,0.0,0.0,0.0,0.0,0.0,0.0,0.0,0.0,0.0,0.0,0.0,0.0,0.0,0.0,0.0,0.0,0.0,0.0,0.0,0.0,0.0,0.0,0.0,0.0,0.0,0.0,0.0,0.0,0.0,0.0,0.0,0.0,0.0,0.0,0.0,0.0,0.0,0.0,0.0,0.0,0.0,0.0,0.0,0.0,0.0,0.0,0.0,0.0,0.0,0.0,0.0,0.0,0.0,0.0,0.0,0.0,0.0,0.0,0.0,0.0,0.0,0.0,0.0,0.0,0.0,0.0,0.0,0.0,0.0,0.0,0.0,0.0,0.0,0.0,0.0,0.0,0.0,0.0,0.0,0.0,0.0,0.0,0.0,0.0,0.0,0.0,0.0,0.0,0.0,0.0,0.0,0.0,0.0,0.0,0.0,0.0,0.0,0.0,0.0,0.0,0.0,0.0,0.0,0.0,0.0,0.0,0.0,0.0,0.0,0.0,0.0,0.0,0.0,0.0,0.0,0.0,0.0,0.0,0.0,0.0,0.0,0.0,0.0,0.0,0.0,0.0,0.0,0.0,0.0,0.0,0.0,0.0,0.0,0.0,0.0,0.0,0.0,0.0,0.0,0.0,0.0,0.0,0.0,0.0,0.0,0.0,0.0,0.0,0.0,0.0,0.0,0.0,0.0,0.0,0.0,0.0,0.0,0.0,0.0,0.0,0.0,0.0,0.0,0.0,0.0,0.0,0.0,0.0,0.0,0.0,0.0,0.0,0.0,0.0,0.0,0.0,0.0,0.0,0.0,0.0,0.0,0.0,0.0,0.0,0.0,0.0,0.0,0.0,0.0,0.0,0.0,0.0,0.0,0.0,0.0,0.0,0.0,0.0,0.0,0.0,0.0,0.0,0.0,0.0,0.0,0.0,0.0,0.0,0.0,0.0,0.0,0.0,0.0,0.0,0.0,0.0,0.0,0.0,0.0,0.0,0.0,0.0,0.0,0.0,0.0,0.0,0.0,0.0,0.0,0.0,0.0,0.0,0.0,0.0,0.0,0.0,0.0,0.0,0.0,0.0,0.0,0.0,0.0,0.0,0.0,0.0,0.0,0.0,0.0,0.0,0.0,0.0,0.0,0.0,0.0,0.0,0.0,0.0,0.0,0.0,0.0,0.0,0.0,0.0,0.0,0.0,0.0,0.0,0.0,0.0,0.0,0.0,0.0,0.0,0.0,0.0,0.0,0.0,0.0,0.0,0.0,0.0,0.0,0.0,0.0,0.0,0.0,0.0,0.0,0.0,0.0,0.0,0.0,0.0,0.0,0.0,0.0,0.0,0.0,0.0,0.0,0.0,0.0,0.0,0.0,0.0,0.0,0.0,0.0,0.0,0.0,0.0,0.0,0.0,0.0,0.0,0.0,0.0,0.0,0.0,0.0,0.0,0.0,0.0,0.0,0.0,0.0,0.0,0.0,0.0,0.0,0.0,0.0,0.0,0.0,0.0,0.0,0.0,0.0,0.0,0.0,0.0,0.0,0.0,0.0,0.0,0.0,0.0,0.0,0.0,0.0,0.0,0.0,0.0,0.0,0.0,0.0,0.0,0.0,0.0,0.0,0.0,0.0,0.0,0.0,0.0,0.0,0.0,0.0,0.0,0.0,0.0,0.0,0.0,0.0,0.0,0.0,0.0,0.0,0.0,0.0,0.0,0.0,0.0,0.0,0.0,0.0,0.0,0.0,0.0,0.0,0.0,0.0,0.0,0.0,0.0,0.0,0.0,0.0,0.0,0.0,0.0,0.0,0.0,0.0,0.0,0.0,0.0,0.0,0.0,0.0,0.0,0.0,0.0,0.0,0.0,0.0,0.0,0.0,0.0,0.0,0.0,0.0,0.0,0.0,0.0,0.0,0.0,0.0,0.0,0.0,0.0,0.0,0.0,0.0,0.0,0.0,0.0,0.0,0.0,0.0,0.0,0.0,0.0,0.0,0.0,0.0,0.0,0.0,0.0,0.0,0.0,0.0,0.0,0.0,0.0,0.0,0.0,0.0,0.0,0.0,0.0,0.0,0.0,0.0,0.0,0.0,0.0,0.0,0.0,0.0,0.0,0.0,0.0,0.0,0.0,0.0,0.0,0.0,0.0,0.0,0.0,0.0,0.0,0.0,0.0,0.0,0.0,0.0,0.0,0.0,0.0,0.0,0.0,0.0,0.0,0.0,0.0,0.0,0.0,0.0,0.0,0.0,0.0,0.0,0.0,0.0,0.0,0.0,0.0,0.0,0.0,0.0,0.0,0.0,0.0,0.0,0.0,0.0,0.0,0.0,0.0,0.0,0.0,0.0,0.0,0.0,0.0,0.0,0.0,0.0,0.0,0.0,0.0,0.0,0.0,0.0,0.0,0.0,0.0,0.0,0.0,0.0,0.0,0.0,0.0,0.0,0.0,0.0,0.0,0.0,0.0,0.0,0.0,0.0,0.0,0.0,0.0,0.0,0.0,0.0,0.0,0.0,0.0,0.0,0.0,0.0,0.0,0.0,0.0,0.0,0.0,0.0,0.0,0.0,0.0,0.0,0.0,0.0,0.0,0.0,0.0,0.0,0.0,0.0,0.0,0.0,0.0,0.0,0.0,0.0,0.0,0.0,0.0,0.0,0.0,0.0,0.0,0.0,0.0,0.0,0.0,0.0,0.0,-3.2703,0.0,0.0,0.0,0.0,0.0,0.0,0.0,0.0,0.0,0.0,0.0,0.0,0.0,0.0,0.0,0.0,0.0,0.0,0.0,0.0,0.0,0.0,0.0,0.0,0.0,0.0,0.0,0.0,0.0,0.0,0.0,0.0,0.0,0.0,0.0,0.0,0.0,0.0,0.0,0.0,0.0,0.0,0.0,0.0,0.0,0.0,0.0,0.0,0.0,0.0,0.0,0.0,0.0,0.0,0.0,0.0,0.0,0.0,0.0,0.0,0.0,0.0,0.0,0.0,0.0,0.0,0.0,0.0,0.0,0.0,0.0,0.0,0.0,0.0,0.0,0.0,0.0,0.0,0.0,0.0,0.0,0.0,0.0,0.0,0.0,0.0,0.0,0.0,0.0,0.0,0.0,0.0,0.0,0.0,0.0,0.0,0.0,0.0,0.0,0.0,0.0,0.0,0.0,0.0,0.0,0.0,0.0,0.0,0.0,0.0,-3.2127,-3.2127,-3.2266,-3.2368,-3.242,0.0,0.0,0.0,0.0,0.0,0.0,0.0,0.0,0.0,0.0,0.0,0.0,0.0,0.0,0.0,0.0,0.0,0.0,0.0,0.0,0.0,0.0,0.0,0.0,0.0,0.0,0.0,0.0,0.0,0.0,0.0,0.0,0.0,0.0,0.0,0.0,0.0,0.0,0.0,0.0,0.0,0.0,0.0,0.0,0.0,0.0,0.0,0.0,0.0,0.0,0.0,0.0,0.0,0.0,0.0,0.0,0.0,0.0,0.0,0.0,0.0,0.0,0.0,0.0,0.0,0.0,0.0,0.0,0.0,0.0,0.0,0.0,0.0,0.0,0.0,0.0,0.0,0.0,0.0,0.0,0.0,0.0,0.0,0.0,0.0,0.0,0.0,0.0,0.0,0.0,0.0,0.0,0.0,0.0,0.0,0.0,0.0,0.0,0.0,0.0,0.0,0.0,0.0,0.0,0.0,0.0,0.0,0.0,0.0,0.0,0.0,0.0,-3.2228,-3.2248,-3.2074,0.0,0.0,0.0,0.0,0.0,0.0,0.0,0.0,0.0,0.0,0.0,0.0,0.0,0.0,0.0,0.0,0.0,0.0,0.0,0.0,0.0,0.0,0.0,0.0,0.0,0.0,0.0,0.0,0.0,0.0,0.0,0.0,0.0,0.0,0.0,0.0,0.0,0.0,0.0,0.0,0.0,0.0,0.0,0.0,0.0,0.0,0.0,0.0,0.0,0.0,0.0,0.0,0.0,0.0,0.0,0.0,0.0,0.0,0.0,0.0,0.0,0.0,0.0,0.0,0.0,0.0,0.0,0.0,0.0,0.0,0.0,0.0,0.0,0.0,0.0,0.0,0.0,0.0,0.0,0.0,0.0,0.0,0.0,0.0,0.0,0.0,0.0,0.0,0.0,0.0,0.0,0.0,0.0,0.0,0.0,0.0,0.0,0.0,0.0,0.0,0.0,0.0,0.0,0.0,0.0,0.0,0.0,0.0,0.0,0.0,-3.246,-3.2443,-3.248,0.0,-3.1443,0.0,0.0,0.0,0.0,0.0,0.0,0.0,0.0,0.0,0.0,0.0,0.0,0.0,0.0,0.0,0.0,0.0,0.0,0.0,0.0,0.0,0.0,0.0,0.0,0.0,0.0,0.0,0.0,0.0,0.0,0.0,0.0,0.0,0.0,0.0,0.0,0.0,0.0,0.0,0.0,0.0,0.0,0.0,0.0,0.0,0.0,0.0,0.0,0.0,0.0,0.0,0.0,0.0,0.0,0.0,0.0,0.0,0.0,0.0,0.0,0.0,0.0,0.0,0.0,0.0,0.0,0.0,0.0,0.0,0.0,0.0,0.0,0.0,0.0,0.0,0.0,0.0,0.0,0.0,0.0,0.0,0.0,0.0,0.0,0.0,0.0,0.0,0.0,0.0,0.0,0.0,0.0,0.0,0.0,0.0,0.0,0.0,0.0,0.0,0.0,0.0,0.0,0.0,0.0,0.0,0.0,0.0,0.0,0.0,0.0,-3.3045,-3.3029,-3.3029,-3.2673,0.0,0.0,0.0,0.0,0.0,0.0,0.0,0.0,0.0,0.0,0.0,0.0,0.0,0.0,0.0,0.0,0.0,0.0,0.0,0.0,0.0,0.0,0.0,0.0,0.0,0.0,0.0,0.0,0.0,0.0,0.0,0.0,0.0,0.0,0.0,0.0,0.0,0.0,0.0,0.0,0.0,0.0,0.0,0.0,0.0,0.0,0.0,0.0,0.0,0.0,0.0,0.0,0.0,0.0,0.0,0.0,0.0,0.0,0.0,0.0,0.0,0.0,0.0,0.0,0.0,0.0,0.0,0.0,0.0,0.0,0.0,0.0,0.0,0.0,0.0,0.0,0.0,0.0,0.0,0.0,0.0,0.0,0.0,0.0,0.0,0.0,0.0,0.0,0.0,0.0,0.0,0.0,0.0,0.0,0.0,0.0,0.0,0.0,0.0,0.0,0.0,0.0,0.0,0.0,0.0,0.0,0.0,0.0,0.0,0.0,-3.4143,-3.3711,-3.3694,-3.3508,-3.3152,-3.2632,0.0,0.0,0.0,0.0,0.0,0.0,0.0,0.0,0.0,0.0,0.0,0.0,0.0,0.0,0.0,0.0,0.0,0.0,0.0,0.0,0.0,0.0,0.0,0.0,0.0,0.0,0.0,0.0,0.0,0.0,0.0,0.0,0.0,0.0,0.0,0.0,0.0,0.0,0.0,0.0,0.0,0.0,0.0,0.0,0.0,0.0,0.0,0.0,0.0,0.0,0.0,0.0,0.0,0.0,0.0,0.0,0.0,0.0,0.0,0.0,0.0,0.0,0.0,0.0,0.0,0.0,0.0,0.0,0.0,0.0,0.0,0.0,0.0,0.0,0.0,0.0,0.0,0.0,0.0,0.0,0.0,0.0,0.0,0.0,0.0,0.0,0.0,0.0,0.0,0.0,0.0,0.0,0.0,0.0,0.0,0.0,0.0,0.0,0.0,0.0,0.0,0.0,0.0,0.0,0.0,0.0,0.0,0.0,-3.5504,-3.4827,-3.4477,-3.4438,-3.3778,-3.3389,0.0,0.0,0.0,0.0,0.0,0.0,0.0,0.0,0.0,0.0,0.0,0.0,0.0,0.0,0.0,0.0,0.0,0.0,0.0,0.0,0.0,0.0,0.0,0.0,0.0,0.0,0.0,0.0,0.0,0.0,0.0,0.0,0.0,0.0,0.0,0.0,0.0,0.0,0.0,0.0,0.0,0.0,0.0,0.0,0.0,0.0,0.0,0.0,0.0,0.0,0.0,0.0,0.0,0.0,0.0,0.0,0.0,0.0,0.0,0.0,0.0,0.0,0.0,0.0,0.0,0.0,0.0,0.0,0.0,0.0,0.0,0.0,0.0,0.0,0.0,0.0,0.0,0.0,0.0,0.0,0.0,0.0,0.0,0.0,0.0,0.0,0.0,0.0,0.0,0.0,0.0,0.0,0.0,0.0,0.0,0.0,0.0,0.0,0.0,0.0,0.0,0.0,0.0,0.0,0.0,0.0,0.0,0.0,0.0,-3.5588,-3.5351,-3.5199,-3.5194,-3.4962,-3.4607,0.0,0.0,0.0,0.0,0.0,0.0,0.0,0.0,0.0,0.0,0.0,0.0,0.0,0.0,0.0,0.0,0.0,0.0,0.0,0.0,0.0,0.0,0.0,0.0,0.0,0.0,0.0,0.0,0.0,0.0,0.0,0.0,0.0,0.0,0.0,0.0,0.0,0.0,0.0,0.0,0.0,0.0,0.0,0.0,0.0,0.0,0.0,0.0,0.0,0.0,0.0,0.0,0.0,0.0,0.0,0.0,0.0,0.0,0.0,0.0,0.0,0.0,0.0,0.0,0.0,0.0,0.0,0.0,0.0,0.0,0.0,0.0,0.0,0.0,0.0,0.0,0.0,0.0,0.0,0.0,0.0,0.0,0.0,0.0,0.0,0.0,0.0,0.0,0.0,0.0,0.0,0.0,0.0,0.0,0.0,0.0,0.0,0.0,0.0,0.0,0.0,0.0,0.0,0.0,0.0,0.0,0.0,0.0,0.0,-3.5616,0.0,-3.5616,-3.5616,-3.5616,-3.5363,0.0,0.0,0.0,0.0,0.0,0.0,0.0,0.0,0.0,0.0,0.0,0.0,0.0,0.0,0.0,0.0,0.0,0.0,0.0,0.0,0.0,0.0,0.0,0.0,0.0,0.0,0.0,0.0,0.0,0.0,0.0,0.0,0.0,0.0,0.0,0.0,0.0,0.0,0.0,0.0,0.0,0.0,0.0,0.0,0.0,0.0,0.0,0.0,0.0,0.0,0.0,0.0,0.0,0.0,0.0,0.0,0.0,0.0,0.0,0.0,0.0,0.0,0.0,0.0,0.0,0.0,0.0,0.0,0.0,0.0,0.0,0.0,0.0,0.0,0.0,0.0,0.0,0.0,0.0,0.0,0.0,0.0,0.0,0.0,0.0,0.0,0.0,0.0,0.0,0.0,0.0,0.0,0.0,0.0,0.0,0.0,0.0,0.0,0.0,0.0,0.0,0.0,0.0,0.0,0.0,0.0,0.0,0.0,-3.56,-3.5583,-3.56,-3.56,-3.56,-3.56,-3.5583,0.0,0.0,0.0,0.0,0.0,0.0,0.0,0.0,0.0,0.0,0.0,0.0,0.0,0.0,0.0,0.0,0.0,0.0,0.0,0.0,0.0,0.0,0.0,0.0,0.0,0.0,0.0,0.0,0.0,0.0,0.0,0.0,0.0,0.0,0.0,0.0,0.0,0.0,0.0,0.0,0.0,0.0,0.0,0.0,0.0,0.0,0.0,0.0,0.0,0.0,0.0,0.0,0.0,0.0,0.0,0.0,0.0,0.0,0.0,0.0,0.0,0.0,0.0,0.0,0.0,0.0,0.0,0.0,0.0,0.0,0.0,0.0,0.0,0.0,0.0,0.0,0.0,0.0,0.0,0.0,0.0,0.0,0.0,0.0,0.0,0.0,0.0,0.0,0.0,0.0,0.0,0.0,0.0,0.0,0.0,0.0,0.0,0.0,0.0,0.0,0.0,0.0,0.0,0.0,0.0,0.0,0.0,0.0,0.0,-3.5537,-3.5594,-3.5594,-3.5543,-3.5571,-3.5532,0.0,0.0,0.0,0.0,0.0,0.0,0.0,0.0,0.0,0.0,0.0,0.0,0.0,0.0,0.0,0.0,0.0,0.0,0.0,0.0,0.0,0.0,0.0,0.0,0.0,0.0,0.0,0.0,0.0,0.0,0.0,0.0,0.0,0.0,0.0,0.0,0.0,0.0,0.0,0.0,0.0,0.0,0.0,0.0,0.0,0.0,0.0,0.0,0.0,0.0,0.0,0.0,0.0,0.0,0.0,0.0,0.0,0.0,0.0,0.0,0.0,0.0,0.0,0.0,0.0,0.0,0.0,0.0,0.0,0.0,0.0,0.0,0.0,0.0,0.0,0.0,0.0,0.0,0.0,0.0,0.0,0.0,0.0,0.0,0.0,0.0,0.0,0.0,0.0,0.0,0.0,0.0,0.0,0.0,0.0,0.0,0.0,0.0,0.0,0.0,0.0,0.0,0.0,0.0,0.0,0.0,0.0,0.0,0.0,-3.5377,-3.5498,-3.5526,-3.5492,-3.5481,-3.5435,-3.5314,0.0,0.0,0.0,0.0,0.0,0.0,0.0,0.0,0.0,0.0,0.0,0.0,0.0,0.0,0.0,0.0,0.0,0.0,0.0,0.0,0.0,0.0,0.0,0.0,0.0,0.0,0.0,0.0,0.0,0.0,0.0,0.0,0.0,0.0,0.0,0.0,0.0,0.0,0.0,0.0,0.0,0.0,0.0,0.0,0.0,0.0,0.0,0.0,0.0,0.0,0.0,0.0,0.0,0.0,0.0,0.0,0.0,0.0,0.0,0.0,0.0,0.0,0.0,0.0,0.0,0.0,0.0,0.0,0.0,0.0,0.0,0.0,0.0,0.0,0.0,0.0,0.0,0.0,0.0,0.0,0.0,0.0,0.0,0.0,0.0,0.0,0.0,0.0,0.0,0.0,0.0,0.0,0.0,0.0,0.0,0.0,0.0,0.0,0.0,0.0,0.0,0.0,0.0,0.0,0.0,0.0,0.0,0.0,-3.5128,-3.5337,-3.5486,-3.5536,-3.5371,-3.5325,0.0,0.0,0.0,0.0,0.0,0.0,0.0,0.0,0.0,0.0,0.0,0.0,0.0,0.0,0.0,0.0,0.0,0.0,0.0,0.0,0.0,0.0,0.0,0.0,0.0,0.0,0.0,0.0,0.0,0.0,0.0,0.0,0.0,0.0,0.0,0.0,0.0,0.0,0.0,0.0,0.0,0.0,0.0,0.0,0.0,0.0,0.0,0.0,0.0,0.0,0.0,0.0,0.0,0.0,0.0,0.0,0.0,0.0,0.0,0.0,0.0,0.0,0.0,0.0,0.0,0.0,0.0,0.0,0.0,0.0,0.0,0.0,0.0,0.0,0.0,0.0,0.0,0.0,0.0,0.0,0.0,0.0,0.0,0.0,0.0,0.0,0.0,0.0,0.0,0.0,0.0,0.0,0.0,0.0,0.0,0.0,0.0,0.0,0.0,0.0,0.0,0.0,0.0,0.0,0.0,0.0,0.0,0.0,0.0,-3.5261,-3.5222,-3.5449,-3.5983,-3.5569,-3.5449,0.0,0.0,0.0,0.0,0.0,0.0,0.0,0.0,0.0,0.0,0.0,0.0,0.0,0.0,0.0,0.0,0.0,0.0,0.0,0.0,0.0,0.0,0.0,0.0,0.0,0.0,0.0,0.0,0.0,0.0,0.0,0.0,0.0,0.0,0.0,0.0,0.0,0.0,0.0,0.0,0.0,0.0,0.0,0.0,0.0,0.0,0.0,0.0,0.0,0.0,0.0,0.0,0.0,0.0,0.0,0.0,0.0,0.0,0.0,0.0,0.0,0.0,0.0,0.0,0.0,0.0,0.0,0.0,0.0,0.0,0.0,0.0,0.0,0.0,0.0,0.0,0.0,0.0,0.0,0.0,0.0,0.0,0.0,0.0,0.0,0.0,0.0,0.0,0.0,0.0,0.0,0.0,0.0,0.0,0.0,0.0,0.0,0.0,0.0,0.0,0.0,0.0,0.0,0.0,0.0,0.0,0.0,0.0,-3.5357,-3.5152,-3.5065,-3.5367,-3.6073,-3.5488,-3.5264,0.0,0.0,0.0,0.0,0.0,0.0,0.0,0.0,0.0,0.0,0.0,0.0,0.0,0.0,0.0,0.0,0.0,0.0,0.0,0.0,0.0,0.0,0.0,0.0,0.0,0.0,0.0,0.0,0.0,0.0,0.0,0.0,0.0,0.0,0.0,0.0,0.0,0.0,0.0,0.0,0.0,0.0,0.0,0.0,0.0,0.0,0.0,0.0,0.0,0.0,0.0,0.0,0.0,0.0,0.0,0.0,0.0,0.0,0.0,0.0,0.0,0.0,0.0,0.0,0.0,0.0,0.0,0.0,0.0,0.0,0.0,0.0,0.0,0.0,0.0,0.0,0.0,0.0,0.0,0.0,0.0,0.0,0.0,0.0,0.0,0.0,0.0,0.0,0.0,0.0,0.0,0.0,0.0,0.0,0.0,0.0,0.0,0.0,0.0,0.0,0.0,0.0,0.0,0.0,0.0,0.0,0.0,0.0,-3.5578,-3.4916,-3.4899,-3.5197,-3.5827,-3.5247,-3.4932,0.0,0.0,0.0,0.0,0.0,0.0,0.0,0.0,0.0,0.0,0.0,0.0,0.0,0.0,0.0,0.0,0.0,0.0,0.0,0.0,0.0,0.0,0.0,0.0,0.0,0.0,0.0,0.0,0.0,0.0,0.0,0.0,0.0,0.0,0.0,0.0,0.0,0.0,0.0,0.0,0.0,0.0,0.0,0.0,0.0,0.0,0.0,0.0,0.0,0.0,0.0,0.0,0.0,0.0,0.0,0.0,0.0,0.0,0.0,0.0,0.0,0.0,0.0,0.0,0.0,0.0,0.0,0.0,0.0,0.0,0.0,0.0,0.0,0.0,0.0,0.0,0.0,0.0,0.0,0.0,0.0,0.0,0.0,0.0,0.0,0.0,0.0,0.0,0.0,0.0,0.0,0.0,0.0,0.0,0.0,0.0,0.0,0.0,0.0,0.0,0.0,0.0,0.0,0.0,0.0,0.0,0.0,0.0,-3.5048,-3.4899,-3.4899,-3.4982,-3.5114,-3.4965,-3.5164,0.0,0.0,0.0,0.0,0.0,0.0,0.0,0.0,0.0,0.0,0.0,0.0,0.0,0.0,0.0,0.0,0.0,0.0,0.0,0.0,0.0,0.0,0.0,0.0,0.0,0.0,0.0,0.0,0.0,0.0,0.0,0.0,0.0,0.0,0.0,0.0,0.0,0.0,0.0,0.0,0.0,0.0,0.0,0.0,0.0,0.0,0.0,0.0,-2.784,0.0,0.0,0.0,0.0,0.0,0.0,0.0,0.0,0.0,0.0,0.0,0.0,0.0,0.0,0.0,0.0,0.0,0.0,0.0,0.0,0.0,0.0,0.0,0.0,0.0,0.0,0.0,0.0,0.0,0.0,0.0,0.0,0.0,0.0,0.0,0.0,0.0,0.0,0.0,0.0,0.0,0.0,0.0,0.0,0.0,0.0,0.0,0.0,0.0,0.0,0.0,0.0,0.0,0.0,0.0,0.0,0.0,0.0,0.0,-3.5595,-3.5909,-3.5595,-3.5429,-3.5413,-3.5065,-3.5081,0.0,0.0,0.0,0.0,0.0,0.0,0.0,0.0,0.0,0.0,0.0,0.0,0.0,0.0,0.0,0.0,0.0,0.0,0.0,0.0,0.0,0.0,0.0,0.0,0.0,0.0,0.0,0.0,0.0,0.0,0.0,0.0,0.0,0.0,0.0,0.0,0.0,0.0,0.0,0.0,0.0,0.0,0.0,0.0,0.0,0.0,0.0,0.0,0.0,0.0,0.0,0.0,0.0,0.0,0.0,0.0,0.0,0.0,0.0,0.0,0.0,0.0,0.0,0.0,0.0,0.0,0.0,0.0,0.0,0.0,0.0,0.0,0.0,0.0,0.0,0.0,0.0,0.0,0.0,0.0,0.0,0.0,0.0,0.0,0.0,0.0,0.0,0.0,0.0,0.0,0.0,0.0,0.0,0.0,0.0,0.0,0.0,0.0,0.0,0.0,0.0,0.0,0.0,0.0,0.0,0.0,0.0,-3.5968,-3.6332,-3.6943,-3.6348,-3.5968,-3.5968,-3.5208,-3.4787,-3.4811,0.0,0.0,0.0,0.0,0.0,0.0,0.0,0.0,0.0,0.0,0.0,0.0,0.0,0.0,0.0,0.0,0.0,0.0,0.0,0.0,0.0,0.0,0.0,0.0,0.0,0.0,0.0,0.0,0.0,0.0,0.0,0.0,0.0,0.0,0.0,0.0,0.0,0.0,-2.7458,-2.7889,0.0,0.0,0.0,0.0,0.0,0.0,0.0,0.0,-2.7515,0.0,0.0,0.0,0.0,0.0,0.0,0.0,0.0,0.0,0.0,0.0,0.0,0.0,0.0,0.0,0.0,0.0,0.0,0.0,0.0,0.0,0.0,0.0,0.0,0.0,0.0,0.0,0.0,0.0,0.0,0.0,0.0,0.0,0.0,0.0,0.0,0.0,0.0,0.0,0.0,0.0,0.0,0.0,0.0,0.0,0.0,0.0,0.0,0.0,0.0,0.0,0.0,0.0,0.0,0.0,0.0,-3.5828,-3.5935,-3.6199,-3.6645,-3.6249,-3.5943,-3.5803,-3.4915,-3.4399,-3.4399,0.0,0.0,0.0,0.0,0.0,0.0,0.0,0.0,0.0,0.0,0.0,0.0,0.0,0.0,0.0,0.0,0.0,0.0,0.0,0.0,0.0,0.0,0.0,0.0,0.0,0.0,0.0,0.0,0.0,0.0,0.0,0.0,0.0,0.0,0.0,0.0,0.0,0.0,0.0,-2.8294,-2.8634,0.0,0.0,0.0,0.0,0.0,0.0,0.0,0.0,-2.7465,0.0,0.0,0.0,0.0,0.0,0.0,0.0,0.0,0.0,0.0,0.0,0.0,0.0,0.0,0.0,0.0,0.0,0.0,0.0,0.0,0.0,0.0,0.0,0.0,0.0,0.0,0.0,0.0,0.0,0.0,0.0,0.0,0.0,0.0,0.0,0.0,0.0,0.0,0.0,0.0,0.0,0.0,0.0,0.0,0.0,0.0,0.0,0.0,0.0,0.0,0.0,0.0,0.0,0.0,0.0,-3.661,-3.6682,-3.6973,-3.7584,-3.7016,-3.663,-3.6561,-3.5747,-3.5279,0.0,0.0,0.0,0.0,0.0,0.0,0.0,0.0,0.0,0.0,0.0,0.0,0.0,0.0,0.0,0.0,0.0,0.0,0.0,0.0,0.0,0.0,0.0,0.0,0.0,0.0,0.0,0.0,0.0,0.0,0.0,0.0,0.0,0.0,0.0,0.0,0.0,0.0,0.0,0.0,-2.8482,-2.8473,-2.8377,0.0,0.0,0.0,0.0,0.0,0.0,-2.775,-2.7668,0.0,0.0,0.0,0.0,0.0,0.0,0.0,0.0,0.0,0.0,0.0,0.0,0.0,0.0,0.0,0.0,0.0,0.0,0.0,0.0,0.0,0.0,0.0,0.0,0.0,0.0,0.0,0.0,0.0,0.0,0.0,0.0,0.0,0.0,0.0,0.0,0.0,0.0,0.0,0.0,0.0,0.0,0.0,0.0,0.0,0.0,0.0,0.0,0.0,0.0,0.0,0.0,0.0,0.0,0.0,-3.7297,-3.7307,-3.7647,-3.8278,-3.7607,-3.7196,-3.7141,-3.6448,-3.605,0.0,0.0,0.0,0.0,0.0,0.0,0.0,0.0,0.0,0.0,0.0,0.0,0.0,0.0,0.0,0.0,0.0,0.0,0.0,0.0,0.0,0.0,0.0,0.0,0.0,0.0,0.0,0.0,0.0,0.0,0.0,0.0,0.0,0.0,0.0,0.0,0.0,0.0,0.0,0.0,0.0,-2.8377,-2.8538,-2.818,0.0,0.0,0.0,0.0,-2.7478,-2.7852,0.0,0.0,0.0,0.0,0.0,0.0,0.0,0.0,0.0,0.0,0.0,0.0,0.0,0.0,0.0,0.0,0.0,0.0,0.0,0.0,0.0,0.0,0.0,0.0,0.0,0.0,0.0,0.0,0.0,0.0,0.0,0.0,0.0,0.0,0.0,0.0,0.0,0.0,0.0,0.0,0.0,0.0,0.0,0.0,0.0,0.0,0.0,0.0,0.0,0.0,0.0,0.0,0.0,0.0,0.0,0.0,-3.6717,-3.7102,-3.7396,-3.7515,-3.7096,-3.6802,-3.6692,-3.6023,-3.553,0.0,0.0,0.0,0.0,0.0,0.0,0.0,0.0,0.0,0.0,0.0,0.0,0.0,0.0,0.0,0.0,0.0,0.0,0.0,0.0,0.0,0.0,0.0,0.0,0.0,0.0,0.0,0.0,0.0,0.0,0.0,0.0,0.0,0.0,0.0,0.0,0.0,0.0,0.0,0.0,0.0,-2.8812,-2.8384,-2.8422,-2.8317,0.0,0.0,0.0,-2.8009,-2.8063,0.0,0.0,0.0,0.0,0.0,0.0,0.0,0.0,0.0,0.0,0.0,0.0,0.0,0.0,0.0,0.0,0.0,0.0,0.0,0.0,0.0,0.0,0.0,0.0,0.0,0.0,0.0,0.0,0.0,0.0,0.0,0.0,0.0,0.0,0.0,0.0,0.0,0.0,0.0,0.0,0.0,0.0,0.0,0.0,0.0,0.0,0.0,0.0,0.0,0.0,0.0,0.0,0.0,0.0,0.0,-3.6633,-3.6929,-3.7065,-3.7178,-3.7282,-3.706,-3.6888,-3.6815,-3.6562,-3.6346,0.0,0.0,0.0,0.0,0.0,0.0,0.0,0.0,0.0,0.0,0.0,0.0,0.0,0.0,0.0,0.0,0.0,0.0,0.0,0.0,0.0,0.0,0.0,0.0,0.0,0.0,0.0,0.0,0.0,0.0,0.0,0.0,0.0,0.0,0.0,0.0,0.0,0.0,0.0,0.0,0.0,0.0,-2.7875,-2.7921,0.0,0.0,0.0,-2.7921,-2.7921,0.0,0.0,0.0,0.0,0.0,0.0,0.0,0.0,0.0,0.0,0.0,0.0,0.0,0.0,0.0,0.0,0.0,0.0,0.0,0.0,0.0,0.0,0.0,0.0,0.0,0.0,0.0,0.0,0.0,0.0,0.0,0.0,0.0,0.0,0.0,0.0,0.0,0.0,0.0,0.0,0.0,0.0,0.0,0.0,0.0,0.0,0.0,0.0,0.0,0.0,0.0,0.0,0.0,0.0,0.0,0.0,0.0,-3.7012,-3.703,-3.703,-3.7029,-3.6923,-3.6877,-3.6877,-3.6954,0.0,0.0,0.0,0.0,0.0,0.0,0.0,0.0,0.0,0.0,0.0,0.0,0.0,0.0,0.0,0.0,0.0,0.0,0.0,0.0,0.0,0.0,0.0,0.0,0.0,0.0,0.0,-2.8913,0.0,0.0,0.0,0.0,0.0,0.0,0.0,0.0,0.0,0.0,0.0,0.0,0.0,0.0,-2.7503,-2.7503,-2.7503,-2.7556,0.0,0.0,-2.7723,-2.7723,-2.7723,-2.7656,0.0,0.0,0.0,0.0,0.0,0.0,0.0,0.0,0.0,0.0,0.0,0.0,0.0,0.0,0.0,0.0,0.0,0.0,0.0,0.0,0.0,0.0,0.0,0.0,0.0,0.0,0.0,0.0,0.0,0.0,0.0,0.0,0.0,0.0,0.0,0.0,0.0,0.0,0.0,0.0,0.0,0.0,0.0,0.0,0.0,0.0,0.0,0.0,0.0,0.0,0.0,0.0,0.0,0.0,0.0,-3.6585,-3.6847,-3.6847,-3.6554,-3.6523,-3.6523,-3.6538,-3.6831,-3.6862,0.0,0.0,0.0,0.0,0.0,0.0,0.0,0.0,0.0,0.0,0.0,0.0,0.0,0.0,0.0,0.0,0.0,0.0,0.0,0.0,0.0,0.0,0.0,0.0,0.0,0.0,0.0,0.0,0.0,0.0,0.0,0.0,0.0,0.0,0.0,0.0,0.0,0.0,0.0,0.0,0.0,-2.7503,-2.7503,-2.7503,-2.749,0.0,0.0,-2.7523,-2.7536,-2.7536,-2.7536,-2.7503,0.0,0.0,0.0,0.0,0.0,0.0,0.0,0.0,0.0,0.0,0.0,0.0,0.0,0.0,0.0,0.0,0.0,0.0,0.0,0.0,0.0,0.0,0.0,0.0,0.0,0.0,0.0,0.0,0.0,0.0,0.0,0.0,0.0,0.0,0.0,0.0,0.0,0.0,0.0,0.0,0.0,0.0,0.0,0.0,0.0,0.0,0.0,0.0,0.0,0.0,0.0,0.0,0.0,-3.6953,-3.6492,-3.6616,-3.6616,-3.6492,-3.6492,-3.6492,-3.6492,-3.6616,-3.6616,0.0,0.0,0.0,0.0,0.0,0.0,0.0,0.0,0.0,0.0,0.0,0.0,0.0,0.0,0.0,0.0,0.0,0.0,0.0,0.0,0.0,0.0,0.0,0.0,0.0,0.0,0.0,0.0,-3.0437,-3.0266,-2.9449,0.0,0.0,0.0,0.0,0.0,0.0,0.0,0.0,0.0,0.0,-2.7503,-2.7503,-2.7503,0.0,0.0,-2.8046,-2.819,-2.8556,-2.8608,-2.8573,-2.8447,-2.8135,0.0,0.0,0.0,0.0,0.0,0.0,0.0,0.0,0.0,0.0,0.0,0.0,0.0,0.0,0.0,0.0,0.0,0.0,0.0,0.0,0.0,0.0,0.0,0.0,0.0,0.0,0.0,0.0,0.0,0.0,0.0,0.0,0.0,0.0,0.0,0.0,0.0,0.0,0.0,0.0,0.0,0.0,0.0,0.0,0.0,0.0,0.0,0.0,0.0,0.0,0.0,0.0,-3.6739,-3.6492,-3.6492,-3.6492,-3.6492,-3.6492,-3.6492,-3.6492,-3.6492,-3.6492,0.0,0.0,0.0,0.0,0.0,0.0,0.0,0.0,0.0,0.0,0.0,0.0,0.0,0.0,0.0,0.0,0.0,0.0,0.0,0.0,0.0,0.0,0.0,0.0,0.0,0.0,0.0,0.0,-3.0099,-2.9637,-2.8926,0.0,0.0,0.0,0.0,0.0,0.0,0.0,0.0,0.0,0.0,-2.7828,-2.7828,-2.7876,-2.81,-2.8525,-2.8625,-2.8791,-2.9244,-2.931,-2.9252,-2.911,0.0,0.0,0.0,0.0,0.0,0.0,0.0,0.0,0.0,0.0,0.0,0.0,0.0,0.0,0.0,0.0,0.0,0.0,0.0,0.0,0.0,0.0,0.0,0.0,0.0,0.0,0.0,0.0,0.0,0.0,0.0,0.0,0.0,0.0,0.0,0.0,0.0,0.0,0.0,0.0,0.0,0.0,0.0,0.0,0.0,0.0,0.0,0.0,0.0,0.0,0.0,0.0,0.0,0.0,-3.6492,-3.6492,-3.6492,-3.6492,-3.6492,-3.6492,-3.6492,-3.6492,-3.6492,-3.6492,0.0,0.0,0.0,0.0,0.0,0.0,0.0,0.0,0.0,0.0,0.0,0.0,0.0,0.0,0.0,0.0,0.0,0.0,0.0,0.0,0.0,0.0,0.0,0.0,0.0,0.0,-2.9898,-2.8976,-2.8379,0.0,0.0,0.0,0.0,0.0,0.0,0.0,0.0,0.0,0.0,-2.8759,-2.8564,-2.8551,-2.8782,-2.8938,-2.8977,-2.9155,-2.931,-2.9349,-2.9314,-2.931,0.0,0.0,0.0,0.0,0.0,0.0,0.0,0.0,0.0,0.0,0.0,0.0,0.0,0.0,0.0,0.0,0.0,0.0,0.0,0.0,0.0,0.0,0.0,0.0,0.0,0.0,0.0,-3.8616,-3.8582,0.0,0.0,0.0,0.0,0.0,0.0,0.0,0.0,0.0,0.0,0.0,-3.8602,-3.8818,0.0,0.0,0.0,0.0,0.0,0.0,0.0,0.0,0.0,0.0,0.0,0.0,-3.6492,-3.6492,-3.6492,-3.6492,-3.6492,-3.6492,-3.6492,-3.6492,-3.6492,-3.6492,-3.6492,0.0,0.0,0.0,0.0,0.0,0.0,0.0,0.0,0.0,0.0,0.0,0.0,0.0,0.0,0.0,0.0,0.0,0.0,0.0,0.0,0.0,0.0,0.0,0.0,0.0,-3.056,0.0,0.0,0.0,0.0,0.0,0.0,0.0,0.0,0.0,0.0,0.0,-2.8699,-2.8954,-2.8918,-2.8882,-2.8882,-2.9061,-2.9311,0.0,0.0,0.0,0.0,0.0,0.0,0.0,0.0,0.0,0.0,0.0,0.0,0.0,0.0,-2.6568,-2.6555,-2.6521,-2.6452,-2.6339,0.0,0.0,0.0,0.0,0.0,0.0,0.0,0.0,0.0,0.0,0.0,0.0,0.0,0.0,0.0,0.0,-3.8939,0.0,0.0,0.0,0.0,0.0,0.0,0.0,0.0,-3.9315,-3.9315,-3.9315,-3.9315,-3.9315,0.0,-3.9228,-3.9137,0.0,0.0,0.0,0.0,0.0,0.0,0.0,0.0,-3.6616,-3.6492,-3.6492,-3.6492,-3.6492,-3.6492,-3.6492,-3.6492,-3.6492,-3.6492,-3.6492,-3.6492,-3.6492,0.0,0.0,0.0,0.0,0.0,0.0,0.0,0.0,0.0,0.0,0.0,0.0,0.0,0.0,0.0,0.0,0.0,0.0,0.0,0.0,0.0,0.0,0.0,-3.0367,0.0,0.0,0.0,0.0,0.0,0.0,0.0,0.0,0.0,-2.9565,-2.9323,-2.9292,-2.9572,-2.9525,-2.9475,-2.9402,0.0,0.0,0.0,0.0,0.0,0.0,0.0,-3.071,-3.0432,-3.0023,-2.9464,-2.8683,-2.7824,-2.717,-2.7065,0.0,0.0,-2.6562,-2.643,-2.6374,-2.6248,-2.6245,-2.6131,-2.5677,-2.5681,-2.5647,0.0,0.0,0.0,0.0,0.0,0.0,0.0,0.0,-4.1525,-4.1221,0.0,-4.0348,0.0,0.0,0.0,0.0,0.0,0.0,0.0,0.0,-3.9315,-3.9315,-3.9348,-3.9348,-3.9365,-3.9365,-3.9187,-3.9045,-3.9073,-3.9235,0.0,0.0,0.0,0.0,0.0,0.0,-3.6816,-3.6492,-3.6492,-3.6492,-3.6492,-3.6492,-3.6492,-3.6492,-3.6492,-3.6492,-3.6492,-3.6492,-3.6492,-3.6492,-3.6195,0.0,0.0,0.0,0.0,0.0,0.0,0.0,0.0,0.0,0.0,0.0,0.0,0.0,0.0,0.0,0.0,0.0,0.0,0.0,0.0,-3.0228,0.0,0.0,0.0,0.0,0.0,0.0,0.0,0.0,0.0,0.0,-3.0155,-2.9759,-2.9803,-3.057,0.0,0.0,0.0,0.0,-3.0356,-3.0177,-3.0305,-3.0471,-3.0471,-3.0471,-3.0483,-3.0483,0.0,0.0,-2.9051,-2.8473,-2.8084,-2.8097,-2.8047,-2.777,-2.6728,-2.6452,-2.6313,-2.629,-2.6366,-2.6238,-2.5777,-2.5852,-2.5841,-4.3633,0.0,0.0,0.0,0.0,-4.2303,-4.2303,-4.2313,-4.2083,-4.1982,-4.1965,-4.1736,0.0,0.0,0.0,0.0,0.0,0.0,-3.9325,-3.9315,-3.9315,-3.9597,-4.0094,-4.0094,-4.0315,-4.0763,-4.0255,-3.9996,-3.9963,-3.9537,-3.8821,-3.7889,0.0,0.0,0.0,0.0,-3.6585,-3.6492,-3.6492,-3.6492,-3.6492,-3.6492,-3.6492,-3.6492,-3.6492,-3.6492,-3.6492,-3.6492,-3.6492,-3.6492,-3.6289,0.0,0.0,0.0,0.0,0.0,0.0,0.0,0.0,0.0,0.0,0.0,0.0,0.0,0.0,0.0,0.0,0.0,0.0,0.0,-3.1322,-3.1163,-3.0924,0.0,0.0,0.0,0.0,0.0,0.0,0.0,0.0,0.0,-3.0553,-3.0188,-3.0012,0.0,0.0,-3.0152,-3.0113,-3.0598,-3.0932,-3.0893,0.0,0.0,0.0,-3.156,-3.1481,-3.1334,-3.0542,-2.9806,-2.9566,-2.875,-2.8109,-2.8122,-2.8109,-2.796,-2.7528,-2.7392,-2.7296,-2.7151,-2.703,-2.6748,-2.613,-2.6046,-2.5949,-4.4299,-4.3826,-4.3386,-4.3227,-4.3227,-4.3183,-4.321,-4.3166,-4.2878,-4.2743,-4.2709,-4.2422,-4.2419,-4.2591,-4.2099,0.0,0.0,0.0,-4.0204,-4.0117,-4.0117,-4.0393,-4.0779,-4.0796,-4.1011,-4.1392,-4.0994,-4.0779,-4.0779,-4.0293,-3.9572,-3.8661,0.0,0.0,-3.7312,-3.7608,-3.7623,-3.7324,-3.7292,-3.7292,-3.7292,-3.703,-3.6769,-3.6507,-3.6492,-3.6445,-3.6383,-3.6445,-3.646,-3.6383,-3.6226,-3.61,0.0,0.0,0.0,0.0,0.0,0.0,0.0,0.0,0.0,0.0,0.0,-3.1575,0.0,0.0,0.0,0.0,-3.1478,-3.1731,-3.1636,-3.1522,0.0,0.0,0.0,0.0,0.0,0.0,0.0,-3.0654,-3.0877,-3.1035,-3.1126,-3.0943,-3.0698,-3.0547,-3.0521,-3.0597,-3.0709,0.0,-3.1376,-3.1296,-3.1549,-3.1764,-3.1752,-3.1752,-3.1724,-3.1615,-3.0964,-3.0357,-3.0118,-2.9541,-2.9001,-2.87,-2.86,-2.8562,-2.8361,-2.8248,-2.7987,-2.7495,-2.7393,-2.7156,-2.6538,-2.6586,-2.6537,-4.475,-4.4682,-4.4699,-4.4649,-4.4598,-4.4598,-4.4598,-4.4547,-4.3809,-4.3477,-4.3453,-4.2777,-4.2828,-4.3365,-4.3244,0.0,0.0,-4.1744,-4.1554,-4.1425,-4.1397,-4.1413,-4.1463,-4.1508,-4.1524,-4.1579,-4.1541,-4.1508,-4.1463,-4.1283,-4.0834,-4.0134,-4.0189,-3.9599,-3.8509,-3.9264,-3.933,-3.8508,-3.8508,-3.8508,-3.8492,-3.7908,-3.7292,-3.6692,-3.6599,-3.6506,-3.6334,-3.6445,-3.6414,-3.6242,-3.61,-3.602,-3.5988,0.0,0.0,0.0,0.0,0.0,0.0,0.0,0.0,0.0,0.0,0.0,0.0,0.0,0.0,0.0,-3.1971,0.0,-3.1721,-3.1564,0.0,0.0,0.0,-3.0999,-3.1052,-3.1052,-3.1185,-3.1539,0.0,0.0,0.0,0.0,-3.168,-3.1327,-3.1212,-3.1339,-3.162,-3.1668,-3.1678,-3.1515,-3.1499,-3.1537,-3.1678,-3.1666,-3.1678,-3.1678,-3.1499,-3.1273,-3.0859,-3.067,-3.0313,-2.9721,-2.9506,-2.9403,-2.918,-2.8949,-2.8499,-2.7501,-2.7567,-2.7582,-2.7102,-2.7294,-2.7375,-4.594,-4.5449,-4.5432,-4.5111,-4.4598,-4.4598,-4.4598,-4.4598,-4.4384,-4.4299,-4.4299,-4.4141,-4.3753,-4.3244,-4.3105,-4.2579,-4.1744,-4.1571,-4.1453,-4.1425,-4.1397,-4.1678,-4.2253,-4.2224,-4.2522,-4.3002,-4.2489,-4.227,-4.2208,-4.1617,-4.121,-4.0938,-4.1226,-4.0408,-3.8569,-3.8708,-3.8688,-3.8508,-3.8508,-3.8508,-3.8508,-3.8354,-3.82,-3.8031,-3.7523,-3.7229,-3.7182,-3.6753,-3.6492,-3.6414,-3.6148,-3.602,-3.602,-3.5683,0.0,0.0,0.0,0.0,0.0,0.0,0.0,0.0,0.0,-3.2849,-3.2361,0.0,-3.2455,0.0,-3.2259,-3.2328,-3.243,-3.1937,0.0,0.0,-3.1007,-3.1156,-3.1549,-3.1602,-3.181,-3.2372,-3.2292,-3.2158,-3.2072,-3.1898,-3.1838,-3.1928,-3.1625,-3.137,-3.148,-3.1858,-3.2055,-3.2051,-3.2365,-3.2667,-3.2671,-3.2709,-3.2641,-3.2679,-3.2315,-3.1976,-3.1851,-3.1474,-3.112,-3.0916,-3.0446,-3.0074,-2.981,-2.9267,-2.8727,-2.8292,-2.8285,-2.8162,-2.7618,-2.7618,-2.7546,-4.6549,-4.6194,-4.6194,-4.5957,-4.5517,-4.4886,-4.4598,-4.4598,-4.4598,-4.4598,-4.4598,-4.4598,-4.4249,-4.3693,-4.358,-4.3191,-4.267,-4.246,-4.2357,-4.2373,-4.2402,-4.2589,-4.2986,-4.2779,-4.2887,-4.3265,-4.287,-4.2687,-4.2766,-4.2605,-4.2405,-4.2171,-4.235,-4.1731,-4.0358,-3.9944,-3.9634,-3.94,-3.9382,-3.9277,-3.8985,-3.897,-3.8831,-3.8508,-3.7861,-3.746,-3.7348,-3.6751,-3.6352,-3.6273,-3.6022,-3.5863,-3.5863,-3.5636,-3.5489,0.0,0.0,0.0,0.0,0.0,0.0,0.0,0.0,0.0,0.0,0.0,-3.3118,0.0,-3.2888,0.0,-3.2461,-3.1909,-3.1551,-3.1377,-3.1365,-3.1588,-3.215,-3.2189,-3.2411,-3.3025,-3.301,-3.2913,-3.2818,-3.272,-3.2615,-3.2596,-3.234,-3.2139,-3.2164,-3.2416,-3.2591,-3.2616,-3.2867,-3.3124,-3.3124,-3.3124,-3.3124,-3.3099,-3.2817,-3.2528,-3.2265,-3.1964,-3.1634,-3.1313,-3.0945,-3.0555,-3.0204,-2.9821,-2.944,-2.9289,-2.9208,-2.9015,-2.8495,-2.8414,-2.8318,-4.7022,-4.6938,-4.6938,-4.6887,-4.6701,-4.5427,-4.4835,-4.475,-4.475,-4.4699,-4.4598,-4.457,-4.4457,-4.4281,-4.4126,-4.3998,-4.3868,-4.3658,-4.3615,-4.3615,-4.3615,-4.3615,-4.3598,-4.3289,-4.3123,-4.3123,-4.3221,-4.3296,-4.3343,-4.38,-4.3812,-4.3418,-4.3251,-4.3,-4.2669,-4.1781,-4.1127,-4.0662,-4.0551,-4.0197,-3.9628,-3.9647,-3.937,-3.8785,-3.8123,-3.7643,-3.7344,-3.6685,-3.6239,-3.6037,-3.5831,-3.572,-3.572,-3.5572,-3.5489,0.0,-3.5489,0.0,0.0,0.0,0.0,0.0,0.0,0.0,0.0,-3.3386,-3.3709,-3.3713,-3.3374,-3.2846,-3.2164,-3.174,-3.1583,-3.1704,-3.1758,-3.2019,-3.262,-3.2764,-3.3038,-3.3626,-3.3692,-3.371,-3.3652,-3.3713,-3.3543,-3.3159,-3.3048,-3.3011,-3.3086,-3.3074,-3.3074,-3.3124,-3.3124,-3.3124,-3.3124,-3.3124,-3.3124,-3.3124,-3.3099,-3.2935,-3.2441,-3.234,-3.2093,-3.1568,-3.1311,-3.1071,-3.0673,-3.0528,-3.033,-3.0085,-3.0103,-2.9977,-2.9508,-2.9352,-2.9376,-4.824,-4.7716,-4.7699,-4.7361,-4.6769,-4.6498,-4.6041,-4.55,-4.55,-4.5145,-4.4587,-4.4423,-4.4281,-4.4126,-4.3998,-4.3822,-4.3658,-4.3628,-4.3615,-4.3615,-4.3615,-4.3615,-4.3631,-4.4117,-4.4368,-4.4401,-4.4962,-4.5026,-4.4626,-4.474,-4.4511,-4.3952,-4.2987,-4.2711,-4.3087,0.0,0.0,0.0,-4.0797,-4.0428,-4.0305,-4.0305,-4.0243,-4.0105,-3.9459,0.0,-3.8258,-3.7453,-3.6761,-3.6178,-3.5894,0.0,0.0,0.0,0.0,0.0,0.0,0.0,0.0,0.0,0.0,0.0,-3.4883,-3.4519,-3.4132,-3.3902,-3.3676,-3.3395,-3.2739,-3.2273,-3.2128,-3.1482,-3.1138,-3.1181,-3.1561,-3.2019,-3.2633,-3.313,-3.3639,-3.4175,-3.4241,-3.41,-3.3771,-3.3713,-3.3556,-3.321,-3.3124,-3.3124,-3.3124,-3.3124,-3.3124,-3.3124,-3.3124,-3.3124,-3.3124,-3.3124,-3.3124,-3.3124,-3.3124,-3.3074,-3.296,-3.2893,-3.2905,-3.2662,-3.2179,-3.1742,-3.1603,-3.0952,-3.0469,-3.0354,-3.055,-3.0567,-3.005,-2.9941,-2.9821,-4.8781,0.0,-4.846,-4.824,0.0,-4.7885,-4.7462,-4.6769,-4.6397,-4.6041,-4.5669,-4.5462,-4.5299,-4.5185,-4.499,-4.484,-4.4671,-4.4324,-4.434,-4.4671,-4.4324,-4.434,-4.4674,-4.4789,-4.4859,-4.4859,-4.5174,-4.4935,-4.4257,-4.4695,-4.4389,-4.3392,-4.3063,-4.2936,-4.2936,-4.2067,-4.1601,-4.1601,-4.1247,-4.1063,-4.1043,-4.137,-4.1386,-4.1028,0.0,0.0,0.0,0.0,0.0,0.0,0.0,0.0,0.0,0.0,0.0,-3.5489,-3.5489,-3.5489,-3.5504,-3.5311,-3.518,-3.518,-3.523,-3.4956,-3.4293,-3.3839,-3.3409,-3.3023,-3.2439,-3.2141,-3.2203,-3.1732,-3.164,-3.2189,-3.2529,-3.2921,-3.3456,-3.3796,-3.4084,-3.4319,-3.4397,-3.423,-3.3755,-3.3713,-3.3513,-3.3167,-3.3124,-3.3124,-3.3124,-3.3124,-3.3124,-3.3124,-3.3124,-3.3124,-3.3124,-3.3124,-3.3124,-3.3124,-3.3124,-3.3124,-3.3124,-3.3124,-3.3124,-3.3068,-3.2744,-3.2441,-3.2288,-3.1809,-3.1382,-3.1223,-3.1245,-3.1235,-3.0934,-3.0706,-3.0422,-4.912,-4.9018,-4.9018,-4.9018,-4.9018,-4.9018,-4.8663,-4.8024,0.0,0.0,0.0,-4.6604,-4.6387,-4.612,-4.5921,-4.5701,-4.5415,-4.4951,-4.5019,-4.5566,-4.497,-4.5003,-4.5582,-4.5141,-4.495,-4.495,-4.4968,-4.4491,-4.3608,-4.4386,-4.4036,-4.2751,-4.3033,-4.2956,-4.2432,-4.1878,-4.1663,-4.1771,-4.1663,-4.1601,-4.1617,-4.2263,-4.2279,-4.1617,-4.114,-4.0428,-3.9471,-3.8223,-3.7339,-3.6942,-3.6165,-3.5624,-3.5519,-3.5489,-3.5489,-3.5504,-3.5624,-3.5669,-3.5684,-3.5609,-3.5555,-3.5522,-3.5658,-3.533,-3.4344,-3.3888,-3.3451,-3.3057,-3.2586,-3.2398,-3.2528,-3.2211,-3.2332,-3.3339,-3.3535,-3.3757,-3.4162,-3.4358,-3.4384,-3.4397,-3.4356,-3.4176,-3.3755,-3.3683,-3.3513,-3.3197,-3.3124,-3.3124,-3.3124,-3.3124,-3.3124,-3.3124,-3.3124,-3.3124,-3.3124,-3.3124,-3.3124,-3.3124,-3.3124,-3.3124,-3.3124,-3.3124,-3.3124,-3.3124,-3.3124,-3.3013,-3.2797,-3.25,-3.2356,-3.2113,-3.1893,-3.1705,-3.1669,-3.1368,-3.1031,-4.9576,-4.9018,-4.9018,-4.9018,-4.9018,-4.9018,-4.8934,-4.8748,-4.7394,-4.6786,-4.6786,-4.6574,-4.6148,-4.5513,-4.5263,-4.4764,-4.4218,-4.4533,-4.4754,0.0,-4.4768,-4.4738,-4.4837,-4.4776,-4.4745,-4.4795,-4.5359,-4.5114,-4.4189,-4.4218,-4.3703,-4.2649,-4.2125,-4.1848,-4.174,-4.1648,-4.1878,-4.2432,-4.1909,-4.1601,-4.1617,-4.2263,-4.2279,-4.1663,-4.2063,-4.1331,-3.9333,-3.9451,-3.8702,-3.6866,-3.6487,-3.6103,-3.5549,-3.5519,-3.5489,-3.5534,-3.6043,-3.6342,-3.6357,-3.6802,-3.7014,-3.6857,-3.645,-3.583,-3.5041,-3.4874,-3.4724,-3.4353,-3.3569,-3.3151,-3.3167,-3.2804,-3.2659,-3.2868,-3.33,-3.3639,-3.377,-3.4136,-3.4397,-3.4397,-3.423,-3.4034,-3.3768,-3.3556,-3.3386,-3.3154,-3.3124,-3.3124,-3.3124,-3.3124,-3.3124,-3.3124,-3.3124,-3.3124,-3.3124,-3.3124,-3.3124,-3.3124,-3.3124,-3.3124,-3.3124,-3.3124,-3.3124,-3.3068,-3.3081,-3.3068,-3.2982,-3.2692,-3.2431,-3.2344,-3.2025,-3.1761,-3.1761,-3.1609,-3.1428,-4.9898,-4.956,-4.9171,-4.9018,-4.9018,-4.9018,-4.9018,-4.8951,-4.8308,-4.8003,-4.7956,-4.7835,-4.7558,-4.7224,-4.7007,-4.6438,-4.5679,-4.5518,-4.5377,-4.5251,-4.4901,-4.4934,-4.5268,-4.5284,-4.5531,-4.5897,-4.6101,-4.5734,-4.4884,-4.5048,-4.4141,-4.2165,-4.137,-4.1016,-4.1047,-4.1401,-4.1755,-4.2063,-4.2109,-4.2309,-4.2663,-4.3325,-4.3187,-4.2186,-4.2786,-4.2268,-4.0368,-4.0121,-3.947,-3.8355,-3.7477,-3.6851,-3.6552,-3.6537,-3.6537,-3.6537,-3.6821,-3.6985,-3.6985,-3.7255,-3.7316,-3.7124,-3.7105,-3.6929,-3.6438,-3.541,-3.4639,-3.4251,-3.3663,-3.3447,-3.374,-3.3449,-3.33,-3.3587,-3.3875,-3.4018,-3.4058,-3.4228,-3.4397,-3.4397,-3.4314,-3.4118,-3.3725,-3.3641,-3.3428,-3.3197,-3.3124,-3.3124,-3.3124,-3.3124,-3.3124,-3.3124,-3.3124,-3.3124,-3.3136,-3.3124,-3.3124,-3.3124,-3.3124,-3.3124,-3.3124,-3.3124,-3.3038,-3.2939,-3.2982,-3.3025,-3.2939,-3.2711,-3.2593,-3.255,-3.2344,-3.2069,-3.1937,-3.1805,-3.1621,-5.0522,-5.0333,-4.9746,-4.9509,-4.9475,-4.9323,-4.9238,-4.9238,-4.9069,-4.9018,-4.9018,-4.8894,-4.8748,-4.8596,-4.8344,-4.7784,-4.7008,-4.6512,-4.6088,-4.5748,-4.5202,-4.5152,-4.5483,-4.5322,-4.5619,-4.6265,-4.6059,-4.5586,-4.514,-4.532,-4.4196,-4.198,-4.1228,-4.0966,-4.1016,-4.154,-4.1894,-4.2063,-4.2556,-4.3079,-4.3593,-4.4271,-4.4002,-4.2971,-4.3501,-4.3045,-4.1458,-4.0786,-4.0213,-3.9615,-3.8342,-3.7569,-3.7419,-3.7404,-3.7404,-3.7419,-3.7539,-3.7704,-3.7853,-3.7868,-3.7764,-3.7569,-3.7836,-3.79,-3.7506,-3.6052,-3.4903,-3.4533,-3.4107,-3.3927,-3.4192,-3.4015,-3.3953,-3.4345,-3.4397,-3.4371,-3.4397,-3.4397,-3.4397,-3.4397,-3.4356,-3.4189,-3.3894,-3.3683,-3.3526,-3.3227,-3.3124,-3.3124,-3.3167,-3.3167,-3.3124,-3.3124,-3.3124,-3.3199,-3.325,-3.3325,-3.3357,-3.3395,-3.3357,-3.3332,-3.3325,-3.3206,-3.3025,-3.2896,-3.2896,-3.2909,-3.2754,-3.2636,-3.2636,-3.2605,-3.2376,-3.2169,-3.1937,-3.1805,-3.1705,-5.1788,-5.1342,-5.1061,-5.1014,-5.0862,-5.0253,-4.9949,-4.9847,-4.9306,-4.9018,-4.9001,-4.897,-4.8632,-4.798,-4.7704,-4.7178,-4.6511,-4.6684,-4.6475,-4.5847,-4.5732,-4.5384,-4.4807,-4.3871,-4.3918,-4.4797,-4.4252,-4.4168,-4.4411,-4.3876,-4.3203,-4.2561,-4.2448,-4.2371,-4.2365,-4.2479,-4.2786,-4.3408,-4.3501,-4.3547,-4.3639,-4.4271,-4.4271,-4.3562,-4.4163,-4.3698,-4.2028,-4.1847,-4.1094,-3.9571,-3.8721,-3.8048,-3.7524,-3.7419,-3.7434,-3.7464,-3.7973,-3.8571,-3.9104,-3.9194,-3.9062,-3.8926,-3.8729,-3.8443,-3.7922,-3.7003,-3.6484,-3.6194,-3.5466,-3.4832,-3.4759,-3.4472,-3.4306,-3.4371,-3.4397,-3.4397,-3.4397,-3.4397,-3.4397,-3.4397,-3.4285,-3.4118,-3.4034,-3.3683,-3.3428,-3.3386,-3.3283,-3.3197,-3.3326,-3.324,-3.3124,-3.3124,-3.3124,-3.3325,-3.3596,-3.3796,-3.3834,-3.4248,-3.4085,-3.3784,-3.3633,-3.3407,-3.3106,-3.3252,-3.2971,-3.2897,-3.2742,-3.255,-3.2475,-3.2519,-3.2332,-3.1981,-3.1805,-3.1705,-3.1705,-5.2246,-5.2087,-5.1468,-5.0947,-5.0524,-5.0202,-4.983,-4.9424,-4.9137,-4.9018,-4.9018,-4.9018,-4.8832,-4.8531,-4.8332,-4.7757,-4.6963,-4.7028,-4.6605,-4.5862,-4.5798,-4.5616,-4.5287,-4.4711,-4.4815,-4.5406,-4.4917,-4.4749,-4.4705,-4.3945,-4.3376,-4.3162,-4.2802,-4.2602,-4.2633,-4.2987,-4.331,-4.3593,-4.3994,-4.4194,-4.4187,-4.4319,-4.4151,-4.3725,-4.4104,-4.3929,-4.2923,-4.2651,-4.2024,-4.0843,-4.0006,-3.9275,-3.8631,-3.8566,-3.8601,-3.8616,-3.8841,-3.911,-3.9373,-3.9388,-3.9316,-3.909,-3.8907,-3.8634,-3.8277,-3.7634,-3.7187,-3.6915,-3.575,-3.488,-3.4797,-3.4577,-3.4397,-3.4397,-3.4397,-3.4397,-3.4397,-3.4397,-3.4397,-3.4397,-3.4314,-3.4202,-3.4076,-3.3768,-3.3598,-3.3556,-3.3471,-3.3441,-3.3398,-3.3326,-3.324,-3.3124,-3.3124,-3.3199,-3.3407,-3.342,-3.3571,-3.3671,-3.3571,-3.347,-3.3796,-3.3759,-3.3602,-3.3802,-3.3483,-3.3233,-3.3233,-3.2984,-3.2822,-3.2736,-3.2475,-3.2213,-3.2125,-3.1893,-3.1761,-5.2786,-5.2833,-5.2144,-5.1403,-5.0676,-5.0473,-4.9982,-4.9306,-4.9086,-4.9018,-4.9018,-4.9018,-4.9137,-4.9224,-4.8902,-4.8325,-4.7747,-4.7493,-4.6952,-4.6146,-4.6096,-4.6013,-4.5783,-4.5451,-4.5603,-4.5978,-4.5522,-4.5282,-4.5185,-4.4505,-4.3997,-4.3883,-4.3445,-4.3193,-4.3187,-4.3633,-4.3886,-4.3932,-4.4394,-4.461,-4.4556,-4.4358,-4.4113,-4.3903,-4.4136,-4.4052,-4.3503,-4.3168,-4.2554,-4.1648,-4.0815,-4.0098,-3.9469,-3.9388,-3.9388,-3.9388,-3.9388,-3.9388,-3.9388,-3.9388,-3.9301,-3.9104,-3.8907,-3.8723,-3.8441,-3.7877,-3.738,-3.694,-3.575,-3.5003,-3.4921,-3.4618,-3.4397,-3.4397,-3.4397,-3.4397,-3.4397,-3.4397,-3.4397,-3.4397,-3.4397,-3.4314,-3.4118,-3.3949,-3.381,-3.381,-3.3725,-3.3683,-3.3513,-3.3428,-3.3313,-3.3167,-3.3124,-3.3212,-3.3257,-3.3395,-3.3332,-3.3458,-3.3558,-3.3533,-3.3784,-3.3784,-3.3671,-3.3496,-3.3596,-3.3483,-3.3152,-3.2978,-3.2995,-3.2939,-3.2723,-3.2431,-3.2213,-3.1981,-3.1805,-5.3765,-5.3864,-5.3516,-5.2858,-5.2147,-5.1454,-5.0744,-5.0016,-4.9357,-4.9052,-4.912,-4.9103,-4.9407,-4.9951,-4.911,-4.8549,-4.8418,-4.8196,-4.7702,-4.7023,-4.6908,-4.6477,-4.58,-4.5483,-4.5668,-4.6174,-4.5357,-4.4897,-4.4955,-4.5046,-4.5046,-4.4781,-4.4666,-4.4606,-4.4425,-4.4456,-4.4548,-4.4502,-4.4579,-4.461,-4.4534,-4.4205,-4.4174,-4.4457,-4.4366,-4.4174,-4.3913,-4.3358,-4.2561,-4.1452,-4.0838,-4.0127,-3.9529,-3.9388,-3.9388,-3.9388,-3.9388,-3.9403,-3.9418,-3.9403,-3.9331,-3.9119,-3.8936,-3.8723,-3.8478,-3.7801,-3.7134,-3.6427,-3.5777,-3.5318,-3.5277,-3.4743,-3.4397,-3.4397,-3.4397,-3.4397,-3.4397,-3.4397,-3.4397,-3.4397,-3.4397,-3.4314,-3.4118,-3.4076,-3.4076,-3.4034,-3.3852,-3.367,-3.3641,-3.3526,-3.3313,-3.3167,-3.3162,-3.3244,-3.3721,-3.3608,-3.3897,-3.3972,-3.3658,-3.3784,-3.3671,-3.3545,-3.3382,-3.3226,-3.3239,-3.314,-3.2866,-3.2736,-3.281,-3.2754,-3.2766,-3.255,-3.2344,-3.2125,-3.1981,-5.3701,-5.3668,-5.3568,-5.3044,-5.23,-5.2012,-5.1488,-5.0811,-5.0541,-5.0422,-5.039,-5.0422,-5.0557,-5.0745,-5.0204,-4.9906,-4.9874,-4.9576,-4.9276,-4.8978,-4.8547,-4.8166,-4.7869,-4.7062,-4.6466,-4.6217,-4.5619,-4.5112,-4.4768,-4.4927,-4.4927,-4.4723,-4.4739,-4.4648,-4.461,-4.461,-4.461,-4.461,-4.461,-4.461,-4.4572,-4.4205,-4.4205,-4.4534,-4.4127,-4.3988,-4.4166,-4.3706,-4.3066,-4.2288,-4.146,-4.0726,-4.0098,-3.9649,-3.9388,-3.9388,-3.9388,-3.9604,-3.9933,-3.9664,-3.9495,-3.9691,-3.9165,-3.8708,-3.8441,-3.7801,-3.7187,-3.6808,-3.5937,-3.544,-3.5263,-3.4812,-3.4397,-3.4397,-3.4397,-3.4397,-3.4397,-3.4397,-3.4397,-3.4397,-3.4397,-3.4356,-3.4314,-3.4285,-3.4243,-3.4118,-3.3992,-3.3823,-3.3569,-3.3441,-3.3351,-3.3179,-3.3136,-3.3269,-3.3809,-3.3545,-3.3432,-3.3495,-3.3458,-3.3596,-3.3583,-3.3646,-3.3558,-3.3721,-3.3502,-3.3289,-3.3183,-3.2983,-3.2946,-3.2884,-3.2853,-3.268,-3.2506,-3.2332,-3.2245,-5.3668,-5.3501,-5.3518,-5.3027,-5.235,-5.2317,-5.1877,-5.1251,-5.1234,-5.1234,-5.1185,-5.1234,-5.1303,-5.1474,-5.1178,-5.1212,-5.1262,-5.0607,-5.022,-5.0171,-4.9707,-4.9326,-4.8977,-4.8297,-4.7396,-4.6458,-4.5857,-4.5305,-4.4814,-4.5039,-4.4986,-4.4723,-4.4776,-4.4739,-4.461,-4.461,-4.461,-4.461,-4.461,-4.461,-4.4534,-4.4205,-4.4127,-4.4358,-4.3895,-4.3754,-4.4166,-4.3871,-4.3335,-4.261,-4.182,-4.098,-4.0157,-3.9664,-3.9388,-3.9403,-3.9634,-3.9918,-4.0277,-3.989,-3.9735,-3.9921,-3.9217,-3.8612,-3.8366,-3.7901,-3.7443,-3.6925,-3.6296,-3.5615,-3.5113,-3.4647,-3.4397,-3.4397,-3.4397,-3.4397,-3.4397,-3.4397,-3.4397,-3.4397,-3.4397,-3.4397,-3.4397,-3.4356,-3.4243,-3.4118,-3.4047,-3.3861,-3.37,-3.3677,-3.368,-3.3602,-3.3671,-3.3847,-3.4148,-3.406,-3.3709,-3.3684,-3.3463,-3.3508,-3.3621,-3.3709,-3.3809,-3.4048,-3.3997,-3.3746,-3.352,-3.3294,-3.3169,-3.3093,-3.2982,-3.2853,-3.268,-3.2593,-3.2463,-5.3817,-5.3501,-5.3518,-5.3078,-5.2469,-5.2435,-5.1961,-5.1438,-5.1354,-5.1455,-5.1539,-5.1337,-5.1809,-5.2149,-5.1967,-5.2167,-5.2349,-5.1139,-5.0452,-5.0419,-5.027,-4.9839,-4.9193,-4.9027,-4.8077,-4.6563,-4.5848,-4.5315,-4.4949,-4.5389,-4.5389,-4.5002,-4.5017,-4.4889,-4.461,-4.461,-4.461,-4.461,-4.461,-4.461,-4.4534,-4.422,-4.4104,-4.4243,-4.3684,-4.3542,-4.3949,-4.3808,-4.3326,-4.2524,-4.1841,-4.0801,-3.9873,-3.9582,-3.9514,-3.9679,-4.0068,-4.0382,-4.0472,-4.0263,-3.9958,-3.9837,-3.9038,-3.8441,-3.8277,-3.8089,-3.762,-3.6755,-3.6229,-3.5749,-3.4758,-3.4439,-3.4397,-3.4397,-3.4397,-3.4397,-3.4397,-3.4397,-3.4397,-3.4397,-3.4397,-3.4397,-3.4382,-3.4389,-3.4315,-3.4266,-3.4097,-3.4011,-3.4147,-3.4148,-3.4344,-3.4494,-3.4462,-3.4424,-3.453,-3.463,-3.4361,-3.406,-3.3684,-3.352,-3.3646,-3.3746,-3.3696,-3.3847,-3.3583,-3.3357,-3.3388,-3.3187,-3.3174,-3.3081,-3.3025,-3.2982,-3.2853,-3.2766,-3.268,-5.38,-5.3501,-5.3518,-5.3382,-5.3129,-5.3129,-5.2976,-5.2807,-5.279,-5.2807,-5.279,-5.279,-5.2926,-5.296,-5.2757,-5.2669,-5.2818,-5.2036,-5.1694,-5.1595,-5.1164,-5.0551,-4.9872,-4.9309,-4.8226,-4.673,-4.5848,-4.5352,-4.5204,-4.5331,-4.5188,-4.4949,-4.4814,-4.4739,-4.461,-4.461,-4.461,-4.461,-4.461,-4.461,-4.4572,-4.4205,-4.4089,-4.4205,-4.3645,-4.3463,-4.3769,-4.3542,-4.3319,-4.3,-4.2402,-4.1692,-4.0935,-4.0786,-4.0771,-4.0786,-4.095,-4.1309,-4.1564,-4.0718,-4.0232,-4.0161,-3.9258,-3.8514,-3.8165,-3.7853,-3.7471,-3.69,-3.6256,-3.5413,-3.51,-3.466,-3.4439,-3.4397,-3.4397,-3.4397,-3.4397,-3.4397,-3.4397,-3.4397,-3.4397,-3.4567,-3.4894,-3.4914,-3.4847,-3.495,-3.4871,-3.4824,-3.4622,-3.4583,-3.4551,-3.47,-3.4751,-3.4989,-3.5165,-3.5203,-3.4977,-3.47,-3.4311,-3.3884,-3.3922,-3.3935,-3.3847,-3.3652,-3.3363,-3.3174,-3.3149,-3.3124,-3.3124,-3.3124,-3.3081,-3.3038,-3.2995,-3.2952,-3.2865,-5.38,-5.3501,-5.3518,-5.3518,-5.3518,-5.3518,-5.3518,-5.3518,-5.3518,-5.3518,-5.3501,-5.3501,-5.3518,-5.3433,-5.3161,-5.2989,-5.2868,-5.2622,-5.2445,-5.231,-5.1647,-5.0883,-5.0052,-4.8875,-4.7912,-4.6853,-4.6032,-4.5541,-4.53,-4.5278,-4.5129,-4.4852,-4.4723,-4.4685,-4.461,-4.4594,-4.4533,-4.4302,-4.4225,-4.424,-4.4165,-4.3915,-4.3868,-4.4082,-4.3699,-4.3503,-4.3557,-4.3384,-4.3305,-4.3185,-4.2716,-4.2111,-4.1497,-4.1407,-4.1422,-4.1467,-4.1647,-4.1871,-4.1908,-4.0978,-4.0305,-4.0197,-3.9138,-3.8489,-3.8455,-3.816,-3.7967,-3.7498,-3.7,-3.625,-3.5791,-3.5182,-3.4812,-3.4784,-3.4535,-3.4397,-3.4397,-3.4397,-3.4397,-3.4397,-3.4397,-3.4698,-3.5103,-3.5171,-3.5306,-3.5453,-3.5474,-3.5449,-3.5211,-3.5163,-3.5156,-3.5236,-3.5454,-3.5655,-3.578,-3.5717,-3.5567,-3.5328,-3.5064,-3.4663,-3.4462,-3.4437,-3.4361,-3.401,-3.367,-3.3437,-3.3374,-3.3162,-3.3124,-3.3124,-3.3124,-3.3081,-3.3038,-3.3081,-3.2995,-5.38,-5.3534,-5.3501,-5.3518,-5.3518,-5.3518,-5.3518,-5.3518,-5.3518,-5.3518,-5.3518,-5.3518,-5.3518,-5.3467,-5.3264,-5.3093,-5.292,-5.2694,-5.2499,-5.2194,-5.1529,-5.0717,-4.9854,-4.8193,-4.7334,-4.7032,-4.634,-4.5857,-4.5531,-4.5484,-4.5204,-4.4776,-4.4799,-4.4799,-4.4648,-4.461,-4.4317,-4.3778,-4.367,-4.3685,-4.3685,-4.3446,-4.3503,-4.3913,-4.3711,-4.3455,-4.3148,-4.3054,-4.3135,-4.3165,-4.2566,-4.1991,-4.1542,-4.1422,-4.1422,-4.1437,-4.2006,-4.1901,-4.1511,-4.0878,-4.0383,-3.9873,-3.8946,-3.8449,-3.8803,-3.8793,-3.8563,-3.8161,-3.7901,-3.747,-3.6458,-3.5803,-3.5507,-3.5345,-3.4812,-3.4439,-3.4397,-3.4397,-3.4397,-3.4397,-3.4424,-3.462,-3.5195,-3.5115,-3.5301,-3.5559,-3.5607,-3.559,-3.5665,-3.5682,-3.5995,-3.6042,-3.5961,-3.6091,-3.6128,-3.6069,-3.5893,-3.5529,-3.5391,-3.5215,-3.4914,-3.4896,-3.4627,-3.4243,-3.3921,-3.3712,-3.3467,-3.3273,-3.3124,-3.3124,-3.3124,-3.3124,-3.3124,-3.3124,-3.3124,-5.3866,-5.3617,-5.3534,-5.3518,-5.3518,-5.3518,-5.3518,-5.3518,-5.3518,-5.3518,-5.3518,-5.3518,-5.3518,-5.3467,-5.3298,-5.3093,-5.2903,-5.2694,-5.2535,-5.2194,-5.1032,-5.0121,-4.9258,-4.8031,-4.7337,-4.7236,-4.6601,-4.6179,-4.6036,-4.5667,-4.5331,-4.5055,-4.4927,-4.4799,-4.4648,-4.461,-4.4255,-4.3701,-4.3608,-4.3578,-4.351,-4.3361,-4.3349,-4.3426,-4.3297,-4.2887,-4.2319,-4.216,-4.2316,-4.2575,-4.2036,-4.1617,-4.1452,-4.1422,-4.1422,-4.1467,-4.1519,-4.1594,-4.1264,-4.0558,-3.9991,-3.9747,-3.8792,-3.8275,-3.842,-3.8478,-3.8388,-3.8145,-3.7839,-3.7462,-3.7007,-3.6441,-3.611,-3.591,-3.5155,-3.4481,-3.4439,-3.4397,-3.4397,-3.4397,-3.4397,-3.4685,-3.5103,-3.5282,-3.5349,-3.5673,-3.5766,-3.5672,-3.5705,-3.5916,-3.6106,-3.6138,-3.616,-3.6344,-3.6414,-3.638,-3.6144,-3.5705,-3.5533,-3.5617,-3.5387,-3.5314,-3.485,-3.4331,-3.3889,-3.3611,-3.3447,-3.3253,-3.321,-3.3124,-3.3124,-3.3124,-3.3124,-3.3124,-3.3124,-5.3882,-5.3667,-5.3551,-5.3518,-5.3518,-5.3518,-5.3518,-5.3518,-5.3518,-5.3518,-5.3518,-5.3518,-5.3518,-5.3467,-5.3382,-5.3161,-5.2886,-5.2764,-5.2605,-5.2177,-5.0899,-4.9707,-4.8713,-4.7886,-4.7671,-4.7571,-4.6894,-4.6531,-4.6301,-4.5812,-4.5389,-4.5077,-4.4964,-4.4783,-4.461,-4.4579,-4.4117,-4.334,-4.3156,-4.3048,-4.2771,-4.2631,-4.272,-4.2805,-4.2748,-4.2408,-4.1888,-4.1467,-4.1505,-4.179,-4.1632,-4.1422,-4.1422,-4.1422,-4.1422,-4.1422,-4.1422,-4.1294,-4.089,-4.0203,-3.9719,-3.9312,-3.8587,-3.8458,-3.858,-3.8623,-3.8623,-3.8591,-3.828,-3.7983,-3.7615,-3.712,-3.6638,-3.6269,-3.5629,-3.5073,-3.4853,-3.4564,-3.4439,-3.4397,-3.4437,-3.462,-3.5208,-3.5273,-3.553,-3.5778,-3.5947,-3.5797,-3.5697,-3.5942,-3.6032,-3.5934,-3.59,-3.5948,-3.5919,-3.5886,-3.5709,-3.5324,-3.5115,-3.529,-3.5319,-3.5221,-3.4914,-3.4324,-3.3882,-3.3591,-3.347,-3.3326,-3.3167,-3.3124,-3.3124,-3.3124,-3.3124,-3.3124,-3.3124,-5.3882,-5.37,-5.3551,-5.345,-5.3348,-5.3382,-5.3213,-5.323,-5.3112,-5.3129,-5.3129,-5.3213,-5.3044,-5.3281,-5.2926,-5.2977,-5.262,-5.2451,-5.2192,-5.1551,-5.0518,-4.9342,-4.8233,-4.8034,-4.7935,-4.7836,-4.7218,-4.6825,-4.6493,-4.5884,-4.5352,-4.5077,-4.4949,-4.4799,-4.4648,-4.4594,-4.3848,-4.291,-4.2725,-4.2417,-4.1971,-4.1812,-4.1955,-4.219,-4.2046,-4.1827,-4.1388,-4.0984,-4.0805,-4.1205,-4.1227,-4.1055,-4.1138,-4.1168,-4.1115,-4.104,-4.095,-4.0786,-4.039,-3.9899,-3.9483,-3.8974,-3.8508,-3.8472,-3.8835,-3.8908,-3.887,-3.8841,-3.9073,-3.8605,-3.8182,-3.7672,-3.7236,-3.678,-3.6506,-3.6123,-3.5615,-3.5005,-3.4605,-3.4522,-3.4522,-3.4798,-3.4986,-3.5247,-3.5365,-3.5279,-3.5461,-3.5362,-3.5379,-3.5556,-3.5554,-3.5423,-3.5424,-3.5443,-3.5347,-3.5257,-3.5039,-3.4798,-3.4469,-3.4437,-3.4564,-3.4572,-3.4578,-3.4292,-3.3792,-3.3593,-3.362,-3.3441,-3.3197,-3.3124,-3.3124,-3.3124,-3.3124,-3.3124,-3.3124,-5.3997,-5.3932,-5.3618,-5.3129,-5.2621,-5.2553,-5.2249,-5.1775,-5.1758,-5.181,-5.1742,-5.1742,-5.1775,-5.1775,-5.181,-5.156,-5.148,-5.1313,-5.071,-4.9807,-4.9591,-4.8862,-4.8133,-4.8001,-4.8001,-4.782,-4.7218,-4.6876,-4.6649,-4.6064,-4.5515,-4.5167,-4.5092,-4.4942,-4.4648,-4.4564,-4.3925,-4.2848,-4.2602,-4.2248,-4.1678,-4.154,-4.1566,-4.1684,-4.1254,-4.0751,-4.0421,-4.0228,-4.0141,-4.0052,-3.9997,-4.0044,-4.0029,-3.9948,-3.9978,-3.9993,-3.9933,-3.9828,-3.9591,-3.9445,-3.9209,-3.9003,-3.8664,-3.85,-3.855,-3.8539,-3.8449,-3.842,-3.842,-3.8391,-3.8208,-3.8089,-3.7848,-3.7606,-3.7299,-3.7003,-3.6822,-3.6243,-3.5602,-3.5291,-3.5154,-3.5043,-3.4719,-3.4743,-3.4821,-3.4832,-3.4816,-3.4747,-3.4956,-3.5187,-3.5107,-3.5024,-3.5136,-3.5182,-3.502,-3.4862,-3.4584,-3.4407,-3.4104,-3.3878,-3.4003,-3.4128,-3.4196,-3.401,-3.3649,-3.3581,-3.3683,-3.3441,-3.3167,-3.3124,-3.3124,-3.3124,-3.3124,-3.3124,-3.3124,-5.398,-5.3913,-5.3261,-5.2689,-5.2283,-5.1928,-5.1572,-5.1268,-5.1234,-5.1234,-5.1234,-5.1234,-5.1234,-5.1234,-5.1185,-5.1105,-5.0859,-5.0577,-4.9992,-4.9309,-4.9094,-4.8696,-4.8133,-4.7968,-4.7919,-4.7671,-4.715,-4.6842,-4.6493,-4.61,-4.5589,-4.522,-4.5204,-4.498,-4.4648,-4.4594,-4.3864,-4.2879,-4.2586,-4.2155,-4.1278,-4.1109,-4.1093,-4.1078,-4.0705,-4.0331,-4.0076,-4.0132,-3.996,-3.9753,-3.9625,-3.9553,-3.9553,-3.9568,-3.9481,-3.9424,-3.9388,-3.9388,-3.9352,-3.9228,-3.9083,-3.8943,-3.8664,-3.8516,-3.8404,-3.824,-3.8202,-3.8202,-3.8217,-3.8202,-3.8202,-3.8202,-3.8202,-3.8165,-3.7901,-3.7711,-3.7558,-3.6677,-3.5924,-3.5736,-3.5535,-3.5263,-3.4977,-3.4853,-3.4618,-3.4802,-3.4677,-3.4651,-3.4567,-3.4747,-3.4731,-3.4751,-3.4933,-3.4938,-3.4736,-3.4499,-3.4241,-3.404,-3.3857,-3.3738,-3.3793,-3.3862,-3.393,-3.3794,-3.3679,-3.3624,-3.3641,-3.3368,-3.3167,-3.3124,-3.3124,-3.3124,-3.3124,-3.3124,-3.3124,-5.398,-5.3946,-5.2889,-5.2367,-5.2046,-5.1455,-5.1065,-5.0828,-5.0847,-5.0693,-5.0879,-5.0847,-5.0659,-5.0811,-5.0777,-5.0669,-5.0358,-5.0043,-4.9393,-4.8945,-4.8829,-4.8498,-4.8084,-4.7968,-4.782,-4.7387,-4.7048,-4.6738,-4.6337,-4.6012,-4.5682,-4.5315,-4.5262,-4.5039,-4.4723,-4.4548,-4.3925,-4.2786,-4.2602,-4.192,-4.0812,-4.0582,-4.0582,-4.0566,-4.0516,-4.0331,-4.0172,-4.0172,-4.0172,-3.9839,-3.9803,-3.9753,-3.9717,-3.9646,-3.9589,-3.9424,-3.9388,-3.9388,-3.9388,-3.9265,-3.9104,-3.8855,-3.8649,-3.8464,-3.8329,-3.824,-3.8202,-3.8202,-3.8202,-3.8202,-3.8202,-3.8202,-3.8202,-3.8202,-3.8202,-3.8202,-3.7924,-3.6691,-3.6256,-3.6322,-3.6217,-3.5951,-3.5669,-3.5467,-3.5087,-3.4799,-3.4703,-3.462,-3.462,-3.4577,-3.471,-3.4625,-3.4834,-3.4786,-3.4575,-3.4418,-3.408,-3.3973,-3.3751,-3.3738,-3.3768,-3.3887,-3.3964,-3.3942,-3.3865,-3.3768,-3.3598,-3.3398,-3.324,-3.3167,-3.3124,-3.3124,-3.3124,-3.3124,-3.3124,-5.398,-5.3948,-5.3482,-5.2587,-5.1488,-5.1234,-5.049,-4.9475,-4.9492,-4.939,-4.9441,-4.939,-4.9492,-4.9458,-4.939,-4.9282,-4.9278,-4.9087,-4.8775,-4.843,-4.8348,-4.8133,-4.8067,-4.8001,-4.7787,-4.7421,-4.7082,-4.6722,-4.6356,-4.6211,-4.5749,-4.5358,-4.5426,-4.5227,-4.4682,-4.4517,-4.3809,-4.2663,-4.2463,-4.1786,-4.0812,-4.0489,-4.0489,-4.0505,-4.0436,-4.0296,-4.0261,-4.0277,-4.0261,-4.0191,-4.0191,-4.0101,-3.9874,-3.9625,-3.9445,-3.9424,-3.9388,-3.9388,-3.9388,-3.9352,-3.9228,-3.9068,-3.8833,-3.8649,-3.8478,-3.8277,-3.8202,-3.8202,-3.8202,-3.8202,-3.8202,-3.8202,-3.8202,-3.8202,-3.8202,-3.8202,-3.8037,-3.7505,-3.694,-3.7081,-3.694,-3.6719,-3.635,-3.6071,-3.5857,-3.5602,-3.5507,-3.5494,-3.5534,-3.5318,-3.5168,-3.4975,-3.4795,-3.4601,-3.4434,-3.4263,-3.4098,-3.4082,-3.3949,-3.3949,-3.3937,-3.4034,-3.4076,-3.4076,-3.3907,-3.3683,-3.3513,-3.3386,-3.3227,-3.3111,-3.3124,-3.3124,-3.3124,-3.3124,-3.3124,-5.3871,-5.3494,-5.2829,-5.1932,-5.0929,-5.047,-4.9926,-4.9314,-4.9155,-4.9107,-4.9094,-4.9032,-4.9018,-4.9018,-4.9018,-4.8925,-4.8769,-4.8578,-4.8388,-4.8212,-4.8147,-4.8049,-4.8001,-4.8001,-4.7737,-4.7454,-4.7202,-4.6759,-4.6198,-4.6159,-4.5698,-4.5131,-4.5191,-4.4854,-4.4086,-4.3691,-4.3127,-4.2315,-4.2048,-4.1617,-4.0612,-4.0489,-4.0489,-4.047,-4.0436,-4.0296,-4.0172,-4.0277,-4.0156,-4.0016,-3.998,-3.9945,-3.9803,-3.9589,-3.9388,-3.9388,-3.9388,-3.9388,-3.9388,-3.9388,-3.925,-3.8995,-3.887,-3.8649,-3.8427,-3.824,-3.8202,-3.8202,-3.8202,-3.8202,-3.8202,-3.8188,-3.8202,-3.8202,-3.8173,-3.8144,-3.8098,-3.7872,-3.7701,-3.7558,-3.7266,-3.7011,-3.69,-3.6705,-3.6573,-3.6441,-3.6308,-3.6373,-3.6452,-3.6004,-3.5629,-3.5195,-3.4908,-3.4618,-3.4439,-3.4314,-3.4189,-3.4147,-3.4147,-3.4105,-3.4147,-3.4202,-3.4243,-3.4285,-3.4021,-3.3725,-3.3556,-3.3471,-3.327,-3.3111,-3.3124,-3.3124,-3.3124,-3.3124,-3.3124,-5.3415,-5.2815,-5.2027,-5.1298,-5.055,-4.997,-4.9628,-4.9458,-4.9246,-4.9168,-4.9168,-4.9063,-4.9018,-4.9018,-4.897,-4.8909,-4.8769,-4.8578,-4.8388,-4.8227,-4.8147,-4.8082,-4.8017,-4.7802,-4.7572,-4.7243,-4.6715,-4.6687,-4.6429,-4.6391,-4.5738,-4.5235,-4.5068,-4.448,-4.3638,-4.3133,-4.2325,-4.1837,-4.1586,-4.1247,-4.0674,-4.047,-4.0505,-4.0489,-4.0489,-4.0331,-4.0137,-4.0226,-4.0121,-3.991,-3.9803,-3.9768,-3.9696,-3.9553,-3.9445,-3.9409,-3.9388,-3.9388,-3.9388,-3.9388,-3.9265,-3.8943,-3.8833,-3.8612,-3.8389,-3.8277,-3.8202,-3.8202,-3.8202,-3.8101,-3.7984,-3.7999,-3.7897,-3.7723,-3.7694,-3.7767,-3.7665,-3.7533,-3.7438,-3.7362,-3.73,-3.7253,-3.7157,-3.7404,-3.7275,-3.7159,-3.7067,-3.7092,-3.7053,-3.6401,-3.5911,-3.5386,-3.4977,-3.4701,-3.4481,-3.4397,-3.4314,-3.4314,-3.4272,-3.4272,-3.4314,-3.4356,-3.4356,-3.4356,-3.4189,-3.3894,-3.3725,-3.3556,-3.3313,-3.3197,-3.3124,-3.3124,-3.3124,-3.3124,-3.3124,-5.2197,-5.2111,-5.1822,-5.1298,-5.0584,-5.0322,-4.9947,-4.9475,-4.9168,-4.9077,-4.9199,-4.9063,-4.9018,-4.9018,-4.9018,-4.8925,-4.8801,-4.8627,-4.8401,-4.8143,-4.8031,-4.79,-4.7802,-4.7272,-4.7041,-4.6748,-4.5914,-4.6009,-4.6358,-4.6804,-4.6443,-4.5492,-4.4935,-4.4617,-4.3247,-4.2628,-4.2263,-4.1694,-4.1555,-4.1217,-4.0628,-4.0401,-4.0416,-4.0436,-4.0401,-4.0312,-4.0207,-4.0242,-4.0121,-3.996,-3.9925,-3.9854,-3.9732,-3.9696,-3.9553,-3.9445,-3.9388,-3.9388,-3.9388,-3.9388,-3.9301,-3.9017,-3.8892,-3.8686,-3.8324,-3.8161,-3.8101,-3.8202,-3.813,-3.7854,-3.7491,-3.7418,-3.7128,-3.6896,-3.6794,-3.6736,-3.6678,-3.7041,-3.6983,-3.6874,-3.6749,-3.7172,-3.7347,-3.7728,-3.8028,-3.7901,-3.7796,-3.7724,-3.7382,-3.6511,-3.5905,-3.5318,-3.5062,-3.4832,-3.4895,-3.4729,-3.4688,-3.4605,-3.4522,-3.4481,-3.4522,-3.4522,-3.4397,-3.4314,-3.4189,-3.4063,-3.3852,-3.3598,-3.3368,-3.324,-3.3154,-3.3124,-3.3124,-3.3124,-3.3124,-5.1068,-5.1356,-5.1369,-5.0879,-5.0138,-5.0043,-4.9855,-4.9582,-4.926,-4.9138,-4.9168,-4.9063,-4.9018,-4.9018,-4.9018,-4.8987,-4.8894,-4.8765,-4.8341,-4.782,-4.7643,-4.7364,-4.6757,-4.6444,-4.6278,-4.6197,-4.5824,-4.5778,-4.6192,-4.5979,-4.5449,-4.4521,-4.4203,-4.3474,-4.2567,-4.1864,-4.1383,-4.1067,-4.0955,-4.0816,-4.0566,-4.042,-4.0436,-4.0489,-4.0451,-4.0331,-4.0172,-4.0152,-3.996,-3.9747,-3.964,-3.964,-3.9568,-3.9517,-3.9481,-3.9424,-3.9388,-3.9388,-3.9388,-3.9388,-3.9256,-3.9075,-3.8848,-3.8524,-3.8047,-3.7754,-3.7491,-3.7128,-3.7114,-3.6983,-3.6823,-3.6751,-3.6606,-3.6373,-3.6098,-3.6156,-3.617,-3.6286,-3.6417,-3.633,-3.6301,-3.6613,-3.6844,-3.6917,-3.7084,-3.7141,-3.7024,-3.6915,-3.6527,-3.5789,-3.5344,-3.5021,-3.4995,-3.4982,-3.5224,-3.5304,-3.5263,-3.5182,-3.4867,-3.4867,-3.4784,-3.4701,-3.4402,-3.4345,-3.4288,-3.4134,-3.3924,-3.3696,-3.3441,-3.3313,-3.3197,-3.3154,-3.3124,-3.3124,-3.3124,-5.025,-5.0613,-5.0779,-5.0405,-4.9784,-4.9679,-4.9696,-4.9649,-4.9333,-4.9199,-4.9168,-4.9063,-4.9018,-4.8934,-4.8798,-4.8615,-4.8571,-4.8483,-4.7864,-4.7292,-4.7001,-4.6743,-4.6468,-4.6157,-4.5941,-4.586,-4.5595,-4.5369,-4.5063,-4.4846,-4.4317,-4.344,-4.3468,-4.2689,-4.1695,-4.1115,-4.0732,-4.0647,-4.0582,-4.0536,-4.0489,-4.0489,-4.0489,-4.0489,-4.047,-4.0331,-4.0081,-4.0011,-3.9818,-3.9517,-3.9517,-3.9517,-3.9445,-3.9496,-3.9496,-3.9424,-3.9388,-3.9388,-3.9298,-3.9224,-3.9077,-3.888,-3.8485,-3.7914,-3.7339,-3.7128,-3.699,-3.6475,-3.6446,-3.633,-3.6098,-3.6069,-3.588,-3.5778,-3.5677,-3.5793,-3.588,-3.588,-3.5764,-3.5546,-3.5546,-3.5735,-3.5903,-3.5816,-3.5981,-3.6272,-3.6265,-3.615,-3.5798,-3.5283,-3.5111,-3.4947,-3.5143,-3.5135,-3.5181,-3.5439,-3.556,-3.5656,-3.5372,-3.5127,-3.4991,-3.4545,-3.4099,-3.4136,-3.4201,-3.4053,-3.3757,-3.363,-3.3526,-3.3398,-3.327,-3.3185,-3.3154,-3.3099,-3.296,-4.9923,-4.9794,-5.0021,-5.005,-4.9952,-4.9637,-4.959,-4.9619,-4.932,-4.9182,-4.9168,-4.9063,-4.9001,-4.8815,-4.8328,-4.7963,-4.7659,-4.6969,-4.6599,-4.6316,-4.6112,-4.6396,-4.6317,-4.6184,-4.6032,-4.5946,-4.5499,-4.471,-4.4042,-4.4056,-4.4053,-4.4218,-4.3148,-4.2433,-4.1672,-4.0931,-4.0589,-4.0489,-4.0489,-4.0489,-4.0489,-4.0489,-4.0489,-4.0489,-4.0455,-4.0331,-4.0046,-4.0011,-3.9833,-3.9445,-3.9553,-3.9553,-3.9445,-3.9568,-3.9553,-3.946,-3.9388,-3.9343,-3.923,-3.8871,-3.8527,-3.8247,-3.7803,-3.724,-3.6702,-3.6637,-3.6479,-3.6198,-3.6008,-3.5822,-3.5625,-3.5421,-3.5227,-3.5096,-3.5038,-3.5024,-3.514,-3.5314,-3.5169,-3.4835,-3.4864,-3.5125,-3.5154,-3.514,-3.5314,-3.5619,-3.5629,-3.5565,-3.5589,-3.5196,-3.5119,-3.5078,-3.5346,-3.53,-3.5012,-3.527,-3.5845,-3.5893,-3.5601,-3.5332,-3.5088,-3.4549,-3.3835,-3.3692,-3.3705,-3.3679,-3.3729,-3.382,-3.3759,-3.3501,-3.3343,-3.3305,-3.3131,-3.3068,-3.2731,-4.9952,-4.9889,-4.9982,-4.986,-4.9683,-4.9547,-4.9458,-4.9381,-4.9168,-4.9077,-4.9094,-4.9015,-4.8765,-4.8376,-4.8075,-4.7601,-4.7136,-4.6866,-4.6202,-4.5919,-4.5948,-4.5943,-4.5963,-4.6098,-4.611,-4.5977,-4.5393,-4.4927,-4.4571,-4.3783,-4.3264,-4.3089,-4.2701,-4.2097,-4.1424,-4.09,-4.0605,-4.0505,-4.0505,-4.0489,-4.0489,-4.0489,-4.0489,-4.0489,-4.0489,-4.0331,-4.0066,-4.0011,-3.9762,-3.9568,-3.964,-3.9553,-3.9481,-3.9625,-3.9589,-3.9409,-3.9388,-3.923,-3.8871,-3.8512,-3.8222,-3.76,-3.7243,-3.6842,-3.6231,-3.6173,-3.582,-3.5556,-3.5414,-3.5248,-3.4942,-3.4791,-3.469,-3.4486,-3.438,-3.438,-3.4559,-3.4849,-3.4849,-3.4646,-3.4574,-3.4661,-3.4603,-3.4467,-3.4748,-3.496,-3.4964,-3.4961,-3.4986,-3.5002,-3.4825,-3.4872,-3.5085,-3.5395,-3.5151,-3.5607,-3.6235,-3.6025,-3.5795,-3.5449,-3.5062,-3.4242,-3.3654,-3.3417,-3.3314,-3.3392,-3.3628,-3.4029,-3.3975,-3.3669,-3.3487,-3.3403,-3.3246,-3.2929,-3.252,-5.0011,-5.0011,-5.0011,-4.983,-4.9577,-4.95,-4.9398,-4.9199,-4.9124,-4.9063,-4.9063,-4.9015,-4.8748,-4.8257,-4.7665,-4.7344,-4.6769,-4.6283,-4.5753,-4.5589,-4.5574,-4.5704,-4.5782,-4.6034,-4.6526,-4.6274,-4.5771,-4.5337,-4.4863,-4.3853,-4.3321,-4.2886,-4.2365,-4.1931,-4.1337,-4.0867,-4.0593,-4.0593,-4.0539,-4.0505,-4.0489,-4.0489,-4.0489,-4.0489,-4.0489,-4.0366,-4.0156,-4.0101,-3.996,-3.9783,-3.9711,-3.9661,-3.9625,-3.9589,-3.9589,-3.9496,-3.9313,-3.9095,-3.8556,-3.7943,-3.75,-3.6711,-3.6573,-3.6204,-3.5862,-3.5695,-3.5436,-3.4989,-3.4823,-3.4683,-3.4515,-3.4588,-3.4549,-3.4448,-3.4414,-3.4395,-3.4545,-3.4762,-3.4646,-3.4516,-3.4574,-3.4733,-3.4443,-3.438,-3.4399,-3.4587,-3.4513,-3.4508,-3.4439,-3.4407,-3.4296,-3.4434,-3.4711,-3.4996,-3.5302,-3.5682,-3.5972,-3.5902,-3.5659,-3.5394,-3.4899,-3.4072,-3.3437,-3.3184,-3.3131,-3.3212,-3.3289,-3.3393,-3.361,-3.3752,-3.3431,-3.3021,-3.2784,-3.2447,-3.2207,-5.0011,-5.0011,-5.0011,-4.9872,-4.9593,-4.9543,-4.9329,-4.9107,-4.9012,-4.8995,-4.8948,-4.8894,-4.8815,-4.8426,-4.7394,-4.687,-4.638,-4.5432,-4.4884,-4.514,-4.5349,-4.5948,-4.6474,-4.681,-4.6772,-4.708,-4.636,-4.5481,-4.4993,-4.4142,-4.3542,-4.2943,-4.2412,-4.1916,-4.1307,-4.0969,-4.0799,-4.0765,-4.0608,-4.0574,-4.0524,-4.0524,-4.0489,-4.0489,-4.0489,-4.0401,-4.0277,-4.0172,-4.0031,-3.9889,-3.9854,-3.9768,-3.9625,-3.9661,-3.9589,-3.9424,-3.9364,-3.9005,-3.8362,-3.721,-3.6384,-3.5887,-3.5899,-3.5672,-3.538,-3.5255,-3.5233,-3.4935,-3.4916,-3.4817,-3.4716,-3.4664,-3.4563,-3.4448,-3.4414,-3.4409,-3.4559,-3.4632,-3.4545,-3.4472,-3.4864,-3.5145,-3.469,-3.438,-3.4264,-3.4239,-3.4142,-3.4094,-3.4094,-3.4054,-3.4071,-3.42,-3.4487,-3.4644,-3.4988,-3.5447,-3.5681,-3.5636,-3.5501,-3.519,-3.4709,-3.3932,-3.3406,-3.3043,-3.2993,-3.306,-3.2866,-3.2593,-3.2829,-3.2992,-3.2713,-3.2358,-3.2137,-3.1983,-3.1819,-5.0011,-5.0011,-5.0011,-4.9596,-4.9021,-4.8912,-4.8812,-4.8592,-4.8123,-4.7839,-4.7869,-4.8137,-4.8026,-4.7475,-4.7107,-4.6515,-4.5923,-4.5196,-4.4715,-4.469,-4.5068,-4.5399,-4.5995,-4.6452,-4.6647,-4.6444,-4.5939,-4.5477,-4.4977,-4.4247,-4.3468,-4.282,-4.2285,-4.1637,-4.1254,-4.1034,-4.1,-4.095,-4.0799,-4.0696,-4.0696,-4.0558,-4.0489,-4.0489,-4.0489,-4.0436,-4.0312,-4.0242,-4.0101,-3.991,-3.991,-3.9768,-3.9625,-3.9625,-3.9625,-3.9326,-3.9095,-3.8212,-3.7315,-3.6312,-3.5804,-3.5549,-3.5489,-3.5457,-3.5392,-3.5407,-3.5294,-3.5148,-3.5115,-3.4983,-3.4765,-3.4698,-3.4597,-3.4448,-3.438,-3.438,-3.4472,-3.453,-3.4516,-3.4457,-3.4675,-3.4748,-3.4501,-3.438,-3.4312,-3.4264,-3.4196,-3.423,-3.423,-3.4162,-3.4137,-3.422,-3.4349,-3.4421,-3.4632,-3.5086,-3.5345,-3.5339,-3.5181,-3.4933,-3.4381,-3.3817,-3.3289,-3.2878,-3.2884,-3.2925,-3.2551,-3.2274,-3.2175,-3.2111,-3.2031,-3.1927,-3.1863,-3.1759,-3.1656,-4.9597,-4.9562,-4.9304,-4.8867,-4.8358,-4.8518,-4.8374,-4.7904,-4.7409,-4.7118,-4.708,-4.7488,-4.7441,-4.6883,-4.6498,-4.6261,-4.5618,-4.4942,-4.4732,-4.4639,-4.5081,-4.539,-4.5621,-4.5821,-4.6188,-4.5982,-4.5497,-4.502,-4.496,-4.4231,-4.3542,-4.282,-4.2093,-4.1818,-4.1472,-4.1355,-4.1135,-4.1068,-4.0882,-4.073,-4.0662,-4.0574,-4.0489,-4.0489,-4.0489,-4.0455,-4.0366,-4.0226,-4.0137,-3.998,-3.991,-3.9839,-3.9768,-3.9661,-3.9661,-3.9373,-3.8532,-3.7648,-3.6686,-3.5953,-3.5609,-3.5504,-3.5489,-3.5489,-3.5489,-3.5472,-3.5439,-3.5326,-3.5294,-3.5129,-3.4931,-3.4831,-3.4698,-3.4515,-3.4414,-3.4414,-3.4395,-3.4472,-3.4486,-3.4395,-3.438,-3.438,-3.438,-3.438,-3.4346,-3.4346,-3.4346,-3.4346,-3.4346,-3.4264,-3.4196,-3.4278,-3.4312,-3.4365,-3.45,-3.4703,-3.4926,-3.5024,-3.4872,-3.4696,-3.442,-3.3875,-3.3324,-3.2842,-3.3049,-3.2946,-3.2286,-3.1967,-3.1831,-3.1744,-3.1667,-3.1615,-3.1536,-3.1458,-3.1418,-4.8758,-4.8654,-4.8,-4.7724,-4.7758,-4.8083,-4.778,-4.6975,-4.7022,-4.6936,-4.6709,-4.6838,-4.6843,-4.6595,-4.6041,-4.5754,-4.5568,-4.4936,-4.4833,-4.4934,-4.5052,-4.5284,-4.5416,-4.554,-4.5549,-4.5546,-4.5213,-4.4693,-4.4827,-4.3946,-4.3328,-4.2974,-4.2238,-4.1948,-4.1753,-4.1571,-4.1288,-4.112,-4.0916,-4.0765,-4.0662,-4.0539,-4.0489,-4.0489,-4.0489,-4.0489,-4.042,-4.0401,-4.0401,-4.0351,-4.0296,-4.0277,-4.0137,-3.9895,-3.9768,-3.9224,-3.8107,-3.7323,-3.642,-3.5731,-3.5564,-3.5489,-3.5489,-3.5489,-3.5489,-3.5489,-3.5472,-3.5472,-3.5424,-3.5294,-3.5162,-3.4983,-3.4783,-3.465,-3.4448,-3.4414,-3.4414,-3.4395,-3.4395,-3.438,-3.438,-3.438,-3.438,-3.438,-3.438,-3.438,-3.4346,-3.4332,-3.4298,-3.4278,-3.423,-3.4346,-3.438,-3.438,-3.4501,-3.4588,-3.4617,-3.4733,-3.4578,-3.4378,-3.4169,-3.4051,-3.3697,-3.3424,-3.3347,-3.3085,-3.2613,-3.2015,-3.1442,-3.1395,-3.1566,-3.1389,-3.135,-3.1209,-3.113,-4.8027,-4.7965,-4.7758,-4.7379,-4.6896,-4.6525,-4.6062,-4.5737,-4.5747,-4.5682,-4.555,-4.6124,-4.6221,-4.5974,-4.5788,-4.5686,-4.5399,-4.5043,-4.4761,-4.4732,-4.4723,-4.467,-4.4671,-4.466,-4.4564,-4.453,-4.438,-4.4221,-4.3883,-4.3281,-4.3129,-4.2912,-4.2254,-4.1997,-4.19,-4.172,-4.1505,-4.1239,-4.1003,-4.0799,-4.0696,-4.0593,-4.0558,-4.0524,-4.0558,-4.0558,-4.0505,-4.0436,-4.0401,-4.0331,-4.0172,-4.0101,-4.0066,-3.99,-3.9677,-3.8542,-3.7801,-3.7203,-3.618,-3.5659,-3.5489,-3.5489,-3.5489,-3.5489,-3.5489,-3.5489,-3.5489,-3.5489,-3.5504,-3.5359,-3.5195,-3.5016,-3.485,-3.4635,-3.4515,-3.4414,-3.438,-3.438,-3.438,-3.438,-3.438,-3.438,-3.438,-3.438,-3.438,-3.438,-3.438,-3.4332,-3.4298,-3.4264,-3.4278,-3.438,-3.438,-3.438,-3.438,-3.4486,-3.4457,-3.4409,-3.4346,-3.4264,-3.4191,-3.4117,-3.402,-3.3868,-3.3612,-3.3353,-3.3051,-3.2381,-3.1629,-3.1593,-3.1689,-3.14,-3.1123,-3.1061,-3.1024,-4.7269,-4.7217,-4.6896,-4.6463,-4.5935,-4.5444,-4.5184,-4.5086,-4.5211,-4.5167,-4.5073,-4.5473,-4.5539,-4.5377,-4.5258,-4.5213,-4.5179,-4.484,-4.4592,-4.4462,-4.4367,-4.4337,-4.4188,-4.4027,-4.404,-4.3956,-4.3927,-4.3951,-4.3568,-4.3281,-4.3099,-4.3204,-4.2349,-4.2269,-4.2317,-4.2174,-4.1931,-4.1588,-4.1256,-4.0901,-4.0765,-4.0765,-4.073,-4.0593,-4.0662,-4.0696,-4.0505,-4.0401,-4.0366,-4.0366,-4.0226,-4.0207,-4.0207,-4.0126,-3.9408,-3.8402,-3.7805,-3.6984,-3.6017,-3.5632,-3.5522,-3.5489,-3.5489,-3.5489,-3.5489,-3.5489,-3.5489,-3.5489,-3.5472,-3.5407,-3.5228,-3.5016,-3.4802,-3.4635,-3.4501,-3.4414,-3.438,-3.438,-3.438,-3.438,-3.438,-3.438,-3.438,-3.4414,-3.438,-3.438,-3.438,-3.438,-3.4366,-3.4346,-3.4346,-3.438,-3.438,-3.438,-3.438,-3.438,-3.438,-3.438,-3.438,-3.4312,-3.423,-3.4196,-3.421,-3.3991,-3.3736,-3.3528,-3.3374,-3.2632,-3.1982,-3.1909,-3.1703,-3.131,-3.1099,-3.1061,-3.1024,-4.651,-4.6475,-4.569,-4.5367,-4.5049,-4.5076,-4.4968,-4.4858,-4.5184,-4.5238,-4.5022,-4.4995,-4.4971,-4.4907,-4.4795,-4.475,-4.4767,-4.4649,-4.4542,-4.4338,-4.4338,-4.4253,-4.4155,-4.4015,-4.3998,-4.4027,-4.3969,-4.3868,-4.3809,-4.3449,-4.3221,-4.3539,-4.3052,-4.2789,-4.2726,-4.2492,-4.2286,-4.2093,-4.167,-4.1239,-4.0953,-4.0987,-4.1088,-4.073,-4.0833,-4.0953,-4.0627,-4.0489,-4.0489,-4.0489,-4.047,-4.0436,-4.0331,-4.0301,-3.9379,-3.8512,-3.7937,-3.7023,-3.6125,-3.5619,-3.5522,-3.5489,-3.5489,-3.5489,-3.5489,-3.5489,-3.5489,-3.5489,-3.5472,-3.5424,-3.5246,-3.5115,-3.4935,-3.4769,-3.4683,-3.4601,-3.4568,-3.4568,-3.4582,-3.4582,-3.4582,-3.4582,-3.4481,-3.4515,-3.4448,-3.4414,-3.438,-3.438,-3.4414,-3.4414,-3.4414,-3.4414,-3.438,-3.438,-3.438,-3.438,-3.438,-3.438,-3.438,-3.438,-3.4312,-3.4346,-3.438,-3.4196,-3.3991,-3.3839,-3.3597,-3.2952,-3.2453,-3.2055,-3.1776,-3.1235,-3.1061,-3.1061,-3.1024,-4.5673,-4.5673,-4.5483,-4.5318,-4.5167,-4.5167,-4.5086,-4.4951,-4.5032,-4.5022,-4.4869,-4.4831,-4.4793,-4.4682,-4.4626,-4.4598,-4.4598,-4.4598,-4.457,-4.4468,-4.4395,-4.4338,-4.4224,-4.4126,-4.4114,-4.4056,-4.3985,-4.3839,-4.3704,-4.3388,-4.3129,-4.319,-4.2929,-4.2805,-4.2881,-4.2649,-4.2602,-4.2539,-4.2286,-4.1867,-4.1623,-4.1307,-4.1156,-4.0935,-4.0953,-4.0765,-4.0524,-4.0489,-4.0489,-4.0489,-4.0401,-4.0261,-4.0101,-4.0226,-3.9558,-3.8449,-3.7886,-3.7061,-3.6252,-3.5668,-3.5522,-3.5489,-3.5489,-3.5489,-3.5489,-3.5489,-3.5489,-3.5489,-3.5457,-3.5392,-3.5311,-3.518,-3.5034,-3.4935,-3.4817,-3.4769,-3.4721,-3.4735,-3.4735,-3.4735,-3.4735,-3.4716,-3.465,-3.4597,-3.4515,-3.4481,-3.4414,-3.4414,-3.4448,-3.4448,-3.4481,-3.4448,-3.4414,-3.438,-3.438,-3.438,-3.438,-3.438,-3.438,-3.438,-3.438,-3.438,-3.438,-3.438,-3.4278,-3.4128,-3.3942,-3.3667,-3.3129,-3.2596,-3.2055,-3.1666,-3.131,-3.1198,-3.1099,-4.5414,-4.5414,-4.5414,-4.5291,-4.5123,-4.5113,-4.5005,-4.4858,-4.482,-4.4776,-4.4737,-4.4748,-4.4748,-4.4671,-4.4626,-4.4598,-4.4598,-4.4598,-4.457,-4.4525,-4.4497,-4.4468,-4.4355,-4.427,-4.4298,-4.4241,-4.4085,-4.391,-4.3658,-4.3479,-4.3281,-4.3281,-4.3007,-4.2945,-4.3021,-4.3037,-4.2976,-4.2929,-4.2883,-4.2743,-4.238,-4.1997,-4.1489,-4.1223,-4.0987,-4.0783,-4.0524,-4.0489,-4.0489,-4.047,-4.0366,-4.0312,-4.0065,-3.9836,-3.92,-3.8342,-3.7649,-3.7001,-3.6226,-3.5733,-3.5489,-3.5489,-3.5489,-3.5489,-3.5489,-3.5489,-3.5489,-3.5489,-3.5489,-3.5424,-3.5359,-3.5261,-3.5082,-3.4935,-3.4817,-3.4716,-3.4683,-3.465,-3.4683,-3.4716,-3.4769,-3.4835,-3.4769,-3.4769,-3.4735,-3.4716,-3.4635,-3.4616,-3.4616,-3.4549,-3.4549,-3.4515,-3.4481,-3.4414,-3.438,-3.438,-3.438,-3.438,-3.438,-3.438,-3.438,-3.438,-3.438,-3.438,-3.438,-3.438,-3.4162,-3.3908,-3.3667,-3.3164,-3.2632,-3.2128,-3.1776,-3.1384,-3.131,-4.5414,-4.5414,-4.5414,-4.5264,-4.5022,-4.5022,-4.4858,-4.4626,-4.4598,-4.4598,-4.4626,-4.4737,-4.4765,-4.4737,-4.4654,-4.4626,-4.4598,-4.4598,-4.4598,-4.4598,-4.457,-4.4542,-4.4497,-4.444,-4.444,-4.4384,-4.4212,-4.4027,-4.3839,-4.3674,-4.3585,-4.3615,-4.3615,-4.3615,-4.3615,-4.3585,-4.3479,-4.3449,-4.3419,-4.3432,-4.3113,-4.2649,-4.2061,-4.1638,-4.1374,-4.1107,-4.0783,-4.0593,-4.0627,-4.0436,-4.0351,-4.0139,-3.9836,-3.9417,-3.8735,-3.7986,-3.7243,-3.6635,-3.6027,-3.5683,-3.5554,-3.5489,-3.5489,-3.5489,-3.5489,-3.5489,-3.5489,-3.5489,-3.5489,-3.5457,-3.5439,-3.5359,-3.5148,-3.4983,-3.4817,-3.4698,-3.4698,-3.4698,-3.4716,-3.4783,-3.4868,-3.4953,-3.492,-3.492,-3.4935,-3.4935,-3.4935,-3.4902,-3.4868,-3.475,-3.4683,-3.465,-3.4582,-3.4515,-3.4414,-3.4414,-3.4414,-3.438,-3.438,-3.438,-3.438,-3.438,-3.438,-3.438,-3.438,-3.438,-3.423,-3.3942,-3.3736,-3.3563,-3.2704,-3.2092,-3.1982,-3.1629,-3.1556,-4.5414,-4.5414,-4.5414,-4.522,-4.5022,-4.5022,-4.4858,-4.4626,-4.4598,-4.4598,-4.4598,-4.4626,-4.4626,-4.4654,-4.4626,-4.4598,-4.4598,-4.4598,-4.4598,-4.4598,-4.4598,-4.4598,-4.457,-4.4485,-4.444,-4.4355,-4.4241,-4.4143,-4.3881,-4.3822,-4.3763,-4.3628,-4.3615,-4.3598,-4.3598,-4.3598,-4.3628,-4.3645,-4.3628,-4.3598,-4.3432,-4.3052,-4.2711,-4.2349,-4.2093,-4.1671,-4.1323,-4.114,-4.0885,-4.0593,-4.0339,-3.994,-3.9505,-3.904,-3.8339,-3.7768,-3.704,-3.655,-3.6091,-3.5844,-3.5765,-3.5619,-3.5619,-3.5554,-3.5522,-3.5489,-3.5489,-3.5489,-3.5489,-3.5489,-3.5457,-3.5457,-3.5326,-3.5148,-3.4983,-3.4883,-3.4817,-3.4949,-3.5016,-3.5082,-3.518,-3.518,-3.5133,-3.51,-3.5034,-3.5049,-3.5001,-3.5001,-3.4968,-3.4883,-3.4831,-3.475,-3.4683,-3.4549,-3.4448,-3.4448,-3.4433,-3.4414,-3.438,-3.438,-3.438,-3.438,-3.438,-3.438,-3.438,-3.438,-3.4196,-3.4025,-3.3839,-3.3563,-3.2525,-3.1909,-3.1946,-3.1909,-3.185]},{"header":{"parameterUnit":"m.s-1","parameterCategory":1,"la1":31.0,"la2":29.5877,"lo1":-88.7671,"lo2":-86.6584,"dy":0.0162,"dx":0.0185,"nx":115,"ny":88,"refTime":"2023-07-11T00:00:00:Z","depth":0,"parameterNumber":3,"parameterNumberName":"V-component_of_WINDS"},"data":[0.0,0.0,0.0,0.0,0.0,0.0,0.0,0.0,0.0,0.0,0.0,0.0,0.0,0.0,0.0,0.0,0.0,0.0,0.0,0.0,0.0,0.0,0.0,0.0,0.0,0.0,0.0,0.0,0.0,0.0,0.0,0.0,0.0,0.0,0.0,0.0,0.0,0.0,0.0,0.0,0.0,0.0,0.0,0.0,0.0,0.0,0.0,0.0,0.0,0.0,0.0,0.0,0.0,0.0,0.0,0.0,0.0,0.0,0.0,0.0,0.0,0.0,0.0,0.0,0.0,0.0,0.0,0.0,0.0,0.0,0.0,0.0,0.0,0.0,0.0,0.0,0.0,0.0,0.0,0.0,0.0,0.0,0.0,0.0,0.0,0.0,0.0,0.0,0.0,0.0,0.0,0.0,0.0,0.0,0.0,0.0,0.0,0.0,0.0,0.0,0.0,0.0,0.0,0.0,0.0,0.0,0.0,0.0,0.0,0.0,0.0,0.0,0.0,0.0,0.0,0.0,0.0,0.0,0.0,0.0,0.0,0.0,0.0,0.0,0.0,0.0,0.0,0.0,0.0,0.0,0.0,0.0,0.0,0.0,0.0,0.0,0.0,0.0,0.0,0.0,0.0,0.0,0.0,0.0,0.0,0.0,0.0,0.0,0.0,0.0,0.0,0.0,0.0,0.0,0.0,0.0,0.0,0.0,0.0,0.0,0.0,0.0,0.0,0.0,0.0,0.0,0.0,0.0,0.0,0.0,0.0,0.0,0.0,0.0,0.0,0.0,0.0,0.0,0.0,0.0,0.0,0.0,0.0,0.0,0.0,0.0,0.0,0.0,0.0,0.0,0.0,0.0,0.0,0.0,0.0,0.0,0.0,0.0,0.0,0.0,0.0,0.0,0.0,0.0,0.0,0.0,0.0,0.0,0.0,0.0,0.0,0.0,0.0,0.0,0.0,0.0,0.0,0.0,0.0,0.0,0.0,0.0,0.0,0.0,0.0,0.0,0.0,0.0,0.0,0.0,0.0,0.0,0.0,0.0,0.0,0.0,0.0,0.0,0.0,0.0,0.0,0.0,0.0,0.0,0.0,0.0,0.0,0.0,0.0,0.0,0.0,0.0,0.0,0.0,0.0,0.0,0.0,0.0,0.0,0.0,0.0,0.0,0.0,0.0,0.0,0.0,0.0,0.0,0.0,0.0,0.0,0.0,0.0,0.0,0.0,0.0,0.0,0.0,0.0,0.0,0.0,0.0,0.0,0.0,0.0,0.0,0.0,0.0,0.0,0.0,0.0,0.0,0.0,0.0,0.0,0.0,0.0,0.0,0.0,0.0,0.0,0.0,0.0,0.0,0.0,0.0,0.0,0.0,0.0,0.0,0.0,0.0,0.0,0.0,0.0,0.0,0.0,0.0,0.0,0.0,0.0,0.0,0.0,0.0,0.0,0.0,0.0,0.0,0.0,0.0,0.0,0.0,0.0,0.0,0.0,0.0,0.0,0.0,0.0,0.0,0.0,0.0,0.0,0.0,0.0,0.0,0.0,0.0,0.0,0.0,0.0,0.0,0.0,0.0,0.0,0.0,0.0,0.0,0.0,0.0,0.0,0.0,0.0,0.0,0.0,0.0,0.0,0.0,0.0,0.0,0.0,0.0,0.0,0.0,0.0,0.0,0.0,0.0,0.0,0.0,0.0,0.0,0.0,0.0,0.0,0.0,0.0,0.0,0.0,0.0,0.0,0.0,0.0,0.0,0.0,0.0,0.0,0.0,0.0,0.0,0.0,0.0,0.0,0.0,0.0,0.0,0.0,0.0,0.0,0.0,0.0,0.0,0.0,0.0,0.0,0.0,0.0,0.0,0.0,0.0,0.0,0.0,0.0,0.0,0.0,0.0,0.0,0.0,0.0,0.0,0.0,0.0,0.0,0.0,0.0,0.0,0.0,0.0,0.0,0.0,0.0,0.0,0.0,0.0,0.0,0.0,0.0,0.0,0.0,0.0,0.0,0.0,0.0,0.0,0.0,0.0,0.0,0.0,0.0,0.0,0.0,0.0,0.0,0.0,0.0,0.0,0.0,0.0,0.0,0.0,0.0,0.0,0.0,0.0,0.0,0.0,0.0,0.0,0.0,0.0,0.0,0.0,0.0,0.0,0.0,0.0,0.0,0.0,0.0,0.0,0.0,0.0,0.0,0.0,0.0,0.0,0.0,0.0,0.0,0.0,0.0,0.0,0.0,0.0,0.0,0.0,0.0,0.0,0.0,0.0,0.0,0.0,0.0,0.0,0.0,0.0,0.0,0.0,0.0,0.0,0.0,0.0,0.0,0.0,0.0,0.0,0.0,0.0,0.0,0.0,0.0,0.0,0.0,0.0,0.0,0.0,0.0,0.0,0.0,0.0,0.0,0.0,0.0,0.0,0.0,0.0,0.0,0.0,0.0,0.0,0.0,0.0,0.0,0.0,0.0,0.0,0.0,0.0,0.0,0.0,0.0,0.0,0.0,0.0,0.0,0.0,0.0,0.0,0.0,0.0,0.0,0.0,0.0,0.0,0.0,0.0,0.0,0.0,0.0,0.0,0.0,0.0,0.0,0.0,0.0,0.0,0.0,0.0,0.0,0.0,0.0,0.0,0.0,0.0,0.0,0.0,0.0,0.0,0.0,0.0,0.0,0.0,0.0,0.0,0.0,0.0,0.0,0.0,0.0,0.0,0.0,0.0,0.0,0.0,0.0,0.0,0.0,0.0,0.0,0.0,0.0,0.0,0.0,0.0,0.0,0.0,0.0,0.0,0.0,0.0,0.0,0.0,0.0,0.0,0.0,0.0,0.0,0.0,0.0,0.0,0.0,0.0,0.0,0.0,0.0,0.0,0.0,0.0,0.0,0.0,0.0,0.0,0.0,0.0,0.0,0.0,0.0,0.0,0.0,0.0,0.0,0.0,0.0,0.0,0.0,0.0,0.0,0.0,0.0,0.0,0.0,0.0,0.0,0.0,0.0,0.0,0.0,0.0,0.0,0.0,0.0,0.0,0.0,0.0,0.0,0.0,0.0,0.0,0.0,0.0,0.0,0.0,0.0,0.0,0.0,0.0,0.0,0.0,0.0,0.0,0.0,0.0,0.0,0.0,0.0,0.0,0.0,0.0,0.0,0.0,0.0,0.0,0.0,0.0,0.0,0.0,0.0,0.0,0.0,0.0,0.0,0.0,0.0,0.0,0.0,0.0,0.0,0.0,0.0,0.0,0.0,0.0,0.0,0.0,0.0,0.0,0.0,0.0,0.0,0.0,0.0,0.0,0.0,0.0,0.0,0.0,0.0,0.0,0.0,0.0,0.0,0.0,0.0,0.0,0.0,0.0,0.0,0.0,0.0,0.0,0.0,0.0,0.0,0.0,0.0,0.0,0.0,0.0,0.0,0.0,0.0,0.0,0.0,0.0,0.0,0.0,0.0,0.0,0.0,0.0,0.0,0.0,0.0,0.0,0.0,0.0,0.0,0.0,0.0,0.0,0.0,0.0,0.0,0.0,0.0,0.0,0.0,0.0,0.0,0.0,0.0,0.0,0.0,0.0,0.0,0.0,0.0,0.0,0.0,0.0,0.0,0.0,0.0,0.0,0.0,0.0,0.0,0.0,0.0,0.0,0.0,0.0,0.0,0.0,0.0,0.0,0.0,0.0,0.0,0.0,0.0,0.0,0.0,0.0,0.0,0.0,0.0,0.0,0.0,0.0,0.0,0.0,0.0,0.0,0.0,0.0,0.0,0.0,0.0,0.0,0.0,0.0,0.0,0.0,0.0,0.0,0.0,0.0,0.0,0.0,0.0,0.0,0.0,0.0,0.0,0.0,0.0,0.0,0.0,0.0,0.0,0.0,0.0,0.0,0.0,0.0,0.0,0.0,0.0,0.0,0.0,0.0,0.0,0.0,0.0,0.0,0.0,0.0,0.0,0.0,0.0,0.0,0.0,0.0,0.0,0.0,0.0,0.0,0.0,0.0,0.0,0.0,0.0,0.0,0.0,0.0,0.0,0.0,0.0,0.0,0.0,0.0,0.0,0.0,0.0,0.0,0.0,0.0,0.0,0.0,0.0,0.0,0.0,0.0,0.0,0.0,0.0,0.0,0.0,0.0,0.0,0.0,0.0,0.0,0.0,0.0,0.0,0.0,0.0,0.0,0.0,0.0,0.0,0.0,0.0,0.0,0.0,0.0,0.0,0.0,0.0,0.0,0.0,0.0,0.0,0.0,0.0,0.0,0.0,0.0,0.0,0.0,0.0,0.0,0.0,0.0,-1.4947,0.0,0.0,0.0,0.0,0.0,0.0,0.0,0.0,0.0,0.0,0.0,0.0,0.0,0.0,0.0,0.0,0.0,0.0,0.0,0.0,0.0,0.0,0.0,0.0,0.0,0.0,0.0,0.0,0.0,0.0,0.0,0.0,0.0,0.0,0.0,0.0,0.0,0.0,0.0,0.0,0.0,0.0,0.0,0.0,0.0,0.0,0.0,0.0,0.0,0.0,0.0,0.0,0.0,0.0,0.0,0.0,0.0,0.0,0.0,0.0,0.0,0.0,0.0,0.0,0.0,0.0,0.0,0.0,0.0,0.0,0.0,0.0,0.0,0.0,0.0,0.0,0.0,0.0,0.0,0.0,0.0,0.0,0.0,0.0,0.0,0.0,0.0,0.0,0.0,0.0,0.0,0.0,0.0,0.0,0.0,0.0,0.0,0.0,0.0,0.0,0.0,0.0,0.0,0.0,0.0,0.0,0.0,0.0,0.0,0.0,-1.6105,-1.6105,-1.5781,-1.5569,-1.5507,0.0,0.0,0.0,0.0,0.0,0.0,0.0,0.0,0.0,0.0,0.0,0.0,0.0,0.0,0.0,0.0,0.0,0.0,0.0,0.0,0.0,0.0,0.0,0.0,0.0,0.0,0.0,0.0,0.0,0.0,0.0,0.0,0.0,0.0,0.0,0.0,0.0,0.0,0.0,0.0,0.0,0.0,0.0,0.0,0.0,0.0,0.0,0.0,0.0,0.0,0.0,0.0,0.0,0.0,0.0,0.0,0.0,0.0,0.0,0.0,0.0,0.0,0.0,0.0,0.0,0.0,0.0,0.0,0.0,0.0,0.0,0.0,0.0,0.0,0.0,0.0,0.0,0.0,0.0,0.0,0.0,0.0,0.0,0.0,0.0,0.0,0.0,0.0,0.0,0.0,0.0,0.0,0.0,0.0,0.0,0.0,0.0,0.0,0.0,0.0,0.0,0.0,0.0,0.0,0.0,0.0,0.0,0.0,0.0,0.0,0.0,0.0,-1.6554,-1.6254,-1.6167,0.0,0.0,0.0,0.0,0.0,0.0,0.0,0.0,0.0,0.0,0.0,0.0,0.0,0.0,0.0,0.0,0.0,0.0,0.0,0.0,0.0,0.0,0.0,0.0,0.0,0.0,0.0,0.0,0.0,0.0,0.0,0.0,0.0,0.0,0.0,0.0,0.0,0.0,0.0,0.0,0.0,0.0,0.0,0.0,0.0,0.0,0.0,0.0,0.0,0.0,0.0,0.0,0.0,0.0,0.0,0.0,0.0,0.0,0.0,0.0,0.0,0.0,0.0,0.0,0.0,0.0,0.0,0.0,0.0,0.0,0.0,0.0,0.0,0.0,0.0,0.0,0.0,0.0,0.0,0.0,0.0,0.0,0.0,0.0,0.0,0.0,0.0,0.0,0.0,0.0,0.0,0.0,0.0,0.0,0.0,0.0,0.0,0.0,0.0,0.0,0.0,0.0,0.0,0.0,0.0,0.0,0.0,0.0,0.0,0.0,-1.8225,-1.8216,-1.819,0.0,-1.7564,0.0,0.0,0.0,0.0,0.0,0.0,0.0,0.0,0.0,0.0,0.0,0.0,0.0,0.0,0.0,0.0,0.0,0.0,0.0,0.0,0.0,0.0,0.0,0.0,0.0,0.0,0.0,0.0,0.0,0.0,0.0,0.0,0.0,0.0,0.0,0.0,0.0,0.0,0.0,0.0,0.0,0.0,0.0,0.0,0.0,0.0,0.0,0.0,0.0,0.0,0.0,0.0,0.0,0.0,0.0,0.0,0.0,0.0,0.0,0.0,0.0,0.0,0.0,0.0,0.0,0.0,0.0,0.0,0.0,0.0,0.0,0.0,0.0,0.0,0.0,0.0,0.0,0.0,0.0,0.0,0.0,0.0,0.0,0.0,0.0,0.0,0.0,0.0,0.0,0.0,0.0,0.0,0.0,0.0,0.0,0.0,0.0,0.0,0.0,0.0,0.0,0.0,0.0,0.0,0.0,0.0,0.0,0.0,0.0,0.0,-1.8935,-1.8925,-1.8925,-1.8721,0.0,0.0,0.0,0.0,0.0,0.0,0.0,0.0,0.0,0.0,0.0,0.0,0.0,0.0,0.0,0.0,0.0,0.0,0.0,0.0,0.0,0.0,0.0,0.0,0.0,0.0,0.0,0.0,0.0,0.0,0.0,0.0,0.0,0.0,0.0,0.0,0.0,0.0,0.0,0.0,0.0,0.0,0.0,0.0,0.0,0.0,0.0,0.0,0.0,0.0,0.0,0.0,0.0,0.0,0.0,0.0,0.0,0.0,0.0,0.0,0.0,0.0,0.0,0.0,0.0,0.0,0.0,0.0,0.0,0.0,0.0,0.0,0.0,0.0,0.0,0.0,0.0,0.0,0.0,0.0,0.0,0.0,0.0,0.0,0.0,0.0,0.0,0.0,0.0,0.0,0.0,0.0,0.0,0.0,0.0,0.0,0.0,0.0,0.0,0.0,0.0,0.0,0.0,0.0,0.0,0.0,0.0,0.0,0.0,0.0,-1.9613,-1.9463,-1.9453,-1.9346,-1.9141,-1.8792,0.0,0.0,0.0,0.0,0.0,0.0,0.0,0.0,0.0,0.0,0.0,0.0,0.0,0.0,0.0,0.0,0.0,0.0,0.0,0.0,0.0,0.0,0.0,0.0,0.0,0.0,0.0,0.0,0.0,0.0,0.0,0.0,0.0,0.0,0.0,0.0,0.0,0.0,0.0,0.0,0.0,0.0,0.0,0.0,0.0,0.0,0.0,0.0,0.0,0.0,0.0,0.0,0.0,0.0,0.0,0.0,0.0,0.0,0.0,0.0,0.0,0.0,0.0,0.0,0.0,0.0,0.0,0.0,0.0,0.0,0.0,0.0,0.0,0.0,0.0,0.0,0.0,0.0,0.0,0.0,0.0,0.0,0.0,0.0,0.0,0.0,0.0,0.0,0.0,0.0,0.0,0.0,0.0,0.0,0.0,0.0,0.0,0.0,0.0,0.0,0.0,0.0,0.0,0.0,0.0,0.0,0.0,0.0,-2.0498,-2.0107,-1.9855,-1.9883,-1.9502,-1.9277,0.0,0.0,0.0,0.0,0.0,0.0,0.0,0.0,0.0,0.0,0.0,0.0,0.0,0.0,0.0,0.0,0.0,0.0,0.0,0.0,0.0,0.0,0.0,0.0,0.0,0.0,0.0,0.0,0.0,0.0,0.0,0.0,0.0,0.0,0.0,0.0,0.0,0.0,0.0,0.0,0.0,0.0,0.0,0.0,0.0,0.0,0.0,0.0,0.0,0.0,0.0,0.0,0.0,0.0,0.0,0.0,0.0,0.0,0.0,0.0,0.0,0.0,0.0,0.0,0.0,0.0,0.0,0.0,0.0,0.0,0.0,0.0,0.0,0.0,0.0,0.0,0.0,0.0,0.0,0.0,0.0,0.0,0.0,0.0,0.0,0.0,0.0,0.0,0.0,0.0,0.0,0.0,0.0,0.0,0.0,0.0,0.0,0.0,0.0,0.0,0.0,0.0,0.0,0.0,0.0,0.0,0.0,0.0,0.0,-2.0547,-2.041,-2.0322,-2.037,-2.0185,-1.998,0.0,0.0,0.0,0.0,0.0,0.0,0.0,0.0,0.0,0.0,0.0,0.0,0.0,0.0,0.0,0.0,0.0,0.0,0.0,0.0,0.0,0.0,0.0,0.0,0.0,0.0,0.0,0.0,0.0,0.0,0.0,0.0,0.0,0.0,0.0,0.0,0.0,0.0,0.0,0.0,0.0,0.0,0.0,0.0,0.0,0.0,0.0,0.0,0.0,0.0,0.0,0.0,0.0,0.0,0.0,0.0,0.0,0.0,0.0,0.0,0.0,0.0,0.0,0.0,0.0,0.0,0.0,0.0,0.0,0.0,0.0,0.0,0.0,0.0,0.0,0.0,0.0,0.0,0.0,0.0,0.0,0.0,0.0,0.0,0.0,0.0,0.0,0.0,0.0,0.0,0.0,0.0,0.0,0.0,0.0,0.0,0.0,0.0,0.0,0.0,0.0,0.0,0.0,0.0,0.0,0.0,0.0,0.0,0.0,-2.0615,0.0,-2.0615,-2.0615,-2.0615,-2.0468,0.0,0.0,0.0,0.0,0.0,0.0,0.0,0.0,0.0,0.0,0.0,0.0,0.0,0.0,0.0,0.0,0.0,0.0,0.0,0.0,0.0,0.0,0.0,0.0,0.0,0.0,0.0,0.0,0.0,0.0,0.0,0.0,0.0,0.0,0.0,0.0,0.0,0.0,0.0,0.0,0.0,0.0,0.0,0.0,0.0,0.0,0.0,0.0,0.0,0.0,0.0,0.0,0.0,0.0,0.0,0.0,0.0,0.0,0.0,0.0,0.0,0.0,0.0,0.0,0.0,0.0,0.0,0.0,0.0,0.0,0.0,0.0,0.0,0.0,0.0,0.0,0.0,0.0,0.0,0.0,0.0,0.0,0.0,0.0,0.0,0.0,0.0,0.0,0.0,0.0,0.0,0.0,0.0,0.0,0.0,0.0,0.0,0.0,0.0,0.0,0.0,0.0,0.0,0.0,0.0,0.0,0.0,0.0,-2.0605,-2.0595,-2.0605,-2.0605,-2.0605,-2.0605,-2.0595,0.0,0.0,0.0,0.0,0.0,0.0,0.0,0.0,0.0,0.0,0.0,0.0,0.0,0.0,0.0,0.0,0.0,0.0,0.0,0.0,0.0,0.0,0.0,0.0,0.0,0.0,0.0,0.0,0.0,0.0,0.0,0.0,0.0,0.0,0.0,0.0,0.0,0.0,0.0,0.0,0.0,0.0,0.0,0.0,0.0,0.0,0.0,0.0,0.0,0.0,0.0,0.0,0.0,0.0,0.0,0.0,0.0,0.0,0.0,0.0,0.0,0.0,0.0,0.0,0.0,0.0,0.0,0.0,0.0,0.0,0.0,0.0,0.0,0.0,0.0,0.0,0.0,0.0,0.0,0.0,0.0,0.0,0.0,0.0,0.0,0.0,0.0,0.0,0.0,0.0,0.0,0.0,0.0,0.0,0.0,0.0,0.0,0.0,0.0,0.0,0.0,0.0,0.0,0.0,0.0,0.0,0.0,0.0,0.0,-2.0829,-2.0654,-2.0654,-2.078,-2.0693,-2.0722,0.0,0.0,0.0,0.0,0.0,0.0,0.0,0.0,0.0,0.0,0.0,0.0,0.0,0.0,0.0,0.0,0.0,0.0,0.0,0.0,0.0,0.0,0.0,0.0,0.0,0.0,0.0,0.0,0.0,0.0,0.0,0.0,0.0,0.0,0.0,0.0,0.0,0.0,0.0,0.0,0.0,0.0,0.0,0.0,0.0,0.0,0.0,0.0,0.0,0.0,0.0,0.0,0.0,0.0,0.0,0.0,0.0,0.0,0.0,0.0,0.0,0.0,0.0,0.0,0.0,0.0,0.0,0.0,0.0,0.0,0.0,0.0,0.0,0.0,0.0,0.0,0.0,0.0,0.0,0.0,0.0,0.0,0.0,0.0,0.0,0.0,0.0,0.0,0.0,0.0,0.0,0.0,0.0,0.0,0.0,0.0,0.0,0.0,0.0,0.0,0.0,0.0,0.0,0.0,0.0,0.0,0.0,0.0,0.0,-2.1099,-2.0858,-2.077,-2.0906,-2.0848,-2.0925,-2.1167,0.0,0.0,0.0,0.0,0.0,0.0,0.0,0.0,0.0,0.0,0.0,0.0,0.0,0.0,0.0,0.0,0.0,0.0,0.0,0.0,0.0,0.0,0.0,0.0,0.0,0.0,0.0,0.0,0.0,0.0,0.0,0.0,0.0,0.0,0.0,0.0,0.0,0.0,0.0,0.0,0.0,0.0,0.0,0.0,0.0,0.0,0.0,0.0,0.0,0.0,0.0,0.0,0.0,0.0,0.0,0.0,0.0,0.0,0.0,0.0,0.0,0.0,0.0,0.0,0.0,0.0,0.0,0.0,0.0,0.0,0.0,0.0,0.0,0.0,0.0,0.0,0.0,0.0,0.0,0.0,0.0,0.0,0.0,0.0,0.0,0.0,0.0,0.0,0.0,0.0,0.0,0.0,0.0,0.0,0.0,0.0,0.0,0.0,0.0,0.0,0.0,0.0,0.0,0.0,0.0,0.0,0.0,0.0,-2.1474,-2.1128,-2.0955,-2.0985,-2.1148,-2.1225,0.0,0.0,0.0,0.0,0.0,0.0,0.0,0.0,0.0,0.0,0.0,0.0,0.0,0.0,0.0,0.0,0.0,0.0,0.0,0.0,0.0,0.0,0.0,0.0,0.0,0.0,0.0,0.0,0.0,0.0,0.0,0.0,0.0,0.0,0.0,0.0,0.0,0.0,0.0,0.0,0.0,0.0,0.0,0.0,0.0,0.0,0.0,0.0,0.0,0.0,0.0,0.0,0.0,0.0,0.0,0.0,0.0,0.0,0.0,0.0,0.0,0.0,0.0,0.0,0.0,0.0,0.0,0.0,0.0,0.0,0.0,0.0,0.0,0.0,0.0,0.0,0.0,0.0,0.0,0.0,0.0,0.0,0.0,0.0,0.0,0.0,0.0,0.0,0.0,0.0,0.0,0.0,0.0,0.0,0.0,0.0,0.0,0.0,0.0,0.0,0.0,0.0,0.0,0.0,0.0,0.0,0.0,0.0,0.0,-2.1292,-2.132,-2.1511,-2.1835,-2.1425,-2.1511,0.0,0.0,0.0,0.0,0.0,0.0,0.0,0.0,0.0,0.0,0.0,0.0,0.0,0.0,0.0,0.0,0.0,0.0,0.0,0.0,0.0,0.0,0.0,0.0,0.0,0.0,0.0,0.0,0.0,0.0,0.0,0.0,0.0,0.0,0.0,0.0,0.0,0.0,0.0,0.0,0.0,0.0,0.0,0.0,0.0,0.0,0.0,0.0,0.0,0.0,0.0,0.0,0.0,0.0,0.0,0.0,0.0,0.0,0.0,0.0,0.0,0.0,0.0,0.0,0.0,0.0,0.0,0.0,0.0,0.0,0.0,0.0,0.0,0.0,0.0,0.0,0.0,0.0,0.0,0.0,0.0,0.0,0.0,0.0,0.0,0.0,0.0,0.0,0.0,0.0,0.0,0.0,0.0,0.0,0.0,0.0,0.0,0.0,0.0,0.0,0.0,0.0,0.0,0.0,0.0,0.0,0.0,0.0,-2.1773,-2.1436,-2.154,-2.1832,-2.2323,-2.1747,-2.1663,0.0,0.0,0.0,0.0,0.0,0.0,0.0,0.0,0.0,0.0,0.0,0.0,0.0,0.0,0.0,0.0,0.0,0.0,0.0,0.0,0.0,0.0,0.0,0.0,0.0,0.0,0.0,0.0,0.0,0.0,0.0,0.0,0.0,0.0,0.0,0.0,0.0,0.0,0.0,0.0,0.0,0.0,0.0,0.0,0.0,0.0,0.0,0.0,0.0,0.0,0.0,0.0,0.0,0.0,0.0,0.0,0.0,0.0,0.0,0.0,0.0,0.0,0.0,0.0,0.0,0.0,0.0,0.0,0.0,0.0,0.0,0.0,0.0,0.0,0.0,0.0,0.0,0.0,0.0,0.0,0.0,0.0,0.0,0.0,0.0,0.0,0.0,0.0,0.0,0.0,0.0,0.0,0.0,0.0,0.0,0.0,0.0,0.0,0.0,0.0,0.0,0.0,0.0,0.0,0.0,0.0,0.0,0.0,-2.2232,-2.1818,-2.1807,-2.1994,-2.2387,-2.2025,-2.1828,0.0,0.0,0.0,0.0,0.0,0.0,0.0,0.0,0.0,0.0,0.0,0.0,0.0,0.0,0.0,0.0,0.0,0.0,0.0,0.0,0.0,0.0,0.0,0.0,0.0,0.0,0.0,0.0,0.0,0.0,0.0,0.0,0.0,0.0,0.0,0.0,0.0,0.0,0.0,0.0,0.0,0.0,0.0,0.0,0.0,0.0,0.0,0.0,0.0,0.0,0.0,0.0,0.0,0.0,0.0,0.0,0.0,0.0,0.0,0.0,0.0,0.0,0.0,0.0,0.0,0.0,0.0,0.0,0.0,0.0,0.0,0.0,0.0,0.0,0.0,0.0,0.0,0.0,0.0,0.0,0.0,0.0,0.0,0.0,0.0,0.0,0.0,0.0,0.0,0.0,0.0,0.0,0.0,0.0,0.0,0.0,0.0,0.0,0.0,0.0,0.0,0.0,0.0,0.0,0.0,0.0,0.0,0.0,-2.1901,-2.1807,-2.1807,-2.1859,-2.1942,-2.1849,-2.1973,0.0,0.0,0.0,0.0,0.0,0.0,0.0,0.0,0.0,0.0,0.0,0.0,0.0,0.0,0.0,0.0,0.0,0.0,0.0,0.0,0.0,0.0,0.0,0.0,0.0,0.0,0.0,0.0,0.0,0.0,0.0,0.0,0.0,0.0,0.0,0.0,0.0,0.0,0.0,0.0,0.0,0.0,0.0,0.0,0.0,0.0,0.0,0.0,-2.2848,0.0,0.0,0.0,0.0,0.0,0.0,0.0,0.0,0.0,0.0,0.0,0.0,0.0,0.0,0.0,0.0,0.0,0.0,0.0,0.0,0.0,0.0,0.0,0.0,0.0,0.0,0.0,0.0,0.0,0.0,0.0,0.0,0.0,0.0,0.0,0.0,0.0,0.0,0.0,0.0,0.0,0.0,0.0,0.0,0.0,0.0,0.0,0.0,0.0,0.0,0.0,0.0,0.0,0.0,0.0,0.0,0.0,0.0,0.0,-2.2242,-2.2439,-2.2242,-2.2139,-2.2128,-2.1911,-2.1921,0.0,0.0,0.0,0.0,0.0,0.0,0.0,0.0,0.0,0.0,0.0,0.0,0.0,0.0,0.0,0.0,0.0,0.0,0.0,0.0,0.0,0.0,0.0,0.0,0.0,0.0,0.0,0.0,0.0,0.0,0.0,0.0,0.0,0.0,0.0,0.0,0.0,0.0,0.0,0.0,0.0,0.0,0.0,0.0,0.0,0.0,0.0,0.0,0.0,0.0,0.0,0.0,0.0,0.0,0.0,0.0,0.0,0.0,0.0,0.0,0.0,0.0,0.0,0.0,0.0,0.0,0.0,0.0,0.0,0.0,0.0,0.0,0.0,0.0,0.0,0.0,0.0,0.0,0.0,0.0,0.0,0.0,0.0,0.0,0.0,0.0,0.0,0.0,0.0,0.0,0.0,0.0,0.0,0.0,0.0,0.0,0.0,0.0,0.0,0.0,0.0,0.0,0.0,0.0,0.0,0.0,0.0,-2.253,-2.2758,-2.3253,-2.2768,-2.253,-2.253,-2.2161,-2.1949,-2.1911,0.0,0.0,0.0,0.0,0.0,0.0,0.0,0.0,0.0,0.0,0.0,0.0,0.0,0.0,0.0,0.0,0.0,0.0,0.0,0.0,0.0,0.0,0.0,0.0,0.0,0.0,0.0,0.0,0.0,0.0,0.0,0.0,0.0,0.0,0.0,0.0,0.0,0.0,-2.3607,-2.4243,0.0,0.0,0.0,0.0,0.0,0.0,0.0,0.0,-2.4666,0.0,0.0,0.0,0.0,0.0,0.0,0.0,0.0,0.0,0.0,0.0,0.0,0.0,0.0,0.0,0.0,0.0,0.0,0.0,0.0,0.0,0.0,0.0,0.0,0.0,0.0,0.0,0.0,0.0,0.0,0.0,0.0,0.0,0.0,0.0,0.0,0.0,0.0,0.0,0.0,0.0,0.0,0.0,0.0,0.0,0.0,0.0,0.0,0.0,0.0,0.0,0.0,0.0,0.0,0.0,0.0,-2.2715,-2.2619,-2.2895,-2.3684,-2.2927,-2.2569,-2.2754,-2.262,-2.2553,-2.2553,0.0,0.0,0.0,0.0,0.0,0.0,0.0,0.0,0.0,0.0,0.0,0.0,0.0,0.0,0.0,0.0,0.0,0.0,0.0,0.0,0.0,0.0,0.0,0.0,0.0,0.0,0.0,0.0,0.0,0.0,0.0,0.0,0.0,0.0,0.0,0.0,0.0,0.0,0.0,-2.5143,-2.5613,0.0,0.0,0.0,0.0,0.0,0.0,0.0,0.0,-2.6639,0.0,0.0,0.0,0.0,0.0,0.0,0.0,0.0,0.0,0.0,0.0,0.0,0.0,0.0,0.0,0.0,0.0,0.0,0.0,0.0,0.0,0.0,0.0,0.0,0.0,0.0,0.0,0.0,0.0,0.0,0.0,0.0,0.0,0.0,0.0,0.0,0.0,0.0,0.0,0.0,0.0,0.0,0.0,0.0,0.0,0.0,0.0,0.0,0.0,0.0,0.0,0.0,0.0,0.0,0.0,-2.3775,-2.3879,-2.4183,-2.4641,-2.4153,-2.3959,-2.4028,-2.3772,-2.3628,0.0,0.0,0.0,0.0,0.0,0.0,0.0,0.0,0.0,0.0,0.0,0.0,0.0,0.0,0.0,0.0,0.0,0.0,0.0,0.0,0.0,0.0,0.0,0.0,0.0,0.0,0.0,0.0,0.0,0.0,0.0,0.0,0.0,0.0,0.0,0.0,0.0,0.0,0.0,0.0,-2.6618,-2.7197,-2.7886,0.0,0.0,0.0,0.0,0.0,0.0,-2.727,-2.7547,0.0,0.0,0.0,0.0,0.0,0.0,0.0,0.0,0.0,0.0,0.0,0.0,0.0,0.0,0.0,0.0,0.0,0.0,0.0,0.0,0.0,0.0,0.0,0.0,0.0,0.0,0.0,0.0,0.0,0.0,0.0,0.0,0.0,0.0,0.0,0.0,0.0,0.0,0.0,0.0,0.0,0.0,0.0,0.0,0.0,0.0,0.0,0.0,0.0,0.0,0.0,0.0,0.0,0.0,0.0,-2.5039,-2.5164,-2.5393,-2.5819,-2.5486,-2.5326,-2.5407,-2.4933,-2.4719,0.0,0.0,0.0,0.0,0.0,0.0,0.0,0.0,0.0,0.0,0.0,0.0,0.0,0.0,0.0,0.0,0.0,0.0,0.0,0.0,0.0,0.0,0.0,0.0,0.0,0.0,0.0,0.0,0.0,0.0,0.0,0.0,0.0,0.0,0.0,0.0,0.0,0.0,0.0,0.0,0.0,-2.8688,-2.9487,-2.9181,0.0,0.0,0.0,0.0,-2.7901,-2.8219,0.0,0.0,0.0,0.0,0.0,0.0,0.0,0.0,0.0,0.0,0.0,0.0,0.0,0.0,0.0,0.0,0.0,0.0,0.0,0.0,0.0,0.0,0.0,0.0,0.0,0.0,0.0,0.0,0.0,0.0,0.0,0.0,0.0,0.0,0.0,0.0,0.0,0.0,0.0,0.0,0.0,0.0,0.0,0.0,0.0,0.0,0.0,0.0,0.0,0.0,0.0,0.0,0.0,0.0,0.0,0.0,-2.5949,-2.5499,-2.5761,-2.6883,-2.6156,-2.5829,-2.6052,-2.5577,-2.5461,0.0,0.0,0.0,0.0,0.0,0.0,0.0,0.0,0.0,0.0,0.0,0.0,0.0,0.0,0.0,0.0,0.0,0.0,0.0,0.0,0.0,0.0,0.0,0.0,0.0,0.0,0.0,0.0,0.0,0.0,0.0,0.0,0.0,0.0,0.0,0.0,0.0,0.0,0.0,0.0,0.0,-2.9192,-2.9716,-2.9625,-2.9645,0.0,0.0,0.0,-2.9775,-2.9832,0.0,0.0,0.0,0.0,0.0,0.0,0.0,0.0,0.0,0.0,0.0,0.0,0.0,0.0,0.0,0.0,0.0,0.0,0.0,0.0,0.0,0.0,0.0,0.0,0.0,0.0,0.0,0.0,0.0,0.0,0.0,0.0,0.0,0.0,0.0,0.0,0.0,0.0,0.0,0.0,0.0,0.0,0.0,0.0,0.0,0.0,0.0,0.0,0.0,0.0,0.0,0.0,0.0,0.0,0.0,-2.583,-2.6892,-2.6806,-2.6949,-2.7336,-2.7111,-2.7048,-2.718,-2.6931,-2.6895,0.0,0.0,0.0,0.0,0.0,0.0,0.0,0.0,0.0,0.0,0.0,0.0,0.0,0.0,0.0,0.0,0.0,0.0,0.0,0.0,0.0,0.0,0.0,0.0,0.0,0.0,0.0,0.0,0.0,0.0,0.0,0.0,0.0,0.0,0.0,0.0,0.0,0.0,0.0,0.0,0.0,0.0,-3.0221,-3.0205,0.0,0.0,0.0,-3.0205,-3.0205,0.0,0.0,0.0,0.0,0.0,0.0,0.0,0.0,0.0,0.0,0.0,0.0,0.0,0.0,0.0,0.0,0.0,0.0,0.0,0.0,0.0,0.0,0.0,0.0,0.0,0.0,0.0,0.0,0.0,0.0,0.0,0.0,0.0,0.0,0.0,0.0,0.0,0.0,0.0,0.0,0.0,0.0,0.0,0.0,0.0,0.0,0.0,0.0,0.0,0.0,0.0,0.0,0.0,0.0,0.0,0.0,0.0,-2.7701,-2.7841,-2.7841,-2.7777,-2.795,-2.8042,-2.8042,-2.7973,0.0,0.0,0.0,0.0,0.0,0.0,0.0,0.0,0.0,0.0,0.0,0.0,0.0,0.0,0.0,0.0,0.0,0.0,0.0,0.0,0.0,0.0,0.0,0.0,0.0,0.0,0.0,-2.6033,0.0,0.0,0.0,0.0,0.0,0.0,0.0,0.0,0.0,0.0,0.0,0.0,0.0,0.0,-3.0612,-3.0612,-3.0612,-3.0538,0.0,0.0,-3.0387,-3.0387,-3.0387,-3.0447,0.0,0.0,0.0,0.0,0.0,0.0,0.0,0.0,0.0,0.0,0.0,0.0,0.0,0.0,0.0,0.0,0.0,0.0,0.0,0.0,0.0,0.0,0.0,0.0,0.0,0.0,0.0,0.0,0.0,0.0,0.0,0.0,0.0,0.0,0.0,0.0,0.0,0.0,0.0,0.0,0.0,0.0,0.0,0.0,0.0,0.0,0.0,0.0,0.0,0.0,0.0,0.0,0.0,0.0,0.0,-2.8391,-2.8082,-2.8082,-2.8431,-2.8471,-2.8471,-2.8483,-2.807,-2.8094,0.0,0.0,0.0,0.0,0.0,0.0,0.0,0.0,0.0,0.0,0.0,0.0,0.0,0.0,0.0,0.0,0.0,0.0,0.0,0.0,0.0,0.0,0.0,0.0,0.0,0.0,0.0,0.0,0.0,0.0,0.0,0.0,0.0,0.0,0.0,0.0,0.0,0.0,0.0,0.0,0.0,-3.0612,-3.0612,-3.0612,-3.0598,0.0,0.0,-3.0568,-3.0582,-3.0582,-3.0582,-3.0612,0.0,0.0,0.0,0.0,0.0,0.0,0.0,0.0,0.0,0.0,0.0,0.0,0.0,0.0,0.0,0.0,0.0,0.0,0.0,0.0,0.0,0.0,0.0,0.0,0.0,0.0,0.0,0.0,0.0,0.0,0.0,0.0,0.0,0.0,0.0,0.0,0.0,0.0,0.0,0.0,0.0,0.0,0.0,0.0,0.0,0.0,0.0,0.0,0.0,0.0,0.0,0.0,0.0,-2.7909,-2.851,-2.8351,-2.8351,-2.851,-2.851,-2.851,-2.851,-2.8351,-2.8351,0.0,0.0,0.0,0.0,0.0,0.0,0.0,0.0,0.0,0.0,0.0,0.0,0.0,0.0,0.0,0.0,0.0,0.0,0.0,0.0,0.0,0.0,0.0,0.0,0.0,0.0,0.0,0.0,-2.7406,-2.7855,-2.8688,0.0,0.0,0.0,0.0,0.0,0.0,0.0,0.0,0.0,0.0,-3.0612,-3.0612,-3.0612,0.0,0.0,-3.1148,-3.1308,-3.1714,-3.1772,-3.1803,-3.1942,-3.1592,0.0,0.0,0.0,0.0,0.0,0.0,0.0,0.0,0.0,0.0,0.0,0.0,0.0,0.0,0.0,0.0,0.0,0.0,0.0,0.0,0.0,0.0,0.0,0.0,0.0,0.0,0.0,0.0,0.0,0.0,0.0,0.0,0.0,0.0,0.0,0.0,0.0,0.0,0.0,0.0,0.0,0.0,0.0,0.0,0.0,0.0,0.0,0.0,0.0,0.0,0.0,0.0,-2.8191,-2.851,-2.851,-2.851,-2.851,-2.851,-2.851,-2.851,-2.851,-2.851,0.0,0.0,0.0,0.0,0.0,0.0,0.0,0.0,0.0,0.0,0.0,0.0,0.0,0.0,0.0,0.0,0.0,0.0,0.0,0.0,0.0,0.0,0.0,0.0,0.0,0.0,0.0,0.0,-2.8006,-2.8495,-2.9243,0.0,0.0,0.0,0.0,0.0,0.0,0.0,0.0,0.0,0.0,-3.1316,-3.1316,-3.1301,-3.1414,-3.182,-3.1862,-3.1975,-3.2408,-3.2481,-3.2559,-3.2686,0.0,0.0,0.0,0.0,0.0,0.0,0.0,0.0,0.0,0.0,0.0,0.0,0.0,0.0,0.0,0.0,0.0,0.0,0.0,0.0,0.0,0.0,0.0,0.0,0.0,0.0,0.0,0.0,0.0,0.0,0.0,0.0,0.0,0.0,0.0,0.0,0.0,0.0,0.0,0.0,0.0,0.0,0.0,0.0,0.0,0.0,0.0,0.0,0.0,0.0,0.0,0.0,0.0,0.0,-2.851,-2.851,-2.851,-2.851,-2.851,-2.851,-2.851,-2.851,-2.851,-2.851,0.0,0.0,0.0,0.0,0.0,0.0,0.0,0.0,0.0,0.0,0.0,0.0,0.0,0.0,0.0,0.0,0.0,0.0,0.0,0.0,0.0,0.0,0.0,0.0,0.0,0.0,-2.8249,-2.9166,-2.9775,0.0,0.0,0.0,0.0,0.0,0.0,0.0,0.0,0.0,0.0,-3.2866,-3.2932,-3.2917,-3.2819,-3.2708,-3.2752,-3.2594,-3.2481,-3.2524,-3.2556,-3.2481,0.0,0.0,0.0,0.0,0.0,0.0,0.0,0.0,0.0,0.0,0.0,0.0,0.0,0.0,0.0,0.0,0.0,0.0,0.0,0.0,0.0,0.0,0.0,0.0,0.0,0.0,0.0,-2.2295,-2.2275,0.0,0.0,0.0,0.0,0.0,0.0,0.0,0.0,0.0,0.0,0.0,-2.4063,-2.4197,0.0,0.0,0.0,0.0,0.0,0.0,0.0,0.0,0.0,0.0,0.0,0.0,-2.851,-2.851,-2.851,-2.851,-2.851,-2.851,-2.851,-2.851,-2.851,-2.851,-2.851,0.0,0.0,0.0,0.0,0.0,0.0,0.0,0.0,0.0,0.0,0.0,0.0,0.0,0.0,0.0,0.0,0.0,0.0,0.0,0.0,0.0,0.0,0.0,0.0,0.0,-2.7881,0.0,0.0,0.0,0.0,0.0,0.0,0.0,0.0,0.0,0.0,0.0,-3.2581,-3.2798,-3.283,-3.2861,-3.2861,-3.2703,-3.2768,0.0,0.0,0.0,0.0,0.0,0.0,0.0,0.0,0.0,0.0,0.0,0.0,0.0,0.0,-3.1453,-3.1438,-3.1467,-3.1524,-3.167,0.0,0.0,0.0,0.0,0.0,0.0,0.0,0.0,0.0,0.0,0.0,0.0,0.0,0.0,0.0,0.0,-2.2595,0.0,0.0,0.0,0.0,0.0,0.0,0.0,0.0,-2.4507,-2.4507,-2.4507,-2.4507,-2.4507,0.0,-2.4572,-2.4754,0.0,0.0,0.0,0.0,0.0,0.0,0.0,0.0,-2.8351,-2.851,-2.851,-2.851,-2.851,-2.851,-2.851,-2.851,-2.851,-2.851,-2.851,-2.851,-2.851,0.0,0.0,0.0,0.0,0.0,0.0,0.0,0.0,0.0,0.0,0.0,0.0,0.0,0.0,0.0,0.0,0.0,0.0,0.0,0.0,0.0,0.0,0.0,-2.8691,0.0,0.0,0.0,0.0,0.0,0.0,0.0,0.0,0.0,-3.2908,-3.3071,-3.3255,-3.3425,-3.3519,-3.3536,-3.36,0.0,0.0,0.0,0.0,0.0,0.0,0.0,-3.4635,-3.4854,-3.4614,-3.427,-3.3807,-3.2795,-3.2094,-3.2183,0.0,0.0,-3.1585,-3.1568,-3.1641,-3.1771,-3.2051,-3.227,-3.2209,-3.243,-3.2606,0.0,0.0,0.0,0.0,0.0,0.0,0.0,0.0,-2.3975,-2.3799,0.0,-2.359,0.0,0.0,0.0,0.0,0.0,0.0,0.0,0.0,-2.4507,-2.4507,-2.4528,-2.4528,-2.4538,-2.4538,-2.4785,-2.4935,-2.4892,-2.4636,0.0,0.0,0.0,0.0,0.0,0.0,-2.8122,-2.851,-2.851,-2.851,-2.851,-2.851,-2.851,-2.851,-2.851,-2.851,-2.851,-2.851,-2.851,-2.851,-2.8855,0.0,0.0,0.0,0.0,0.0,0.0,0.0,0.0,0.0,0.0,0.0,0.0,0.0,0.0,0.0,0.0,0.0,0.0,0.0,0.0,-2.9064,0.0,0.0,0.0,0.0,0.0,0.0,0.0,0.0,0.0,0.0,-3.3638,-3.3859,-3.4209,-3.4629,0.0,0.0,0.0,0.0,-3.4997,-3.5177,-3.5093,-3.4975,-3.4975,-3.4975,-3.499,-3.499,0.0,0.0,-3.4622,-3.3933,-3.3469,-3.3484,-3.3425,-3.3095,-3.1854,-3.1805,-3.192,-3.1964,-3.2632,-3.2986,-3.2479,-3.2867,-3.3224,-2.5128,0.0,0.0,0.0,0.0,-2.4424,-2.4424,-2.4368,-2.4297,-2.4238,-2.4228,-2.4157,0.0,0.0,0.0,0.0,0.0,0.0,-2.4454,-2.4507,-2.4507,-2.4683,-2.4993,-2.4993,-2.5192,-2.5471,-2.5215,-2.5114,-2.5093,-2.4705,-2.5211,-2.6592,0.0,0.0,0.0,0.0,-2.8391,-2.851,-2.851,-2.851,-2.851,-2.851,-2.851,-2.851,-2.851,-2.851,-2.851,-2.851,-2.851,-2.851,-2.8736,0.0,0.0,0.0,0.0,0.0,0.0,0.0,0.0,0.0,0.0,0.0,0.0,0.0,0.0,0.0,0.0,0.0,0.0,0.0,-2.9272,-3.0624,-3.1607,0.0,0.0,0.0,0.0,0.0,0.0,0.0,0.0,0.0,-3.4382,-3.4651,-3.4907,0.0,0.0,-3.5148,-3.518,-3.5433,-3.5661,-3.5695,0.0,0.0,0.0,-3.6306,-3.6374,-3.6526,-3.5919,-3.5365,-3.5235,-3.4262,-3.3499,-3.3514,-3.3499,-3.3395,-3.3246,-3.3156,-3.3261,-3.3379,-3.3678,-3.3703,-3.322,-3.3262,-3.3213,-2.5576,-2.5303,-2.5049,-2.4894,-2.4894,-2.4932,-2.4884,-2.4922,-2.4756,-2.4678,-2.4658,-2.4492,-2.4614,-2.4901,-2.4736,0.0,0.0,0.0,-2.5001,-2.5068,-2.5068,-2.5179,-2.5482,-2.5492,-2.5627,-2.5865,-2.5616,-2.5482,-2.5482,-2.53,-2.5883,-2.7259,0.0,0.0,-2.8244,-2.8404,-2.8674,-2.9095,-2.9136,-2.9136,-2.9136,-2.8931,-2.8727,-2.8522,-2.851,-2.8538,-2.8618,-2.8538,-2.855,-2.8618,-2.8816,-2.8973,0.0,0.0,0.0,0.0,0.0,0.0,0.0,0.0,0.0,0.0,0.0,-2.6967,0.0,0.0,0.0,0.0,-2.8468,-2.9204,-3.0021,-3.1316,0.0,0.0,0.0,0.0,0.0,0.0,0.0,-3.4345,-3.4747,-3.5234,-3.557,-3.5832,-3.5863,-3.5529,-3.55,-3.5589,-3.5956,0.0,-3.6413,-3.6482,-3.6857,-3.7109,-3.7094,-3.7094,-3.7144,-3.7262,-3.6738,-3.6178,-3.5893,-3.5205,-3.4638,-3.4431,-3.4388,-3.4419,-3.4635,-3.4728,-3.4562,-3.4181,-3.4438,-3.4525,-3.3967,-3.4029,-3.4043,-2.5771,-2.5732,-2.5742,-2.5713,-2.5684,-2.5684,-2.5684,-2.5654,-2.5293,-2.5165,-2.5088,-2.4697,-2.4727,-2.5163,-2.5409,0.0,0.0,-2.5518,-2.5715,-2.5885,-2.593,-2.5941,-2.5972,-2.5937,-2.5947,-2.6044,-2.5958,-2.5937,-2.5972,-2.6111,-2.6772,-2.7777,-2.6474,-2.6584,-2.8107,-2.8331,-2.897,-3.0086,-3.0086,-3.0086,-3.0074,-2.9617,-2.9136,-2.8667,-2.8595,-2.865,-2.8837,-2.8602,-2.8578,-2.8764,-2.8973,-2.9104,-2.9143,0.0,0.0,0.0,0.0,0.0,0.0,0.0,0.0,0.0,0.0,0.0,0.0,0.0,0.0,0.0,-2.9232,0.0,-3.03,-3.1495,0.0,0.0,0.0,-3.4428,-3.4486,-3.4486,-3.4787,-3.557,0.0,0.0,0.0,0.0,-3.6847,-3.6197,-3.6064,-3.629,-3.7104,-3.7243,-3.7337,-3.7475,-3.7539,-3.7584,-3.7669,-3.7654,-3.7669,-3.7669,-3.7539,-3.727,-3.6776,-3.6552,-3.6367,-3.5894,-3.5793,-3.5827,-3.6034,-3.607,-3.5829,-3.4651,-3.5047,-3.5383,-3.4767,-3.5013,-3.5197,-2.6523,-2.624,-2.623,-2.6045,-2.5684,-2.5684,-2.5684,-2.5684,-2.5625,-2.5576,-2.5576,-2.5421,-2.5388,-2.5409,-2.5644,-2.5647,-2.5518,-2.5725,-2.584,-2.5885,-2.593,-2.6107,-2.6403,-2.6449,-2.6635,-2.6936,-2.6615,-2.6413,-2.6438,-2.6131,-2.619,-2.6649,-2.7029,-2.8032,-2.9528,-2.9635,-2.9821,-3.0086,-3.0086,-3.0086,-3.0086,-2.9965,-2.9845,-2.9713,-2.9316,-2.9152,-2.9181,-2.8715,-2.851,-2.8578,-2.8882,-2.9104,-2.9104,-2.9546,0.0,0.0,0.0,0.0,0.0,0.0,0.0,0.0,0.0,-2.8242,-2.8505,0.0,-2.884,0.0,-3.0214,-3.1219,-3.2009,-3.2856,0.0,0.0,-3.4211,-3.4603,-3.5116,-3.5174,-3.5407,-3.6031,-3.626,-3.6509,-3.6895,-3.702,-3.7278,-3.7714,-3.7357,-3.7137,-3.7351,-3.7799,-3.8118,-3.8197,-3.8571,-3.8931,-3.885,-3.8895,-3.8901,-3.8945,-3.8512,-3.8108,-3.7958,-3.7509,-3.7169,-3.7008,-3.6688,-3.6564,-3.673,-3.6466,-3.6196,-3.5968,-3.6122,-3.6045,-3.5429,-3.5429,-3.5337,-2.6875,-2.667,-2.667,-2.6533,-2.6279,-2.5849,-2.5684,-2.5684,-2.5684,-2.5684,-2.5684,-2.5684,-2.5741,-2.5801,-2.5992,-2.6145,-2.6212,-2.6403,-2.6532,-2.6542,-2.6496,-2.6677,-2.6926,-2.7253,-2.752,-2.7762,-2.7509,-2.7721,-2.8172,-2.7668,-2.7868,-2.8848,-2.9448,-3.0319,-3.146,-3.0719,-3.0481,-3.0783,-3.0838,-3.0687,-3.0458,-3.0446,-3.0338,-3.0086,-2.9581,-2.9333,-2.9443,-2.8907,-2.8657,-2.8788,-2.904,-2.9236,-2.9236,-2.9573,-2.9779,0.0,0.0,0.0,0.0,0.0,0.0,0.0,0.0,0.0,0.0,0.0,-2.9624,0.0,-3.1142,0.0,-3.2889,-3.3479,-3.4057,-3.4772,-3.4835,-3.5082,-3.5706,-3.5828,-3.6075,-3.6678,-3.6823,-3.7119,-3.767,-3.7807,-3.8103,-3.876,-3.8542,-3.8302,-3.8332,-3.8631,-3.8841,-3.8871,-3.917,-3.9388,-3.9388,-3.9388,-3.9388,-3.9358,-3.911,-3.8766,-3.8452,-3.8093,-3.7783,-3.7567,-3.7289,-3.7231,-3.7466,-3.7323,-3.7177,-3.732,-3.7384,-3.7138,-3.6553,-3.6368,-3.6245,-2.7148,-2.71,-2.71,-2.707,-2.6963,-2.6161,-2.582,-2.5771,-2.5771,-2.5742,-2.5684,-2.5732,-2.5927,-2.6149,-2.6448,-2.6699,-2.6948,-2.7214,-2.732,-2.732,-2.732,-2.732,-2.7309,-2.7978,-2.834,-2.834,-2.8404,-2.9067,-3.0209,-2.9613,-3.0252,-3.1982,-3.2077,-3.2477,-3.3038,-3.1628,-3.1133,-3.1769,-3.1753,-3.1476,-3.1031,-3.0975,-3.0759,-3.0302,-2.9785,-2.9542,-2.9638,-2.918,-2.8955,-2.9052,-2.9275,-2.938,-2.938,-2.965,-2.9779,0.0,-2.9779,0.0,0.0,0.0,0.0,0.0,0.0,0.0,0.0,-2.9733,-3.0485,-3.1576,-3.2019,-3.2561,-3.3234,-3.3667,-3.4241,-3.5134,-3.5348,-3.5639,-3.6228,-3.6388,-3.6693,-3.7346,-3.7418,-3.7769,-3.8627,-3.8782,-3.8929,-3.9256,-3.9298,-3.9254,-3.9343,-3.9328,-3.9328,-3.9388,-3.9388,-3.9388,-3.9388,-3.9388,-3.9388,-3.9388,-3.9358,-3.9164,-3.8661,-3.8542,-3.8417,-3.8041,-3.7899,-3.7945,-3.8217,-3.8208,-3.8216,-3.8335,-3.8444,-3.8369,-3.7769,-3.7569,-3.76,-2.7851,-2.7549,-2.7539,-2.7344,-2.7002,-2.6846,-2.6582,-2.6269,-2.6269,-2.6064,-2.5742,-2.5907,-2.6149,-2.6448,-2.6699,-2.6986,-2.7214,-2.7262,-2.732,-2.732,-2.732,-2.732,-2.733,-2.7769,-2.7994,-2.8015,-2.8369,-2.9031,-2.9889,-2.9753,-3.0235,-3.1278,-3.1447,-3.1821,-3.2395,0.0,0.0,0.0,-3.1946,-3.1657,-3.156,-3.156,-3.1512,-3.1404,-3.0898,0.0,-3.0025,-2.9658,-2.9241,-2.8907,-2.9197,0.0,0.0,0.0,0.0,0.0,0.0,0.0,0.0,0.0,0.0,0.0,-3.019,-3.0339,-3.0598,-3.0998,-3.1473,-3.1969,-3.2668,-3.3129,-3.3269,-3.3908,-3.4356,-3.4554,-3.5053,-3.5639,-3.6243,-3.6794,-3.736,-3.7955,-3.8028,-3.8206,-3.8679,-3.8782,-3.8943,-3.9316,-3.9388,-3.9388,-3.9388,-3.9388,-3.9388,-3.9388,-3.9388,-3.9388,-3.9388,-3.9388,-3.9388,-3.9388,-3.9388,-3.9328,-3.9194,-3.92,-3.9215,-3.9011,-3.8777,-3.8506,-3.8594,-3.8394,-3.8305,-3.8246,-3.8839,-3.9123,-3.8462,-3.8323,-3.8169,-2.8164,0.0,-2.7978,-2.7851,0.0,-2.7646,-2.7402,-2.7002,-2.6787,-2.6582,-2.6367,-2.6646,-2.6883,-2.715,-2.7435,-2.768,-2.7914,-2.7696,-2.7707,-2.7914,-2.7696,-2.7707,-2.7983,-2.8533,-2.8785,-2.8785,-2.9127,-2.9883,-3.0845,-3.0934,-3.1371,-3.2182,-3.2524,-3.2723,-3.2723,-3.2572,-3.2503,-3.2503,-3.2226,-3.2082,-3.2138,-3.2322,-3.2334,-3.2126,0.0,0.0,0.0,0.0,0.0,0.0,0.0,0.0,0.0,0.0,0.0,-2.9779,-2.9779,-2.9779,-2.9792,-2.996,-3.0113,-3.0113,-3.0625,-3.0995,-3.1149,-3.1556,-3.1982,-3.2381,-3.2938,-3.3501,-3.4009,-3.4554,-3.514,-3.5749,-3.6127,-3.6562,-3.7157,-3.7535,-3.7854,-3.8115,-3.8202,-3.8352,-3.8745,-3.8782,-3.898,-3.9352,-3.9388,-3.9388,-3.9388,-3.9388,-3.9388,-3.9388,-3.9388,-3.9388,-3.9388,-3.9388,-3.9388,-3.9388,-3.9388,-3.9388,-3.9388,-3.9388,-3.9388,-3.9409,-3.9197,-3.9093,-3.9169,-3.9107,-3.9101,-3.9253,-3.9634,-3.989,-3.9505,-3.9213,-3.8939,-2.8359,-2.8301,-2.8301,-2.8301,-2.8301,-2.8301,-2.8096,-2.7796,0.0,0.0,0.0,-2.7247,-2.7461,-2.7643,-2.7934,-2.8143,-2.8309,-2.802,-2.8131,-2.8473,-2.81,-2.8121,-2.8483,-2.9105,-2.94,-2.94,-2.9693,-3.0506,-3.1756,-3.188,-3.2362,-3.3251,-3.3621,-3.3561,-3.3152,-3.2719,-3.2551,-3.2635,-3.2551,-3.2503,-3.2515,-3.302,-3.3032,-3.2515,-3.2142,-3.1657,-3.0977,-3.054,-3.0237,-2.9982,-2.9945,-2.9892,-2.9804,-2.9779,-2.9779,-2.9792,-2.9892,-2.993,-2.9942,-3.0212,-3.0367,-3.0405,-3.1203,-3.1603,-3.147,-3.2018,-3.2586,-3.2985,-3.3451,-3.4066,-3.4882,-3.5307,-3.5988,-3.7027,-3.7244,-3.7491,-3.7941,-3.8159,-3.8188,-3.8202,-3.824,-3.8375,-3.8745,-3.8833,-3.898,-3.9301,-3.9388,-3.9388,-3.9388,-3.9388,-3.9388,-3.9388,-3.9388,-3.9388,-3.9388,-3.9388,-3.9388,-3.9388,-3.9388,-3.9388,-3.9388,-3.9388,-3.9388,-3.9388,-3.9388,-3.943,-3.961,-3.9778,-4.0046,-4.0191,-4.0366,-4.0489,-4.0443,-4.0059,-3.9628,-2.8623,-2.8301,-2.8301,-2.8301,-2.8301,-2.8301,-2.8252,-2.8144,-2.7363,-2.7012,-2.7012,-2.7298,-2.7251,-2.6943,-2.7399,-2.7431,-2.7163,-2.7693,-2.7966,0.0,-2.7906,-2.7955,-2.8017,-2.8115,-2.8164,-2.8195,-2.8619,-2.9578,-3.0942,-3.1105,-3.1825,-3.3097,-3.2911,-3.2695,-3.2611,-3.2539,-3.2719,-3.3152,-3.2743,-3.2503,-3.2515,-3.302,-3.3032,-3.2551,-3.2863,-3.2436,-3.1217,-3.1663,-3.141,-3.0323,-3.0413,-3.0294,-2.9829,-2.9804,-2.9779,-2.9817,-3.0244,-3.0495,-3.0507,-3.0949,-3.1334,-3.1549,-3.2107,-3.2332,-3.2039,-3.3022,-3.3826,-3.4203,-3.4837,-3.5395,-3.5568,-3.5956,-3.6272,-3.6504,-3.6983,-3.736,-3.7506,-3.7912,-3.8202,-3.8202,-3.8352,-3.8553,-3.876,-3.8943,-3.909,-3.9337,-3.9388,-3.9388,-3.9388,-3.9388,-3.9388,-3.9388,-3.9388,-3.9388,-3.9388,-3.9388,-3.9388,-3.9388,-3.9388,-3.9388,-3.9388,-3.9388,-3.9388,-3.9409,-3.9424,-3.9409,-3.9481,-3.9747,-3.996,-4.0031,-4.0261,-4.047,-4.047,-4.0366,-4.0136,-2.8809,-2.8613,-2.8389,-2.8301,-2.8301,-2.8301,-2.8301,-2.8262,-2.7891,-2.7715,-2.7757,-2.7966,-2.8014,-2.7887,-2.8175,-2.8249,-2.7992,-2.8031,-2.8148,-2.8276,-2.7989,-2.801,-2.8286,-2.8297,-2.8382,-2.868,-2.9017,-2.9913,-3.1209,-3.169,-3.2218,-3.2795,-3.2322,-3.2046,-3.207,-3.2346,-3.2623,-3.2863,-3.2899,-3.3056,-3.3332,-3.3849,-3.3741,-3.2959,-3.3428,-3.3172,-3.211,-3.2201,-3.2105,-3.1617,-3.1238,-3.0922,-3.067,-3.0658,-3.0658,-3.0658,-3.0896,-3.1035,-3.1035,-3.126,-3.1521,-3.1777,-3.2397,-3.2744,-3.2737,-3.3677,-3.4413,-3.4854,-3.5396,-3.5868,-3.6182,-3.6583,-3.6983,-3.7302,-3.7622,-3.7781,-3.7825,-3.8014,-3.8202,-3.8202,-3.8277,-3.8478,-3.8797,-3.887,-3.9053,-3.9301,-3.9388,-3.9388,-3.9388,-3.9388,-3.9388,-3.9388,-3.9388,-3.9388,-3.9403,-3.9388,-3.9388,-3.9388,-3.9388,-3.9388,-3.9388,-3.9388,-3.946,-3.9517,-3.9481,-3.9445,-3.9517,-3.9681,-3.9803,-3.9839,-4.0031,-4.0226,-4.0331,-4.0436,-4.0382,-2.9095,-2.8914,-2.8721,-2.8584,-2.8564,-2.8476,-2.8428,-2.8428,-2.833,-2.8301,-2.8301,-2.8514,-2.8572,-2.8483,-2.8833,-2.8854,-2.8665,-2.8503,-2.852,-2.8587,-2.8245,-2.8214,-2.8421,-2.8458,-2.8645,-2.905,-2.9484,-3.0316,-3.1388,-3.2252,-3.2704,-3.2652,-3.2283,-3.2078,-3.2046,-3.2454,-3.2731,-3.2863,-3.3248,-3.3657,-3.3982,-3.451,-3.4378,-3.3573,-3.391,-3.3858,-3.3125,-3.2808,-3.2709,-3.2729,-3.2031,-3.1524,-3.1399,-3.1386,-3.1386,-3.1399,-3.1499,-3.1637,-3.1763,-3.1775,-3.1899,-3.2158,-3.2746,-3.3238,-3.3623,-3.4362,-3.4979,-3.5372,-3.5863,-3.6382,-3.6908,-3.7284,-3.7709,-3.8144,-3.8202,-3.8173,-3.8202,-3.8202,-3.8202,-3.8202,-3.824,-3.8389,-3.8649,-3.8833,-3.8995,-3.925,-3.9388,-3.9388,-3.9352,-3.9352,-3.9388,-3.9388,-3.9388,-3.9478,-3.9538,-3.9627,-3.9753,-3.9798,-3.9753,-3.9723,-3.9627,-3.9574,-3.9445,-3.9553,-3.9553,-3.9568,-3.9646,-3.9768,-3.9768,-3.9818,-3.998,-4.0172,-4.0331,-4.0436,-4.0489,-2.9674,-2.9196,-2.9332,-2.9453,-2.9365,-2.9014,-2.8838,-2.8779,-2.8467,-2.8301,-2.8291,-2.8344,-2.8149,-2.7911,-2.8381,-2.8347,-2.8016,-2.8819,-2.8971,-2.8649,-2.8576,-2.8359,-2.8066,-2.8084,-2.8046,-2.8265,-2.9359,-3.0356,-3.1169,-3.1951,-3.263,-3.3178,-3.3164,-3.3104,-3.3174,-3.3188,-3.3428,-3.3838,-3.391,-3.3946,-3.4018,-3.451,-3.451,-3.3958,-3.4426,-3.4449,-3.3882,-3.3887,-3.3575,-3.3057,-3.2491,-3.1926,-3.1486,-3.1399,-3.1411,-3.1436,-3.1863,-3.2365,-3.2885,-3.296,-3.2995,-3.3246,-3.3445,-3.3862,-3.4446,-3.5346,-3.5853,-3.6036,-3.6806,-3.7434,-3.7767,-3.7951,-3.8101,-3.8173,-3.8202,-3.8202,-3.8202,-3.8202,-3.8202,-3.8202,-3.8329,-3.8478,-3.8553,-3.8833,-3.9053,-3.909,-3.9228,-3.9301,-3.9192,-3.9265,-3.9388,-3.9388,-3.9388,-3.9627,-4.0038,-4.0277,-4.0322,-4.0816,-4.0621,-4.0262,-4.0083,-3.9813,-3.9454,-3.9892,-3.9643,-3.973,-3.9807,-3.9839,-3.9925,-3.9889,-4.0016,-4.0296,-4.0436,-4.0489,-4.0489,-2.9937,-2.9544,-2.9565,-2.9414,-2.917,-2.8984,-2.8769,-2.8535,-2.8369,-2.8301,-2.8301,-2.8301,-2.8193,-2.809,-2.847,-2.8483,-2.8288,-2.8819,-2.891,-2.8588,-2.8618,-2.8504,-2.8367,-2.869,-2.9034,-2.9487,-3.0297,-3.1334,-3.2406,-3.304,-3.3434,-3.3646,-3.344,-3.3284,-3.3308,-3.3585,-3.3837,-3.3982,-3.4294,-3.445,-3.4523,-3.486,-3.4727,-3.4162,-3.4691,-3.4787,-3.4295,-3.4384,-3.4259,-3.3819,-3.3421,-3.2955,-3.2416,-3.2432,-3.239,-3.2403,-3.2591,-3.2817,-3.3111,-3.3124,-3.321,-3.3386,-3.3598,-3.3882,-3.4314,-3.5018,-3.5521,-3.5804,-3.694,-3.7815,-3.7891,-3.8066,-3.8202,-3.8202,-3.8202,-3.8202,-3.8202,-3.8202,-3.8202,-3.8202,-3.8277,-3.8404,-3.8516,-3.876,-3.8907,-3.8943,-3.9017,-3.9068,-3.9104,-3.9192,-3.9265,-3.9388,-3.9388,-3.9478,-3.9813,-3.9828,-4.0008,-4.0127,-4.0008,-3.9888,-4.0277,-4.0232,-4.0134,-4.0553,-4.0259,-4.0136,-4.0314,-3.9836,-3.964,-3.9711,-3.9925,-4.0137,-4.0207,-4.0366,-4.047,-3.0093,-2.9892,-2.9878,-2.9678,-2.9258,-2.9141,-2.8857,-2.8467,-2.834,-2.8301,-2.8301,-2.8301,-2.8369,-2.8491,-2.8734,-2.875,-2.8689,-2.9033,-2.9055,-2.8835,-2.8804,-2.8752,-2.8678,-2.9165,-2.9757,-3.0432,-3.1213,-3.2374,-3.3665,-3.3919,-3.4066,-3.4055,-3.3791,-3.367,-3.3741,-3.409,-3.421,-3.4246,-3.4607,-3.4775,-3.4811,-3.5126,-3.4932,-3.4378,-3.4872,-3.5041,-3.4759,-3.4801,-3.4691,-3.4409,-3.4097,-3.3646,-3.3119,-3.3124,-3.3124,-3.3124,-3.3124,-3.3124,-3.3124,-3.3124,-3.3197,-3.3398,-3.3598,-3.381,-3.416,-3.4784,-3.5318,-3.575,-3.694,-3.7701,-3.7777,-3.8028,-3.8202,-3.8202,-3.8202,-3.8202,-3.8202,-3.8202,-3.8202,-3.8202,-3.8202,-3.8277,-3.8478,-3.8627,-3.8723,-3.8723,-3.8797,-3.8833,-3.898,-3.9053,-3.9177,-3.9352,-3.9388,-3.9493,-3.9634,-3.9798,-3.9723,-3.9873,-3.9993,-3.9963,-4.0262,-4.0262,-4.0127,-4.0096,-4.0216,-4.0259,-4.0127,-3.9739,-3.9496,-3.9517,-3.9696,-3.996,-4.0137,-4.0296,-4.0436,-3.0187,-3.0011,-3.0587,-3.0518,-3.0107,-2.9707,-2.9297,-2.8877,-2.8496,-2.832,-2.8359,-2.835,-2.8525,-2.8912,-2.9073,-2.9099,-2.9164,-2.9679,-2.9735,-2.9384,-2.9311,-2.9042,-2.8688,-2.9116,-2.9728,-3.0418,-3.1759,-3.307,-3.4262,-3.4176,-3.4176,-3.4362,-3.4351,-3.446,-3.4631,-3.4655,-3.4727,-3.4691,-3.4751,-3.4775,-3.4872,-3.532,-3.5295,-3.4812,-3.5054,-3.5295,-3.5402,-3.5032,-3.4774,-3.4705,-3.4191,-3.3671,-3.3169,-3.3124,-3.3124,-3.3124,-3.3124,-3.3136,-3.3149,-3.3136,-3.3222,-3.3411,-3.3624,-3.381,-3.4118,-3.4867,-3.5548,-3.6189,-3.6886,-3.738,-3.7419,-3.7915,-3.8202,-3.8202,-3.8202,-3.8202,-3.8202,-3.8202,-3.8202,-3.8202,-3.8202,-3.8277,-3.8478,-3.8516,-3.8516,-3.8553,-3.8686,-3.8819,-3.887,-3.8995,-3.9177,-3.9352,-3.9433,-3.9619,-4.0187,-4.0053,-4.0397,-4.0487,-4.0113,-4.0262,-4.0127,-3.9978,-3.9783,-3.9685,-3.9877,-3.9935,-3.9781,-3.9711,-3.9625,-3.9646,-3.9661,-3.9839,-4.0031,-4.0207,-4.0296,-3.046,-3.0596,-3.0772,-3.0625,-3.0195,-3.0029,-2.9726,-2.9336,-2.918,-2.9111,-2.9166,-2.9111,-2.9189,-2.9372,-2.9794,-2.9987,-3.0041,-3.0604,-3.0791,-3.0605,-3.0336,-3.0098,-2.9984,-3.0199,-3.0755,-3.1616,-3.254,-3.3534,-3.4507,-3.4396,-3.4396,-3.4628,-3.464,-3.4726,-3.4775,-3.4775,-3.4775,-3.4775,-3.4775,-3.4775,-3.4823,-3.532,-3.532,-3.4872,-3.5416,-3.562,-3.5368,-3.5471,-3.5422,-3.5014,-3.4635,-3.4173,-3.3646,-3.3269,-3.3124,-3.3124,-3.3124,-3.3232,-3.3508,-3.3282,-3.3361,-3.3824,-3.3747,-3.3797,-3.416,-3.4867,-3.5521,-3.5857,-3.673,-3.7264,-3.7404,-3.7825,-3.8202,-3.8202,-3.8202,-3.8202,-3.8202,-3.8202,-3.8202,-3.8202,-3.8202,-3.824,-3.8277,-3.8329,-3.8366,-3.8478,-3.859,-3.8738,-3.8958,-3.9068,-3.9222,-3.9367,-3.9403,-3.9649,-4.0292,-3.9978,-3.9843,-3.9918,-3.9873,-4.0038,-4.0023,-4.0098,-3.9993,-4.0187,-4.0192,-3.9937,-3.9899,-3.9658,-3.9613,-3.9538,-3.9589,-3.9732,-3.9874,-4.0016,-4.0086,-3.0518,-3.0889,-3.0898,-3.0615,-3.0225,-3.0205,-2.9951,-2.959,-2.958,-2.958,-2.9626,-2.958,-2.9695,-2.9868,-3.0448,-3.0771,-3.0954,-3.124,-3.1381,-3.135,-3.106,-3.0822,-3.0753,-3.0769,-3.1297,-3.2229,-3.3012,-3.3831,-3.4543,-3.4249,-3.4286,-3.4628,-3.4592,-3.464,-3.4775,-3.4775,-3.4775,-3.4775,-3.4775,-3.4775,-3.4872,-3.532,-3.5416,-3.5126,-3.5704,-3.5908,-3.5368,-3.5764,-3.5802,-3.536,-3.4936,-3.4387,-3.3696,-3.3282,-3.3124,-3.3136,-3.3257,-3.3495,-3.3796,-3.362,-3.3712,-3.4247,-3.4016,-3.3937,-3.4243,-3.4729,-3.5223,-3.5736,-3.6375,-3.7042,-3.7572,-3.7976,-3.8202,-3.8202,-3.8202,-3.8202,-3.8202,-3.8202,-3.8202,-3.8202,-3.8202,-3.8202,-3.8202,-3.824,-3.8366,-3.8478,-3.8567,-3.8782,-3.9283,-3.9431,-3.9609,-3.9956,-4.0127,-4.0337,-4.0696,-4.0591,-4.0172,-4.0142,-3.9792,-3.9933,-4.0068,-4.0172,-4.0292,-4.0576,-4.0516,-4.0217,-3.9948,-3.9679,-3.9529,-3.9439,-3.9481,-3.9589,-3.9732,-3.9803,-3.991,-3.0294,-3.0889,-3.0898,-3.0644,-3.0293,-3.0273,-3.0,-2.9773,-2.9724,-2.9783,-2.9756,-2.9714,-2.9912,-3.026,-3.0841,-3.1345,-3.161,-3.1568,-3.1526,-3.1505,-3.1412,-3.1143,-3.0814,-3.071,-3.1147,-3.2077,-3.3158,-3.3915,-3.4335,-3.3817,-3.3817,-3.4298,-3.431,-3.4445,-3.4775,-3.4775,-3.4775,-3.4775,-3.4775,-3.4775,-3.4872,-3.5332,-3.5476,-3.5271,-3.593,-3.6133,-3.5668,-3.5872,-3.5874,-3.5524,-3.5031,-3.4236,-3.3458,-3.3287,-3.3156,-3.3294,-3.3621,-3.3884,-3.396,-3.4085,-3.4203,-3.4553,-3.431,-3.416,-3.4314,-3.4522,-3.5005,-3.5884,-3.6387,-3.6858,-3.7848,-3.8165,-3.8202,-3.8202,-3.8202,-3.8202,-3.8202,-3.8202,-3.8202,-3.8202,-3.8202,-3.8202,-3.8269,-3.8446,-3.8616,-3.8816,-3.8965,-3.9298,-3.9981,-4.0159,-4.0479,-4.1017,-4.107,-4.1025,-4.1242,-4.1362,-4.095,-4.0591,-4.0142,-3.9948,-4.0098,-4.0217,-4.0157,-4.0337,-4.0023,-3.9753,-3.9702,-3.9463,-3.9448,-3.9424,-3.9445,-3.9481,-3.9589,-3.9661,-3.9732,-3.0284,-3.0889,-3.0898,-3.082,-3.0674,-3.0674,-3.0586,-3.0488,-3.0478,-3.0488,-3.0478,-3.0478,-3.0557,-3.0808,-3.1309,-3.1647,-3.1815,-3.2122,-3.2302,-3.224,-3.1971,-3.1588,-3.1164,-3.0886,-3.1169,-3.2042,-3.3158,-3.3866,-3.4064,-3.3927,-3.4052,-3.4335,-3.4543,-3.464,-3.4775,-3.4775,-3.4775,-3.4775,-3.4775,-3.4775,-3.4823,-3.532,-3.5464,-3.532,-3.5978,-3.6228,-3.592,-3.6133,-3.6188,-3.6081,-3.5579,-3.4906,-3.4349,-3.4223,-3.4211,-3.4223,-3.4361,-3.4663,-3.4876,-3.4546,-3.4514,-3.4835,-3.4504,-3.4224,-3.4439,-3.4839,-3.5249,-3.579,-3.6415,-3.7236,-3.7558,-3.7991,-3.8165,-3.8202,-3.8202,-3.8202,-3.8202,-3.8202,-3.8202,-3.8202,-3.8202,-3.8391,-3.8754,-3.8946,-3.9215,-3.9853,-4.0026,-4.0326,-4.0807,-4.0942,-4.0995,-4.1354,-4.1414,-4.1698,-4.1908,-4.1953,-4.1683,-4.1354,-4.0891,-4.0382,-4.0427,-4.0442,-4.0337,-4.0016,-3.9672,-3.9448,-3.9418,-3.9388,-3.9388,-3.9388,-3.9424,-3.946,-3.9496,-3.9532,-3.9604,-3.0284,-3.0889,-3.0898,-3.0898,-3.0898,-3.0898,-3.0898,-3.0898,-3.0898,-3.0898,-3.0889,-3.0889,-3.0898,-3.1005,-3.1392,-3.1682,-3.1845,-3.2326,-3.2612,-3.2607,-3.2194,-3.1795,-3.1428,-3.1062,-3.1115,-3.1826,-3.2835,-3.3545,-3.3904,-3.3965,-3.4162,-3.4494,-3.4628,-3.4677,-3.4775,-3.4763,-3.4715,-3.4534,-3.4474,-3.4486,-3.4583,-3.4931,-3.5208,-3.5379,-3.5943,-3.6181,-3.6146,-3.6323,-3.6417,-3.6317,-3.5843,-3.5257,-3.4743,-3.4668,-3.468,-3.4718,-3.4868,-3.5056,-3.5165,-3.4844,-3.4729,-3.4943,-3.4551,-3.4428,-3.4701,-3.5198,-3.5405,-3.5818,-3.636,-3.6888,-3.6982,-3.7481,-3.7825,-3.7877,-3.8104,-3.8202,-3.8202,-3.8202,-3.8202,-3.8202,-3.8202,-3.8536,-3.8986,-3.9319,-3.9644,-4.0426,-4.0719,-4.105,-4.1409,-4.1628,-4.1712,-4.1899,-4.2252,-4.2491,-4.2641,-4.2566,-4.2387,-4.2102,-4.1788,-4.1309,-4.107,-4.104,-4.095,-4.0353,-3.9949,-3.9584,-3.951,-3.9433,-3.9388,-3.9388,-3.9388,-3.9424,-3.946,-3.9424,-3.9496,-3.0284,-3.083,-3.0889,-3.0898,-3.0898,-3.0898,-3.0898,-3.0898,-3.0898,-3.0898,-3.0898,-3.0898,-3.0898,-3.0947,-3.1218,-3.1508,-3.1797,-3.2133,-3.2487,-3.2535,-3.2199,-3.1692,-3.1304,-3.1148,-3.1107,-3.1351,-3.2297,-3.3012,-3.3461,-3.3656,-3.4064,-3.4592,-3.4531,-3.4531,-3.4726,-3.4775,-3.4546,-3.4126,-3.4042,-3.4054,-3.4054,-3.4327,-3.4759,-3.5402,-3.5713,-3.5901,-3.5965,-3.6047,-3.6194,-3.6219,-3.5717,-3.5157,-3.4781,-3.468,-3.468,-3.4693,-3.5169,-3.5082,-3.4909,-3.499,-3.5027,-3.4661,-3.4532,-3.462,-3.5015,-3.5083,-3.5336,-3.5742,-3.6045,-3.6185,-3.6379,-3.6833,-3.7173,-3.7327,-3.7825,-3.8165,-3.8202,-3.8202,-3.8202,-3.8202,-3.8231,-3.8449,-3.9088,-3.9343,-3.9726,-4.028,-4.0602,-4.1032,-4.1483,-4.1778,-4.2332,-4.2574,-4.2667,-4.2916,-4.2961,-4.2985,-4.2776,-4.2342,-4.2177,-4.1968,-4.1609,-4.1496,-4.1084,-4.0539,-4.007,-3.9735,-3.9533,-3.939,-3.9388,-3.9388,-3.9388,-3.9388,-3.9388,-3.9388,-3.9388,-3.0167,-3.0567,-3.083,-3.0898,-3.0898,-3.0898,-3.0898,-3.0898,-3.0898,-3.0898,-3.0898,-3.0898,-3.0898,-3.0947,-3.116,-3.1508,-3.1787,-3.2133,-3.243,-3.2535,-3.1888,-3.1319,-3.1004,-3.0895,-3.0888,-3.1043,-3.1953,-3.2561,-3.2762,-3.3408,-3.3927,-3.4261,-3.4396,-3.4531,-3.4726,-3.4775,-3.4498,-3.4066,-3.3994,-3.397,-3.3994,-3.4183,-3.4481,-3.4698,-3.4983,-3.4962,-3.473,-3.4831,-3.5194,-3.5646,-3.5194,-3.4843,-3.4705,-3.468,-3.468,-3.4718,-3.4839,-3.4901,-3.4778,-3.4793,-3.4763,-3.4627,-3.4471,-3.4463,-3.4593,-3.4646,-3.4716,-3.4954,-3.5285,-3.5628,-3.5737,-3.6203,-3.6506,-3.6702,-3.7453,-3.8127,-3.8165,-3.8202,-3.8202,-3.8202,-3.8202,-3.8522,-3.8986,-3.9271,-3.9605,-4.0232,-4.0515,-4.0676,-4.1165,-4.1499,-4.1903,-4.2312,-4.2525,-4.2932,-4.3205,-4.326,-4.3075,-4.2551,-4.244,-4.2447,-4.2079,-4.1808,-4.1075,-4.0285,-3.9943,-3.9616,-3.9422,-3.928,-3.9316,-3.9388,-3.9388,-3.9388,-3.9388,-3.9388,-3.9388,-3.0098,-3.0441,-3.0762,-3.0898,-3.0898,-3.0898,-3.0898,-3.0898,-3.0898,-3.0898,-3.0898,-3.0898,-3.0898,-3.0947,-3.1054,-3.1392,-3.1777,-3.2018,-3.2315,-3.2525,-3.1805,-3.106,-3.0587,-3.0433,-3.0443,-3.0599,-3.1556,-3.2055,-3.242,-3.3208,-3.3817,-3.42,-3.4347,-3.4519,-3.4775,-3.4751,-3.439,-3.3861,-3.3717,-3.3633,-3.3416,-3.3532,-3.3829,-3.3973,-3.4232,-3.4188,-3.4148,-3.4107,-3.4367,-3.4911,-3.4856,-3.468,-3.468,-3.468,-3.468,-3.468,-3.468,-3.465,-3.4463,-3.4488,-3.4451,-3.4324,-3.4289,-3.4552,-3.4737,-3.4776,-3.4776,-3.49,-3.5154,-3.5188,-3.5153,-3.5535,-3.6004,-3.6348,-3.6975,-3.7529,-3.7787,-3.8052,-3.8165,-3.8202,-3.8246,-3.8449,-3.9102,-3.9175,-3.9547,-4.0086,-4.0275,-4.0461,-4.0705,-4.0984,-4.1268,-4.1612,-4.1848,-4.209,-4.2242,-4.2296,-4.2369,-4.2004,-4.1848,-4.2058,-4.1906,-4.1605,-4.0969,-4.0189,-3.9847,-3.9504,-3.9275,-3.9192,-3.9352,-3.9388,-3.9388,-3.9388,-3.9388,-3.9388,-3.9388,-3.0098,-3.0382,-3.0762,-3.0859,-3.0801,-3.082,-3.0723,-3.0732,-3.0664,-3.0674,-3.0674,-3.0723,-3.0625,-3.0762,-3.0634,-3.105,-3.1539,-3.1516,-3.1905,-3.1978,-3.1567,-3.0833,-3.0139,-3.0088,-3.0099,-3.0256,-3.1105,-3.1659,-3.2179,-3.3108,-3.3866,-3.42,-3.4335,-3.4531,-3.4726,-3.4763,-3.4258,-3.3525,-3.338,-3.314,-3.2791,-3.2741,-3.3001,-3.3334,-3.3295,-3.357,-3.374,-3.371,-3.3712,-3.4422,-3.4517,-3.4449,-3.4442,-3.4467,-3.45,-3.4437,-3.4361,-3.4223,-3.3966,-3.4152,-3.4246,-3.3879,-3.4144,-3.4565,-3.4891,-3.4956,-3.4999,-3.4972,-3.5182,-3.4913,-3.4682,-3.4977,-3.5413,-3.583,-3.611,-3.652,-3.7042,-3.762,-3.8014,-3.8089,-3.8089,-3.8393,-3.8855,-3.9146,-3.9276,-3.9353,-3.9557,-3.962,-3.9813,-4.01,-4.0363,-4.066,-4.084,-4.0953,-4.1113,-4.119,-4.1299,-4.1196,-4.0988,-4.104,-4.101,-4.0747,-4.0486,-4.0062,-3.9565,-3.9246,-3.9017,-3.9068,-3.9301,-3.9388,-3.9388,-3.9388,-3.9388,-3.9388,-3.9388,-2.9931,-3.0049,-3.0645,-3.0674,-3.0381,-3.0342,-3.0166,-2.9893,-2.9883,-2.9988,-2.9873,-2.9873,-2.9893,-2.9893,-2.9988,-3.0069,-3.0551,-3.0756,-3.0923,-3.1047,-3.0988,-3.0532,-3.0077,-2.9994,-2.9994,-3.0245,-3.1105,-3.1618,-3.1986,-3.2857,-3.3679,-3.4113,-3.4211,-3.4408,-3.4726,-3.4739,-3.4318,-3.3477,-3.3284,-3.3008,-3.2563,-3.2454,-3.2548,-3.2714,-3.2376,-3.2414,-3.2732,-3.2721,-3.2797,-3.309,-3.3339,-3.3527,-3.3514,-3.352,-3.3545,-3.3558,-3.3508,-3.342,-3.3368,-3.3541,-3.3636,-3.3607,-3.3907,-3.4212,-3.4331,-3.4549,-3.462,-3.4593,-3.4593,-3.4567,-3.4478,-3.4522,-3.4758,-3.4991,-3.5318,-3.5656,-3.5871,-3.6401,-3.7028,-3.7352,-3.7534,-3.7744,-3.8307,-3.8417,-3.8504,-3.86,-3.8667,-3.8676,-3.8908,-3.9252,-3.9507,-3.9762,-3.9977,-4.0118,-4.0285,-4.037,-4.0403,-4.0375,-4.0196,-4.0107,-4.0077,-4.0048,-3.9862,-3.9558,-3.9224,-3.8973,-3.8833,-3.9068,-3.9352,-3.9388,-3.9388,-3.9388,-3.9388,-3.9388,-3.9388,-2.9922,-2.9962,-3.0364,-3.042,-3.0185,-2.998,-2.9775,-2.96,-2.958,-2.958,-2.958,-2.958,-2.958,-2.958,-2.9626,-2.9803,-3.0258,-3.0691,-3.086,-3.0812,-3.0677,-3.0429,-3.0077,-3.0047,-3.0088,-3.0443,-3.1208,-3.1669,-3.2179,-3.2807,-3.358,-3.4075,-3.4064,-3.4359,-3.4726,-3.4763,-3.427,-3.3501,-3.3272,-3.2935,-3.225,-3.2118,-3.2106,-3.2094,-3.1874,-3.1937,-3.2381,-3.2281,-3.2431,-3.2624,-3.281,-3.2896,-3.2896,-3.2909,-3.2982,-3.3081,-3.3124,-3.3124,-3.3167,-3.3283,-3.3454,-3.3556,-3.3907,-3.4076,-3.4202,-3.4356,-3.4397,-3.4397,-3.441,-3.4397,-3.4397,-3.4397,-3.4397,-3.4439,-3.4729,-3.4936,-3.51,-3.5964,-3.6716,-3.6925,-3.712,-3.7404,-3.7672,-3.7787,-3.8028,-3.8231,-3.8344,-3.8315,-3.8391,-3.8676,-3.8743,-3.8935,-3.9139,-3.9317,-3.9522,-3.9599,-3.9564,-3.9506,-3.938,-3.9328,-3.9306,-3.9299,-3.9291,-3.9047,-3.8914,-3.8936,-3.887,-3.9156,-3.9352,-3.9388,-3.9388,-3.9388,-3.9388,-3.9388,-3.9388,-2.9922,-2.9903,-3.0228,-3.0234,-3.0049,-2.9783,-2.9482,-2.9346,-2.943,-2.9268,-2.9375,-2.943,-2.9248,-2.9336,-2.9316,-2.9697,-3.0183,-3.0591,-3.0566,-3.0436,-3.0512,-3.0305,-3.0046,-3.0047,-3.0245,-3.0847,-3.1362,-3.1823,-3.237,-3.2896,-3.3419,-3.3915,-3.3953,-3.4249,-3.4628,-3.4727,-3.4318,-3.3428,-3.3284,-3.2825,-3.1958,-3.1777,-3.1777,-3.1765,-3.1797,-3.1937,-3.2169,-3.2169,-3.2169,-3.255,-3.2593,-3.2624,-3.2667,-3.2754,-3.2853,-3.3081,-3.3124,-3.3124,-3.3124,-3.324,-3.3398,-3.3628,-3.3894,-3.4105,-3.4285,-3.4356,-3.4397,-3.4397,-3.4397,-3.4397,-3.4397,-3.4397,-3.4397,-3.4397,-3.4397,-3.4397,-3.4675,-3.5977,-3.6415,-3.6322,-3.6455,-3.6744,-3.7017,-3.7211,-3.7544,-3.781,-3.7872,-3.7947,-3.7947,-3.8066,-3.813,-3.8286,-3.8518,-3.8719,-3.8908,-3.9073,-3.9032,-3.8996,-3.8826,-3.8811,-3.876,-3.8811,-3.89,-3.8789,-3.8701,-3.876,-3.8907,-3.9104,-3.9265,-3.9352,-3.9388,-3.9388,-3.9388,-3.9388,-3.9388,-2.9922,-2.9981,-3.0568,-3.0361,-2.9726,-2.958,-2.915,-2.8564,-2.8574,-2.8516,-2.8545,-2.8516,-2.8574,-2.8555,-2.8516,-2.8741,-2.9172,-2.9568,-2.9743,-2.9896,-3.0065,-3.0004,-3.0036,-2.9994,-3.0297,-3.0795,-3.1311,-3.1812,-3.2308,-3.2583,-3.3162,-3.3793,-3.3537,-3.3773,-3.4363,-3.4703,-3.415,-3.3332,-3.3176,-3.2647,-3.1958,-3.1705,-3.1705,-3.1717,-3.1805,-3.1981,-3.2025,-3.2038,-3.2025,-3.2113,-3.2113,-3.2257,-3.2506,-3.281,-3.3025,-3.3081,-3.3124,-3.3124,-3.3124,-3.3167,-3.3283,-3.3441,-3.3683,-3.3894,-3.4118,-3.4314,-3.4397,-3.4397,-3.4397,-3.4397,-3.4397,-3.4397,-3.4397,-3.4397,-3.4397,-3.4397,-3.4551,-3.5127,-3.575,-3.5575,-3.575,-3.6005,-3.635,-3.6626,-3.6808,-3.7028,-3.7092,-3.7078,-3.7039,-3.7299,-3.7548,-3.7754,-3.7973,-3.8176,-3.8327,-3.8558,-3.8626,-3.8692,-3.8627,-3.8627,-3.8612,-3.8553,-3.8516,-3.8516,-3.8664,-3.8833,-3.898,-3.909,-3.925,-3.9373,-3.9388,-3.9388,-3.9388,-3.9388,-3.9388,-2.9554,-2.9348,-2.9661,-2.9382,-2.8814,-2.8555,-2.8247,-2.7901,-2.8023,-2.8067,-2.813,-2.8237,-2.8301,-2.8301,-2.8301,-2.8461,-2.8727,-2.8973,-2.929,-2.9617,-2.9722,-2.9879,-2.9994,-2.9994,-3.0339,-3.0744,-3.1094,-3.1688,-3.2499,-3.2622,-3.2898,-3.3016,-3.2833,-3.2964,-3.3372,-3.3601,-3.3468,-3.2985,-3.2851,-3.2515,-3.1801,-3.1705,-3.1705,-3.1761,-3.1805,-3.1981,-3.2169,-3.2038,-3.2157,-3.2332,-3.2376,-3.2419,-3.2593,-3.2853,-3.3124,-3.3124,-3.3124,-3.3124,-3.3124,-3.3124,-3.3227,-3.3526,-3.3641,-3.3894,-3.4147,-3.4356,-3.4397,-3.4397,-3.4397,-3.4397,-3.4397,-3.4384,-3.4397,-3.4397,-3.4371,-3.4345,-3.4454,-3.4703,-3.4774,-3.487,-3.521,-3.5507,-3.579,-3.5991,-3.6097,-3.6203,-3.6308,-3.6215,-3.6136,-3.6638,-3.7056,-3.7495,-3.7763,-3.8028,-3.8165,-3.8277,-3.8389,-3.8427,-3.8427,-3.8464,-3.8427,-3.8404,-3.8366,-3.8329,-3.8538,-3.8797,-3.8943,-3.9017,-3.9213,-3.9373,-3.9388,-3.9388,-3.9388,-3.9388,-3.9388,-2.9002,-2.8676,-2.8691,-2.8435,-2.8093,-2.777,-2.758,-2.7485,-2.7862,-2.796,-2.796,-2.8184,-2.8301,-2.8301,-2.8344,-2.8451,-2.8727,-2.8973,-2.929,-2.9554,-2.9722,-2.9827,-2.9931,-2.9943,-3.0016,-3.0242,-3.0555,-3.1269,-3.2134,-3.2258,-3.2474,-3.2639,-3.237,-3.2317,-3.2734,-3.3172,-3.2845,-3.2613,-3.2491,-3.2226,-3.1849,-3.1761,-3.1717,-3.1705,-3.1705,-3.1937,-3.2213,-3.2069,-3.2201,-3.2463,-3.2593,-3.2636,-3.2723,-3.2896,-3.3025,-3.3068,-3.3124,-3.3124,-3.3124,-3.3124,-3.324,-3.3556,-3.3683,-3.3937,-3.4189,-3.4314,-3.4397,-3.4397,-3.4397,-3.4306,-3.4201,-3.4214,-3.4123,-3.3966,-3.394,-3.4005,-3.3914,-3.3944,-3.3932,-3.4161,-3.4631,-3.4968,-3.5184,-3.5263,-3.5372,-3.5494,-3.5561,-3.5507,-3.5548,-3.6243,-3.6783,-3.7289,-3.7672,-3.7953,-3.8127,-3.8202,-3.8277,-3.8277,-3.8315,-3.8315,-3.8277,-3.824,-3.824,-3.824,-3.8389,-3.8649,-3.8797,-3.8943,-3.9177,-3.9301,-3.9388,-3.9388,-3.9388,-3.9388,-3.9388,-2.8341,-2.8294,-2.8578,-2.8435,-2.8112,-2.8182,-2.7972,-2.7495,-2.796,-2.8121,-2.7906,-2.8184,-2.8301,-2.8301,-2.8301,-2.8461,-2.8674,-2.893,-2.9154,-2.943,-2.965,-2.9786,-2.987,-2.9539,-2.9466,-2.9638,-2.9817,-3.0597,-3.1269,-3.12,-3.177,-3.2449,-3.2052,-3.2194,-3.296,-3.2932,-3.302,-3.2575,-3.2466,-3.2202,-3.1813,-3.1849,-3.1862,-3.1805,-3.1849,-3.1994,-3.2125,-3.2081,-3.2201,-3.2431,-3.2475,-3.2562,-3.268,-3.2723,-3.2896,-3.3025,-3.3124,-3.3124,-3.3124,-3.3124,-3.3197,-3.3471,-3.3586,-3.3852,-3.4056,-3.421,-3.4306,-3.4397,-3.4332,-3.4084,-3.3757,-3.3692,-3.343,-3.3221,-3.313,-3.3077,-3.3025,-3.3352,-3.33,-3.3275,-3.3674,-3.4137,-3.4523,-3.4571,-3.4618,-3.4729,-3.4786,-3.4719,-3.4859,-3.549,-3.6378,-3.6894,-3.7191,-3.7434,-3.7749,-3.7901,-3.7938,-3.8014,-3.8089,-3.8127,-3.8089,-3.8089,-3.8202,-3.8277,-3.8389,-3.8501,-3.8686,-3.8907,-3.9156,-3.9265,-3.9337,-3.9388,-3.9388,-3.9388,-3.9388,-2.7512,-2.7884,-2.7819,-2.7697,-2.7506,-2.7597,-2.7493,-2.7342,-2.7799,-2.8014,-2.796,-2.8184,-2.8301,-2.8301,-2.8301,-2.8354,-2.8514,-2.8581,-2.876,-2.8946,-2.9124,-2.9167,-2.9146,-2.9021,-2.8918,-2.8937,-2.9053,-2.9234,-2.9854,-3.0217,-3.08,-3.1319,-3.1024,-3.0938,-3.2369,-3.2196,-3.2115,-3.2013,-3.1997,-3.1889,-3.1765,-3.1793,-3.1805,-3.1705,-3.1817,-3.1937,-3.2169,-3.2225,-3.2431,-3.2692,-3.2822,-3.2822,-3.2909,-3.2939,-3.2982,-3.3081,-3.3124,-3.3124,-3.3124,-3.3124,-3.3159,-3.3373,-3.3547,-3.3711,-3.3809,-3.3845,-3.3757,-3.343,-3.3417,-3.33,-3.3156,-3.3091,-3.296,-3.2751,-3.2502,-3.2555,-3.2568,-3.2672,-3.279,-3.2712,-3.2685,-3.3184,-3.354,-3.346,-3.3537,-3.3736,-3.3778,-3.3752,-3.3914,-3.4411,-3.5421,-3.6503,-3.6636,-3.6783,-3.7119,-3.7366,-3.7404,-3.7481,-3.7801,-3.7801,-3.7877,-3.7953,-3.804,-3.8144,-3.8248,-3.8412,-3.8598,-3.8848,-3.9068,-3.9177,-3.9301,-3.9337,-3.9388,-3.9388,-3.9388,-2.693,-2.7409,-2.7142,-2.7013,-2.689,-2.7043,-2.7053,-2.7098,-2.7628,-2.7906,-2.796,-2.8184,-2.8301,-2.8252,-2.8174,-2.8139,-2.8255,-2.8133,-2.8264,-2.8346,-2.8451,-2.8574,-2.8685,-2.8632,-2.8499,-2.8518,-2.8353,-2.8419,-2.8502,-2.8915,-2.9472,-3.0276,-3.0507,-3.0661,-3.0994,-3.1407,-3.168,-3.1757,-3.1777,-3.1741,-3.1705,-3.1705,-3.1705,-3.1705,-3.1761,-3.1937,-3.2313,-3.24,-3.2605,-3.2939,-3.2939,-3.2939,-3.3025,-3.2995,-3.2995,-3.3081,-3.3124,-3.3124,-3.3048,-3.2986,-3.3008,-3.306,-3.3161,-3.3104,-3.3253,-3.3284,-3.3233,-3.2842,-3.2816,-3.2712,-3.2502,-3.2476,-3.2306,-3.2215,-3.2123,-3.2228,-3.2306,-3.2306,-3.2202,-3.2006,-3.2006,-3.2176,-3.2398,-3.2319,-3.2398,-3.2659,-3.2725,-3.2765,-3.3091,-3.3555,-3.4353,-3.5485,-3.584,-3.6067,-3.6511,-3.6778,-3.6824,-3.7003,-3.7275,-3.7505,-3.7606,-3.7699,-3.7788,-3.7912,-3.7984,-3.7986,-3.7989,-3.8517,-3.8995,-3.9104,-3.9213,-3.9286,-3.9337,-3.9358,-3.9194,-2.6755,-2.7036,-2.6737,-2.6682,-2.67,-2.7161,-2.7206,-2.7152,-2.7691,-2.7897,-2.796,-2.8184,-2.8291,-2.8184,-2.7973,-2.7901,-2.8073,-2.7667,-2.7792,-2.8036,-2.8258,-2.8431,-2.8522,-2.844,-2.8277,-2.8156,-2.795,-2.7667,-2.7521,-2.7865,-2.8951,-3.0248,-3.0283,-3.1113,-3.1545,-3.155,-3.1641,-3.1705,-3.1705,-3.1705,-3.1705,-3.1705,-3.1705,-3.1705,-3.1749,-3.1937,-3.2356,-3.24,-3.2618,-3.3025,-3.2896,-3.2896,-3.3025,-3.2909,-3.2896,-3.3038,-3.3124,-3.3086,-3.2918,-3.2616,-3.2328,-3.2235,-3.2215,-3.2301,-3.2471,-3.2485,-3.2487,-3.245,-3.228,-3.2254,-3.2006,-3.1823,-3.1718,-3.1601,-3.1548,-3.1535,-3.164,-3.1797,-3.1666,-3.1365,-3.1392,-3.1627,-3.1653,-3.164,-3.1797,-3.2071,-3.2292,-3.2305,-3.254,-3.2965,-3.3473,-3.4246,-3.481,-3.53,-3.5941,-3.6126,-3.608,-3.6445,-3.6866,-3.7151,-3.7381,-3.7457,-3.7578,-3.7418,-3.7433,-3.7404,-3.7542,-3.8142,-3.8664,-3.8965,-3.9126,-3.9081,-3.905,-3.8975,-3.8749,-2.67,-2.6736,-2.6646,-2.6791,-2.7116,-2.7323,-2.7485,-2.7584,-2.796,-2.8121,-2.813,-2.8228,-2.8154,-2.793,-2.7826,-2.7552,-2.742,-2.7263,-2.7351,-2.7523,-2.7814,-2.8085,-2.8166,-2.8318,-2.8187,-2.8106,-2.7749,-2.7464,-2.7447,-2.7492,-2.8231,-2.9269,-2.99,-3.0445,-3.0933,-3.1526,-3.1653,-3.1717,-3.1717,-3.1705,-3.1705,-3.1705,-3.1705,-3.1705,-3.1705,-3.1937,-3.23,-3.24,-3.2705,-3.2909,-3.2822,-3.2896,-3.2982,-3.281,-3.2853,-3.3068,-3.3124,-3.2918,-3.2616,-3.2315,-3.2143,-3.1972,-3.1879,-3.1745,-3.1704,-3.1653,-3.1552,-3.1526,-3.1539,-3.146,-3.1393,-3.1326,-3.1235,-3.1052,-3.1024,-3.1024,-3.1117,-3.1378,-3.1378,-3.1196,-3.113,-3.1209,-3.1156,-3.1102,-3.1287,-3.1547,-3.1689,-3.1896,-3.2129,-3.2284,-3.276,-3.3165,-3.3734,-3.4032,-3.4618,-3.4991,-3.5298,-3.579,-3.6267,-3.6469,-3.6626,-3.7287,-3.7295,-3.7114,-3.6918,-3.7005,-3.7266,-3.7876,-3.8318,-3.8561,-3.8693,-3.8766,-3.8669,-3.8555,-3.816,-2.6591,-2.6591,-2.6591,-2.6845,-2.7269,-2.7368,-2.7593,-2.7906,-2.8077,-2.8184,-2.8184,-2.8228,-2.8144,-2.7861,-2.7519,-2.7334,-2.7002,-2.6789,-2.6883,-2.7122,-2.7451,-2.7802,-2.8124,-2.8348,-2.8442,-2.8218,-2.7843,-2.7579,-2.7492,-2.7602,-2.7999,-2.852,-2.9117,-2.984,-3.0658,-3.1217,-3.1572,-3.1572,-3.1673,-3.1717,-3.1705,-3.1705,-3.1705,-3.1705,-3.1705,-3.1893,-3.2157,-3.2257,-3.2431,-3.2649,-3.2736,-3.2766,-3.281,-3.2853,-3.2853,-3.2995,-3.3061,-3.2805,-3.2353,-3.1838,-3.1606,-3.1147,-3.1099,-3.099,-3.0969,-3.0893,-3.0804,-3.0752,-3.0674,-3.0685,-3.0874,-3.0939,-3.104,-3.0949,-3.0986,-3.1037,-3.1104,-3.13,-3.1196,-3.1078,-3.113,-3.1274,-3.1013,-3.1024,-3.1178,-3.1348,-3.1487,-3.1551,-3.1627,-3.1805,-3.1982,-3.2321,-3.2653,-3.2921,-3.3137,-3.3787,-3.4361,-3.4519,-3.4965,-3.5317,-3.5669,-3.6299,-3.641,-3.5819,-3.5841,-3.6404,-3.6729,-3.6925,-3.7492,-3.815,-3.8121,-3.7986,-3.7881,-3.7656,-3.7296,-2.6591,-2.6591,-2.6591,-2.6727,-2.6997,-2.7251,-2.7555,-2.7713,-2.78,-2.7791,-2.7834,-2.8087,-2.8184,-2.7959,-2.7363,-2.706,-2.6777,-2.623,-2.6241,-2.6922,-2.7181,-2.7814,-2.834,-2.8615,-2.8452,-2.8358,-2.7925,-2.753,-2.7505,-2.7249,-2.7473,-2.8222,-2.9013,-2.976,-3.0566,-3.1083,-3.1306,-3.135,-3.1584,-3.1629,-3.1661,-3.1661,-3.1705,-3.1705,-3.1705,-3.1849,-3.2038,-3.2169,-3.2344,-3.2519,-3.2562,-3.2636,-3.281,-3.2766,-3.2853,-3.3081,-3.3031,-3.2729,-3.219,-3.1223,-3.0597,-3.0247,-3.0324,-3.0199,-3.0151,-3.0177,-3.0292,-3.0368,-3.0419,-3.0533,-3.0647,-3.0736,-3.0849,-3.0949,-3.0986,-3.105,-3.1117,-3.1182,-3.1104,-3.1039,-3.1392,-3.1575,-3.1235,-3.1024,-3.1123,-3.1237,-3.1286,-3.131,-3.131,-3.141,-3.1564,-3.1684,-3.1949,-3.2095,-3.2414,-3.2982,-3.3419,-3.3523,-3.3836,-3.4355,-3.4482,-3.4757,-3.4669,-3.4367,-3.4767,-3.5375,-3.5554,-3.5725,-3.646,-3.7127,-3.7139,-3.7061,-3.6969,-3.6792,-3.6443,-2.6591,-2.6591,-2.6591,-2.6579,-2.6616,-2.6695,-2.6918,-2.7074,-2.695,-2.686,-2.7083,-2.7443,-2.7519,-2.7341,-2.7197,-2.6855,-2.6514,-2.6094,-2.6143,-2.6456,-2.6813,-2.7211,-2.7774,-2.8188,-2.8167,-2.7975,-2.7603,-2.7461,-2.7494,-2.7115,-2.7626,-2.8409,-2.9198,-3.0182,-3.0736,-3.1062,-3.1107,-3.1139,-3.1306,-3.1439,-3.1439,-3.1617,-3.1705,-3.1705,-3.1705,-3.1805,-3.1994,-3.2081,-3.2257,-3.2463,-3.2463,-3.2636,-3.281,-3.281,-3.281,-3.2925,-3.2805,-3.2064,-3.1311,-3.047,-3.0043,-2.9829,-2.9779,-2.9818,-2.9895,-2.9908,-3.0011,-3.0152,-3.019,-3.0343,-3.0622,-3.0698,-3.0811,-3.0949,-3.1024,-3.1024,-3.1039,-3.1091,-3.1078,-3.1026,-3.1222,-3.1287,-3.1065,-3.1024,-3.1099,-3.1123,-3.1198,-3.1161,-3.1161,-3.1235,-3.1349,-3.1288,-3.1406,-3.1472,-3.1734,-3.2221,-3.2459,-3.2524,-3.3095,-3.3808,-3.3786,-3.3523,-3.3581,-3.3603,-3.3978,-3.4319,-3.4754,-3.5144,-3.5578,-3.5977,-3.6126,-3.6166,-3.6014,-3.5819,-3.5545,-2.6371,-2.6353,-2.6215,-2.612,-2.612,-2.6275,-2.6539,-2.6622,-2.6347,-2.6387,-2.6772,-2.7004,-2.7046,-2.7,-2.6846,-2.6709,-2.6338,-2.5947,-2.6153,-2.6426,-2.6754,-2.734,-2.7751,-2.7873,-2.8097,-2.7834,-2.7541,-2.7386,-2.7484,-2.7105,-2.7473,-2.8409,-2.9474,-2.9897,-3.0408,-3.0601,-3.0927,-3.1017,-3.1229,-3.1395,-3.1484,-3.1629,-3.1705,-3.1705,-3.1705,-3.1749,-3.1893,-3.2069,-3.2213,-3.2376,-3.2463,-3.255,-3.2636,-3.2766,-3.2766,-3.2746,-3.2261,-3.1521,-3.0783,-3.0168,-2.988,-2.9792,-2.9779,-2.9779,-2.9779,-2.983,-2.9869,-2.9972,-3.0011,-3.0203,-3.0432,-3.0546,-3.0698,-3.0874,-3.0986,-3.0986,-3.1037,-3.1039,-3.1052,-3.1037,-3.1024,-3.1024,-3.1024,-3.1024,-3.1061,-3.1061,-3.1061,-3.1061,-3.1061,-3.1123,-3.1198,-3.1136,-3.1099,-3.1215,-3.1269,-3.1453,-3.1585,-3.1535,-3.2165,-3.2925,-3.2734,-3.2428,-3.2604,-3.2842,-3.3049,-3.3453,-3.4172,-3.4657,-3.4967,-3.5178,-3.5325,-3.5267,-3.5101,-3.5014,-3.4893,-2.5993,-2.5938,-2.5589,-2.5442,-2.546,-2.5971,-2.6281,-2.6442,-2.6199,-2.6353,-2.6832,-2.6567,-2.6637,-2.6834,-2.6582,-2.6416,-2.6309,-2.5879,-2.6212,-2.6733,-2.6803,-2.7479,-2.7899,-2.8181,-2.7981,-2.7911,-2.7707,-2.7321,-2.7403,-2.7527,-2.7736,-2.8175,-2.9301,-2.9715,-2.9988,-3.0273,-3.0691,-3.0916,-3.1184,-3.135,-3.1484,-3.1673,-3.1705,-3.1705,-3.1705,-3.1705,-3.1793,-3.1849,-3.1849,-3.1881,-3.1981,-3.2038,-3.2213,-3.245,-3.2636,-3.2406,-3.1764,-3.1179,-3.0493,-2.9916,-2.9842,-2.9779,-2.9779,-2.9779,-2.9779,-2.9779,-2.983,-2.983,-2.9856,-3.0011,-3.0164,-3.0343,-3.0571,-3.0723,-3.0949,-3.0986,-3.0986,-3.1037,-3.1037,-3.1024,-3.1024,-3.1024,-3.1024,-3.1024,-3.1024,-3.1024,-3.1061,-3.1048,-3.1086,-3.1136,-3.1161,-3.1061,-3.1024,-3.1024,-3.1065,-3.1143,-3.1169,-3.1274,-3.1271,-3.1779,-3.1516,-3.1615,-3.1907,-3.2136,-3.2132,-3.2513,-3.326,-3.381,-3.4238,-3.4412,-3.46,-3.4708,-3.4665,-3.4661,-3.4574,-2.5537,-2.5571,-2.546,-2.5258,-2.5001,-2.4868,-2.4945,-2.5092,-2.5033,-2.5192,-2.5509,-2.5764,-2.615,-2.6543,-2.6435,-2.6377,-2.6211,-2.6006,-2.5908,-2.6153,-2.6476,-2.6642,-2.6907,-2.7301,-2.7309,-2.7288,-2.7196,-2.7232,-2.7554,-2.7773,-2.8008,-2.8269,-2.9244,-2.9612,-2.9749,-3.0034,-3.0363,-3.0724,-3.1038,-3.1306,-3.1439,-3.1572,-3.1617,-3.1661,-3.1617,-3.1617,-3.1717,-3.1805,-3.1849,-3.1937,-3.2169,-3.2257,-3.23,-3.2382,-3.2346,-3.142,-3.1092,-3.0804,-2.9957,-2.9789,-2.9779,-2.9779,-2.9779,-2.9779,-2.9779,-2.9779,-2.9779,-2.9779,-2.9792,-2.9934,-3.0126,-3.0305,-3.0495,-3.071,-3.0874,-3.0986,-3.1024,-3.1024,-3.1024,-3.1024,-3.1024,-3.1024,-3.1024,-3.1024,-3.1024,-3.1024,-3.1024,-3.1048,-3.1086,-3.1123,-3.1136,-3.1024,-3.1024,-3.1024,-3.1024,-3.1052,-3.1026,-3.105,-3.1061,-3.1123,-3.1261,-3.14,-3.1447,-3.1582,-3.1827,-3.2069,-3.2408,-3.3023,-3.377,-3.3805,-3.3982,-3.4117,-3.4264,-3.4346,-3.438,-2.5133,-2.5106,-2.5001,-2.49,-2.4811,-2.461,-2.4597,-2.4735,-2.4548,-2.4587,-2.492,-2.5206,-2.5569,-2.5935,-2.6064,-2.6103,-2.6084,-2.5889,-2.581,-2.5995,-2.6004,-2.6247,-2.642,-2.6651,-2.6855,-2.6805,-2.6853,-2.6999,-2.7357,-2.7773,-2.8055,-2.7857,-2.9106,-2.9187,-2.9152,-2.9393,-2.9772,-3.0216,-3.0668,-3.1172,-3.135,-3.135,-3.1395,-3.1572,-3.1484,-3.1439,-3.1717,-3.1849,-3.1893,-3.1893,-3.2069,-3.2125,-3.2125,-3.2133,-3.1841,-3.1097,-3.1026,-3.0487,-2.9756,-2.97,-2.974,-2.9779,-2.9779,-2.9779,-2.9779,-2.9779,-2.9779,-2.9779,-2.983,-2.9908,-3.0088,-3.0305,-3.052,-3.071,-3.0861,-3.0986,-3.1024,-3.1024,-3.1024,-3.1024,-3.1024,-3.1024,-3.1024,-3.0986,-3.1024,-3.1024,-3.1024,-3.1024,-3.1011,-3.1061,-3.1061,-3.1024,-3.1024,-3.1024,-3.1024,-3.1024,-3.1024,-3.1024,-3.1024,-3.1099,-3.1161,-3.1198,-3.1211,-3.1421,-3.1666,-3.1886,-3.2019,-3.2775,-3.3409,-3.3479,-3.3701,-3.4094,-3.4312,-3.4346,-3.438,-2.473,-2.4711,-2.4358,-2.4505,-2.4843,-2.4794,-2.499,-2.5186,-2.4597,-2.4498,-2.4892,-2.4941,-2.5185,-2.5537,-2.5732,-2.5771,-2.5781,-2.5713,-2.5781,-2.6052,-2.6052,-2.6197,-2.64,-2.6709,-2.6699,-2.6651,-2.6747,-2.6948,-2.7044,-2.7547,-2.7867,-2.7404,-2.8092,-2.8456,-2.8549,-2.8932,-2.9266,-2.9542,-3.0136,-3.0724,-3.1071,-3.1026,-3.0892,-3.1395,-3.1261,-3.1071,-3.1528,-3.1705,-3.1705,-3.1705,-3.1761,-3.1805,-3.1937,-3.1913,-3.1534,-3.1117,-3.0927,-3.0316,-2.9779,-2.9624,-2.974,-2.9779,-2.9779,-2.9779,-2.9779,-2.9779,-2.9779,-2.9779,-2.983,-2.9856,-3.0037,-3.019,-3.0368,-3.0558,-3.0685,-3.0748,-3.0785,-3.0785,-3.0798,-3.0798,-3.0798,-3.0798,-3.0911,-3.0874,-3.0949,-3.0986,-3.1024,-3.1024,-3.0986,-3.0986,-3.0986,-3.0986,-3.1024,-3.1024,-3.1024,-3.1024,-3.1024,-3.1024,-3.1024,-3.1024,-3.1099,-3.1061,-3.1024,-3.1198,-3.1421,-3.1556,-3.1813,-3.2453,-3.2952,-3.3339,-3.3632,-3.4162,-3.4346,-3.4346,-3.438,-2.4349,-2.4349,-2.4248,-2.435,-2.4587,-2.4587,-2.4735,-2.4981,-2.4833,-2.4892,-2.5128,-2.5235,-2.5342,-2.5538,-2.5635,-2.5684,-2.5684,-2.5684,-2.5732,-2.5868,-2.5955,-2.6052,-2.6245,-2.6448,-2.6506,-2.6602,-2.6757,-2.6996,-2.7177,-2.7641,-2.8008,-2.7914,-2.8279,-2.8466,-2.8315,-2.8699,-2.8803,-2.8896,-2.9266,-2.9795,-3.0102,-3.0566,-3.0802,-3.1128,-3.1071,-3.135,-3.1661,-3.1705,-3.1705,-3.1705,-3.1849,-3.2025,-3.2257,-3.2069,-3.1466,-3.079,-3.0679,-3.0146,-2.9685,-2.9534,-2.974,-2.9779,-2.9779,-2.9779,-2.9779,-2.9779,-2.9779,-2.9779,-2.9818,-2.9895,-2.996,-3.0113,-3.0254,-3.0368,-3.0533,-3.0558,-3.0583,-3.0596,-3.0596,-3.0596,-3.0596,-3.0647,-3.0723,-3.0811,-3.0874,-3.0911,-3.0986,-3.0986,-3.0949,-3.0949,-3.0911,-3.0949,-3.0986,-3.1024,-3.1024,-3.1024,-3.1024,-3.1024,-3.1024,-3.1024,-3.1024,-3.1024,-3.1024,-3.1024,-3.1136,-3.1272,-3.1445,-3.174,-3.2273,-3.281,-3.3339,-3.3736,-3.4094,-3.4196,-3.4312,-2.4211,-2.4211,-2.4211,-2.4399,-2.4627,-2.4686,-2.4883,-2.5186,-2.5294,-2.5333,-2.544,-2.5382,-2.5382,-2.5596,-2.5635,-2.5684,-2.5684,-2.5684,-2.5732,-2.5771,-2.582,-2.5868,-2.6062,-2.6207,-2.6159,-2.6255,-2.6554,-2.6842,-2.7214,-2.7499,-2.7773,-2.7773,-2.8196,-2.829,-2.8139,-2.8149,-2.8243,-2.8279,-2.8384,-2.856,-2.8991,-2.9612,-3.0352,-3.0713,-3.1026,-3.1294,-3.1661,-3.1705,-3.1705,-3.1761,-3.1893,-3.1994,-3.2084,-3.1901,-3.1321,-3.0704,-3.0351,-3.0096,-2.9532,-2.9456,-2.9779,-2.9779,-2.9779,-2.9779,-2.9779,-2.9779,-2.9779,-2.9779,-2.9779,-2.9856,-2.9934,-3.0049,-3.0228,-3.0368,-3.0533,-3.0647,-3.0685,-3.0723,-3.0685,-3.0647,-3.0558,-3.0482,-3.0558,-3.0558,-3.0596,-3.0647,-3.071,-3.0761,-3.0761,-3.0836,-3.0836,-3.0874,-3.0911,-3.0986,-3.1024,-3.1024,-3.1024,-3.1024,-3.1024,-3.1024,-3.1024,-3.1024,-3.1024,-3.1024,-3.1024,-3.1024,-3.1235,-3.1482,-3.174,-3.2237,-3.2775,-3.3269,-3.3632,-3.4025,-3.4094,-2.4211,-2.4211,-2.4211,-2.4449,-2.4892,-2.4892,-2.5186,-2.5635,-2.5684,-2.5684,-2.5635,-2.544,-2.5391,-2.544,-2.5586,-2.5635,-2.5684,-2.5684,-2.5684,-2.5684,-2.5732,-2.5781,-2.582,-2.5917,-2.5917,-2.6014,-2.6304,-2.6651,-2.6996,-2.7225,-2.7367,-2.732,-2.732,-2.732,-2.732,-2.7367,-2.7499,-2.7547,-2.7594,-2.7536,-2.7998,-2.8699,-2.952,-3.0114,-3.0476,-3.0836,-3.1294,-3.1572,-3.1528,-3.1805,-3.1881,-3.1928,-3.1901,-3.1706,-3.1088,-3.0555,-3.0294,-2.9865,-2.9436,-2.9546,-2.9702,-2.9779,-2.9779,-2.9779,-2.9779,-2.9779,-2.9779,-2.9779,-2.9779,-2.9818,-2.9869,-2.9934,-3.0152,-3.0343,-3.0533,-3.0698,-3.0698,-3.0698,-3.0647,-3.0571,-3.0444,-3.0317,-3.0355,-3.0355,-3.0368,-3.0368,-3.0368,-3.0406,-3.0444,-3.0609,-3.0685,-3.0723,-3.0798,-3.0874,-3.0986,-3.0986,-3.0986,-3.1024,-3.1024,-3.1024,-3.1024,-3.1024,-3.1024,-3.1024,-3.1024,-3.1024,-3.1161,-3.1445,-3.1666,-3.185,-3.2704,-3.3304,-3.3409,-3.377,-3.3839,-2.4211,-2.4211,-2.4211,-2.4489,-2.4892,-2.4892,-2.5186,-2.5635,-2.5684,-2.5684,-2.5684,-2.5635,-2.5635,-2.5586,-2.5635,-2.5684,-2.5684,-2.5684,-2.5684,-2.5684,-2.5684,-2.5684,-2.5732,-2.5878,-2.5917,-2.6062,-2.6255,-2.6458,-2.689,-2.6986,-2.7081,-2.7262,-2.732,-2.7309,-2.7309,-2.7309,-2.7262,-2.7272,-2.7262,-2.7309,-2.7536,-2.8092,-2.8606,-2.9106,-2.9474,-3.0068,-3.0578,-3.0791,-3.116,-3.1572,-3.1801,-3.177,-3.1565,-3.1333,-3.077,-3.0109,-2.9861,-2.9598,-2.9357,-2.9351,-2.9417,-2.9624,-2.9624,-2.9702,-2.974,-2.9779,-2.9779,-2.9779,-2.9779,-2.9779,-2.9818,-2.9818,-2.9972,-3.0152,-3.0343,-3.0457,-3.0533,-3.0381,-3.0305,-3.0228,-3.0113,-3.0113,-3.0139,-3.0177,-3.0254,-3.0267,-3.0292,-3.0292,-3.033,-3.0457,-3.0546,-3.0609,-3.0685,-3.0836,-3.0949,-3.0949,-3.0936,-3.0986,-3.1024,-3.1024,-3.1024,-3.1024,-3.1024,-3.1024,-3.1024,-3.1024,-3.1198,-3.1384,-3.1556,-3.185,-3.2881,-3.3479,-3.3444,-3.3479,-3.3563]}]]